GFSCGP_700_rhum_000.txt.gz
RH
87 98 98 86 69 71 83 84 76 67 58 48 40 37 28 34 37 33 32 34 36 33 30 29 30 30 24 25 27 27 27 27 26 26 29 30 31 32 31 31 30 30 32 34
100 97 95 89 73 86 86 94 85 68 65 50 45 40 32 32 31 28 30 32 34 34 31 32 32 26 28 28 30 29 29 29 31 30 28 28 26 25 24 24 26 28 31 33
98 95 92 94 84 94 97 98 81 74 68 62 46 38 29 30 32 32 30 34 36 35 32 32 28 28 30 31 32 32 32 32 31 29 28 28 26 25 24 25 27 31 34 37
100 100 100 96 90 85 96 77 78 80 83 54 49 54 40 26 33 34 35 36 35 34 33 28 29 32 33 35 34 33 33 33 30 27 25 29 33 33 32 32 33 35 36 37
95 95 100 100 85 80 80 66 85 86 63 52 51 51 38 28 27 32 31 36 33 33 32 31 33 34 36 35 36 36 35 32 31 32 37 39 39 39 38 39 40 41 44 46
100 90 98 90 92 92 84 95 83 68 53 61 47 49 34 28 33 33 33 36 36 36 33 36 35 35 35 38 37 37 36 36 39 43 44 44 46 47 48 48 49 50 53 57
93 89 94 88 97 97 99 96 83 64 66 70 43 46 34 23 33 31 33 35 37 38 36 37 35 35 38 38 40 40 42 48 49 48 49 52 54 55 56 58 59 61 62 62
96 98 99 100 86 89 100 96 57 71 74 61 49 46 28 28 29 29 30 37 39 40 37 37 35 39 39 42 44 48 53 52 51 52 52 53 54 58 61 64 66 67 67 65
99 91 93 85 71 84 98 88 56 56 64 68 53 42 35 32 35 31 32 33 38 42 41 39 38 39 43 45 51 58 55 53 51 50 52 53 57 66 72 73 74 73 70 65
87 85 83 88 96 93 80 62 58 55 66 70 57 45 40 37 36 34 30 34 39 44 44 39 39 43 45 50 63 61 57 57 58 58 59 60 61 65 68 69 69 65 56 52
69 68 83 83 84 88 71 58 54 51 53 64 65 41 36 35 36 35 35 40 44 48 41 40 43 45 49 60 67 62 62 63 65 66 67 68 71 70 64 62 57 47 47 52
72 59 70 58 56 57 55 54 51 49 54 52 50 47 40 35 35 36 40 47 49 42 44 46 44 45 57 64 69 66 66 67 68 68 73 69 64 69 73 62 51 42 53 55
64 56 77 79 63 56 56 55 52 49 46 45 52 43 37 36 34 36 46 45 46 46 48 47 43 59 62 69 74 70 69 71 74 77 76 75 73 73 81 76 47 57 60 62
60 55 53 72 65 59 56 55 54 51 52 50 48 45 40 35 34 37 42 41 43 48 50 46 59 64 66 73 73 72 74 79 76 69 71 68 62 87 81 51 59 66 67 66
76 57 50 46 48 51 54 44 47 52 48 52 49 50 49 42 37 40 41 42 47 49 46 57 61 64 66 71 73 77 85 87 74 74 83 84 95 74 50 62 67 65 70 65
85 62 61 58 49 54 53 50 49 47 49 52 56 51 44 42 42 45 47 48 45 53 54 56 62 68 69 70 79 82 79 78 78 87 95 98 85 54 62 68 70 73 67 50
75 60 56 54 56 57 55 51 49 54 56 56 56 52 51 49 39 45 53 54 54 53 56 61 62 62 64 67 67 66 74 86 93 98 99 87 56 64 64 70 76 70 50 22
57 62 55 45 46 45 40 36 36 47 53 57 56 55 47 40 44 55 57 60 56 56 51 46 47 47 52 55 71 86 96 98 100 97 66 55 63 66 70 69 44 14 8 11
62 58 42 32 33 37 37 31 29 32 34 34 37 42 45 58 64 63 60 58 54 41 31 29 31 39 44 65 73 84 97 97 73 48 58 64 68 69 48 17 9 11 18 18
56 48 43 36 44 60 40 37 41 52 55 55 56 60 65 64 63 60 56 46 35 20 14 18 26 32 39 47 49 49 64 58 52 60 66 68 57 28 12 10 18 21 16 12
64 56 37 36 46 52 55 49 57 66 52 56 64 66 67 62 58 54 48 38 17 12 15 19 22 26 32 42 46 49 48 50 57 62 63 43 19 12 14 22 24 14 13 15
42 37 36 45 62 61 54 63 61 56 53 46 50 58 59 59 57 53 37 18 14 16 19 22 25 30 39 45 47 46 48 52 58 58 36 20 14 18 28 24 14 13 15 18
50 46 50 45 51 53 54 60 61 58 60 59 63 64 65 62 53 33 19 18 20 22 25 29 33 38 42 42 42 42 48 57 56 35 22 17 21 30 26 16 14 14 17 18
65 62 62 62 61 56 54 53 58 62 67 69 69 66 54 42 31 24 22 24 26 28 30 35 37 37 35 35 41 51 58 52 36 24 18 25 29 20 15 16 18 17 14 12
69 68 67 68 69 68 64 63 67 72 70 64 59 54 45 35 29 28 30 29 27 30 33 35 34 32 34 45 56 58 50 37 24 20 28 31 22 15 14 14 16 13 12 15
72 70 72 74 72 71 68 68 67 68 57 50 49 46 38 34 34 35 32 25 25 30 33 34 33 34 42 56 57 49 36 24 24 31 30 22 17 15 15 15 11 11 12 15

GFSCGP_700_rhum_003.txt.gz
RH
99 99 99 96 80 77 76 68 70 71 70 74 53 47 37 28 34 38 40 36 37 36 35 32 28 29 28 24 27 28 28 29 30 30 32 31 29 27 27 28 29 30 33 36
99 100 98 90 83 81 86 84 80 76 78 77 70 49 38 31 26 35 36 32 31 34 36 33 32 30 27 30 31 31 32 32 31 31 28 26 27 27 27 26 28 32 32 35
93 98 90 95 86 87 90 77 77 86 79 75 74 57 41 30 28 26 30 34 30 34 35 34 32 29 33 35 35 34 33 32 31 29 25 24 28 31 33 33 34 35 38 39
94 100 88 97 81 82 87 84 82 87 89 84 70 55 49 37 25 24 34 36 32 36 36 34 31 35 38 37 35 34 34 32 29 24 27 37 41 41 41 42 43 45 47 49
97 98 96 95 96 80 96 86 86 89 91 86 64 52 45 37 32 31 38 36 37 35 34 35 36 38 37 37 38 36 31 27 26 34 44 46 45 47 50 51 53 55 57 59
100 93 100 82 88 87 93 81 89 94 90 60 57 50 38 23 35 34 38 36 37 34 36 37 39 38 39 39 37 34 33 36 43 49 50 49 49 48 51 55 58 60 62 63
99 100 99 100 99 100 98 86 95 95 79 64 49 50 35 29 33 33 34 35 37 38 36 39 40 40 41 40 40 37 39 46 51 51 48 46 44 44 44 47 51 56 55 50
100 100 98 96 100 93 97 92 83 76 69 58 55 50 28 36 34 38 33 37 38 40 38 38 41 42 42 43 41 41 49 53 54 54 54 55 55 53 51 51 51 47 40 34
98 99 97 82 84 88 99 98 87 60 67 66 54 50 42 41 36 37 36 35 38 41 41 42 44 42 43 46 45 49 56 57 59 61 62 60 55 55 53 51 52 51 52 54
72 91 97 96 99 99 90 83 97 64 66 71 61 52 44 39 38 38 34 33 37 42 46 46 45 43 46 50 50 58 64 63 65 66 64 59 50 54 65 63 60 58 56 52
68 70 91 94 96 96 96 97 90 65 56 64 60 43 38 38 35 36 34 37 39 44 50 50 45 47 50 50 55 66 68 69 69 68 66 59 60 73 66 52 48 43 35 41
74 61 78 91 88 91 78 84 84 54 59 55 55 46 40 34 38 35 36 39 44 52 55 49 51 52 47 55 66 68 73 75 71 71 65 68 79 81 79 73 75 40 42 44
72 68 78 76 74 68 84 86 68 63 52 49 54 45 42 39 37 36 37 38 47 53 53 53 52 51 49 62 66 70 77 73 70 70 81 88 87 85 75 81 67 40 43 48
69 62 64 73 70 65 67 74 69 55 54 51 49 45 41 42 42 38 36 38 43 46 50 51 52 50 56 64 66 70 72 71 76 81 90 93 95 84 84 80 44 44 47 49
79 66 60 58 57 59 56 61 59 55 55 53 50 46 36 43 50 47 41 42 44 50 50 51 49 55 62 65 66 68 67 76 84 84 96 99 80 84 86 49 44 48 47 37
89 80 62 54 56 61 60 58 55 53 52 52 51 44 40 46 53 48 43 48 50 48 50 50 57 58 60 62 61 62 73 79 91 96 99 87 59 62 41 42 46 42 27 12
92 73 66 70 60 62 65 53 54 53 49 38 45 32 45 52 49 45 45 44 45 48 55 54 50 46 42 46 60 67 70 81 90 82 57 45 43 40 43 45 38 22 11 10
92 95 81 53 53 53 49 46 48 48 48 51 52 54 56 57 56 55 50 48 57 59 58 50 36 22 30 45 55 62 74 71 70 53 40 40 39 44 44 36 18 12 10 8
96 92 92 47 46 43 36 38 36 33 38 43 47 57 60 59 55 45 45 60 62 53 43 21 7 10 20 32 45 50 50 45 43 37 41 43 47 46 32 18 13 10 9 6
72 66 59 50 38 46 38 37 36 33 34 29 33 38 44 46 48 58 65 60 50 34 14 5 12 16 21 26 31 34 35 36 38 42 49 53 51 34 21 16 12 12 7 6
61 57 86 50 35 34 32 31 39 51 36 38 52 55 56 67 70 67 60 48 34 15 13 17 18 21 23 26 32 36 36 40 46 54 57 54 38 26 18 15 15 9 8 8
71 58 53 45 41 42 46 46 47 48 54 55 68 74 75 72 65 59 48 35 20 19 21 23 23 23 27 31 34 36 38 43 50 55 51 39 30 20 18 18 13 10 10 11
51 59 50 47 40 34 36 39 51 55 59 52 52 57 62 63 59 48 36 26 24 26 26 24 23 25 30 34 34 34 35 42 50 50 43 33 24 21 22 16 13 11 13 12
48 44 46 48 50 53 56 57 60 61 58 59 65 63 58 57 53 42 33 30 30 28 25 22 24 29 33 34 34 35 40 48 47 42 33 25 22 22 17 16 16 15 14 10
57 58 59 61 60 61 62 59 57 58 64 70 70 65 59 51 43 36 34 33 29 22 18 20 28 34 36 36 37 40 44 44 39 32 26 24 25 19 16 16 16 15 12 11
67 66 67 67 66 68 73 73 74 75 77 77 69 64 50 42 39 36 33 26 19 16 20 26 34 39 40 40 42 42 40 36 30 26 26 24 20 20 18 17 15 14 12 12

GFSCGP_700_rhum_009.txt.gz
RH
93 88 99 62 82 95 89 85 68 68 60 62 65 63 53 53 54 52 45 46 40 37 35 34 35 34 31 29 29 26 27 28 29 30 30 31 32 32 31 30 32 34 35 34
99 98 82 57 80 99 91 79 65 57 64 66 60 58 54 55 57 54 46 46 38 39 37 37 36 33 30 30 28 29 31 32 32 32 32 32 30 29 29 30 32 33 35 37
98 86 63 95 97 100 98 94 65 65 73 70 63 63 62 60 59 52 40 47 39 40 35 36 37 33 31 29 31 33 34 36 34 33 32 30 28 28 34 39 41 43 44 43
100 85 99 95 98 100 94 83 66 67 74 61 66 43 38 44 49 41 38 38 34 40 36 35 36 33 31 32 35 36 35 35 32 27 24 27 35 42 45 45 42 38 33 31
77 79 97 99 90 100 99 95 76 82 70 87 79 61 44 44 42 38 36 36 34 35 36 37 36 33 34 35 36 34 34 28 24 23 27 36 45 47 45 43 40 35 27 24
87 83 99 92 99 98 96 91 91 90 76 67 56 55 37 40 41 41 36 36 36 37 37 38 36 34 35 36 34 35 31 29 30 29 33 43 50 52 50 46 41 26 22 22
99 97 99 98 99 100 100 99 95 82 80 53 46 47 40 35 28 34 32 36 39 41 39 38 36 35 36 35 35 35 33 34 35 34 39 50 57 57 53 48 30 24 24 23
94 98 99 90 99 98 98 98 61 63 57 44 51 47 39 41 40 30 36 40 42 41 40 38 37 37 37 36 38 37 37 39 40 42 49 57 60 60 56 49 32 32 34 31
93 90 86 96 100 98 99 96 63 52 44 39 47 44 41 35 39 36 34 37 38 39 38 37 37 38 38 39 40 39 41 43 45 50 57 61 64 64 62 53 37 41 41 31
99 90 98 100 100 100 99 78 72 54 50 46 38 36 35 42 39 38 38 36 36 39 38 38 37 38 41 42 42 42 46 47 50 56 62 65 69 70 66 59 46 44 43 30
98 95 98 100 100 98 99 98 76 53 48 38 39 34 38 40 34 36 38 40 37 37 39 40 38 39 44 46 45 46 49 50 55 60 65 69 74 73 72 65 53 47 33 23
99 98 99 98 100 96 90 90 73 54 53 47 42 38 39 34 29 31 35 36 39 37 39 42 41 42 48 51 49 51 51 52 56 62 69 71 75 75 67 62 54 44 30 25
98 97 99 100 95 100 98 86 83 70 57 46 39 39 36 35 33 31 34 36 36 38 40 42 45 48 52 55 56 54 52 53 57 64 69 72 75 72 62 62 48 38 29 30
99 85 71 54 58 83 98 88 79 70 58 50 46 42 38 37 34 32 33 34 36 38 39 39 44 51 56 60 58 53 51 54 61 67 72 75 77 73 67 64 54 36 33 35
99 73 60 53 55 68 72 82 78 77 68 56 46 47 43 43 44 43 43 36 38 43 41 41 44 54 58 60 55 51 53 60 64 68 71 73 76 76 69 63 43 37 36 37
98 84 68 63 62 59 60 65 71 72 70 64 53 51 48 48 48 47 46 46 40 47 50 47 50 55 57 58 52 54 59 57 57 60 62 72 77 67 56 45 42 39 41 38
99 97 68 57 64 68 64 58 61 64 65 60 57 55 53 52 50 49 45 45 43 46 51 52 55 57 58 53 54 57 54 48 44 46 58 64 63 55 48 46 40 41 39 29
94 94 81 79 61 64 50 49 57 58 57 63 62 57 54 54 54 54 50 46 48 51 52 53 55 55 52 58 58 46 30 21 29 44 52 54 47 50 46 40 42 40 32 28
91 99 93 80 80 66 53 51 51 58 45 48 53 57 58 55 51 54 54 54 53 51 51 53 53 56 61 51 26 8 12 18 24 34 43 37 40 40 40 44 40 32 29 24
99 100 99 88 61 62 44 41 41 50 51 44 42 45 50 44 55 54 54 56 52 52 58 58 61 60 40 17 13 16 18 21 27 34 34 37 39 41 45 38 32 31 28 20
100 100 99 94 96 64 50 39 39 46 42 35 33 30 32 56 60 61 61 60 62 61 59 63 56 38 20 17 19 20 21 25 29 32 37 42 43 45 36 34 35 34 22 18
98 98 98 99 99 85 55 43 42 42 35 34 32 32 35 41 53 60 58 58 60 66 66 54 37 23 20 21 20 19 22 26 32 36 40 46 44 35 36 43 39 25 22 25
94 78 70 72 74 57 53 46 44 43 47 41 38 41 49 52 54 56 62 70 66 56 46 32 24 23 22 19 18 21 27 33 35 40 48 41 36 42 52 45 31 28 30 26
75 77 72 66 60 59 56 52 45 38 39 42 50 51 56 66 67 62 58 57 50 38 28 25 24 20 17 17 20 25 31 35 40 42 36 38 50 58 54 40 35 34 29 24
72 68 69 67 63 62 59 56 43 42 49 48 45 48 52 58 61 58 50 38 31 28 25 22 17 14 13 18 23 28 33 36 36 36 44 56 61 61 55 43 38 33 27 25
53 56 57 65 62 60 54 49 53 56 57 54 54 60 65 67 64 55 42 31 26 20 12 8 9 11 14 17 25 32 33 34 40 49 58 64 64 63 54 43 37 30 27 25

GFSCGP_700_rhum_012.txt.gz
RH
83 87 74 52 62 51 94 88 91 77 75 71 70 64 68 63 58 52 53 46 42 39 34 32 31 36 35 34 32 30 29 26 27 28 28 30 31 33 34 32 30 30 30 31
100 84 32 64 81 84 84 93 89 81 72 72 65 61 58 63 58 51 54 52 44 35 36 38 37 35 35 32 29 28 27 29 31 32 32 33 32 32 30 29 31 34 37 41
88 33 71 88 95 96 97 97 90 98 67 78 64 62 61 56 52 51 53 56 47 43 35 39 38 37 35 32 29 29 31 33 35 34 34 33 30 28 30 36 42 45 43 39
97 77 88 93 94 84 94 77 87 93 96 82 71 62 52 39 50 54 57 58 46 44 32 41 37 37 35 32 31 33 35 34 34 32 26 26 30 38 45 48 46 44 40 35
77 80 87 97 85 78 82 87 85 97 98 86 68 64 52 42 44 52 49 52 49 44 34 40 36 37 34 33 34 36 36 35 30 25 27 29 35 44 48 51 48 41 33 20
81 91 87 66 63 76 89 91 85 99 97 92 94 64 50 44 44 46 46 41 44 42 37 37 38 37 35 34 36 37 36 32 30 32 33 33 38 45 52 51 48 41 28 14
98 91 88 78 88 82 99 99 96 100 99 92 62 67 45 39 42 42 43 42 44 43 36 35 38 37 36 36 39 37 36 34 35 38 38 40 42 48 52 52 45 36 25 15
98 87 63 77 88 80 99 100 100 97 98 57 51 52 46 45 41 34 36 35 41 41 40 40 39 37 38 38 39 38 38 37 38 41 42 43 47 52 53 50 46 40 30 20
85 90 87 64 77 100 97 99 83 85 44 51 50 46 43 42 43 41 39 32 35 37 41 41 39 38 39 40 40 41 41 40 41 43 44 46 51 54 55 55 54 48 33 24
88 98 97 98 100 96 77 83 100 86 58 68 52 45 39 37 34 39 35 31 34 41 40 40 39 39 39 41 42 43 44 43 44 46 48 50 55 59 60 59 56 53 34 26
96 97 99 100 99 98 99 100 86 82 57 56 58 42 38 34 33 37 38 38 36 35 38 39 37 39 39 42 45 45 47 46 47 50 51 54 59 63 63 60 60 51 36 29
92 98 99 92 98 86 98 84 74 53 54 48 41 45 41 38 35 36 38 38 39 39 37 39 39 39 40 42 46 50 50 51 52 52 52 55 62 64 63 63 59 50 40 33
98 98 99 95 99 100 100 96 72 64 61 49 46 45 40 34 30 30 35 37 39 42 40 40 40 41 41 43 48 52 56 58 54 52 52 58 64 65 66 63 57 54 43 32
99 96 99 99 88 87 98 78 64 71 65 52 45 43 41 36 34 32 32 34 37 39 41 40 40 42 44 45 49 56 60 60 54 52 56 62 62 65 63 58 60 56 38 29
98 99 100 81 63 66 62 62 66 74 65 57 48 44 41 38 36 33 38 42 33 34 39 39 40 42 46 48 52 57 61 57 53 55 61 60 60 57 56 61 62 44 32 28
97 90 70 66 66 71 74 71 66 61 71 60 52 49 46 45 46 48 47 46 46 37 39 47 46 44 47 50 54 60 60 54 55 60 57 52 47 47 55 57 42 32 29 30
93 74 78 64 63 58 61 62 67 62 60 64 64 51 52 50 49 48 49 48 40 43 43 41 50 51 52 54 59 60 55 57 59 50 38 30 38 46 39 37 32 29 33 33
66 74 91 68 63 71 54 48 49 56 53 54 59 64 54 55 56 55 54 54 51 43 40 46 53 55 56 59 59 54 59 57 36 16 20 30 37 29 30 30 29 34 33 34
87 89 89 80 75 62 54 51 50 51 52 53 61 60 60 60 57 55 54 52 52 51 52 54 56 57 58 57 56 62 48 17 13 20 25 27 26 28 29 30 35 33 36 40
100 88 87 88 70 75 50 40 42 51 58 54 52 56 60 62 59 53 52 53 56 56 56 55 56 56 58 60 59 39 18 18 21 23 24 24 28 29 31 36 34 41 44 41
100 99 98 98 92 68 60 55 40 50 49 39 40 43 52 50 48 53 61 57 58 58 55 57 61 60 63 54 35 22 21 23 22 21 23 26 29 34 35 36 45 46 42 39
99 98 98 99 98 89 57 57 42 45 39 36 39 32 33 42 49 58 64 63 63 62 64 61 65 64 49 31 24 24 22 20 19 21 24 29 35 34 39 45 46 47 44 39
99 86 94 87 79 62 62 56 49 41 41 43 35 34 38 42 52 62 66 61 60 63 70 67 55 41 28 25 23 19 17 17 19 24 30 34 35 42 46 48 50 48 41 39
88 89 80 76 73 63 59 59 55 52 44 38 40 44 47 52 57 60 61 69 70 62 54 45 32 26 24 20 14 13 14 17 23 30 33 36 42 44 52 55 53 44 41 36
75 80 78 74 65 62 58 59 59 54 41 42 48 46 50 57 64 64 63 60 53 42 33 28 25 19 11 11 12 14 17 24 30 33 39 42 46 53 54 54 50 45 37 31
70 69 68 68 67 65 62 63 58 46 46 54 53 50 52 58 63 66 63 56 44 31 26 18 13 14 14 12 13 18 25 30 34 41 44 48 56 57 55 52 48 42 32 28

GFSCGP_700_rhum_015.txt.gz
RH
53 63 86 66 66 84 86 91 91 84 81 82 69 70 64 56 60 57 53 54 50 44 41 40 30 26 25 28 35 34 34 32 30 28 28 29 29 31 34 34 33 33 33 34
84 92 53 49 56 75 87 86 80 80 89 80 74 71 60 56 59 57 53 53 55 51 43 41 34 31 33 36 34 33 31 29 27 28 31 33 33 33 33 32 33 36 40 45
50 77 49 60 74 85 77 83 77 86 70 79 89 82 72 66 67 61 53 53 57 54 53 47 33 38 37 36 33 31 29 29 31 33 35 34 34 31 31 35 42 47 47 46
81 66 64 82 80 87 93 57 81 79 99 97 82 84 64 65 67 63 59 52 55 54 54 52 35 39 39 37 34 31 30 32 34 35 34 29 27 32 38 46 49 51 48 43
82 90 61 78 49 92 77 75 87 93 92 100 97 98 76 59 64 62 49 52 54 57 56 52 35 40 39 38 33 33 35 36 36 34 27 30 32 34 39 47 52 52 47 38
92 95 86 75 65 68 71 84 82 99 97 97 98 98 68 63 49 42 49 57 56 59 58 51 43 40 39 37 34 35 37 37 35 31 34 37 39 41 45 50 50 45 37 28
99 85 87 85 88 82 86 94 86 90 96 88 80 96 78 45 42 40 38 50 52 57 54 49 48 40 40 37 35 37 39 38 34 36 40 42 43 46 49 50 48 42 34 30
96 87 78 76 82 78 73 78 91 87 84 73 86 98 70 44 38 42 44 44 52 53 40 42 43 42 40 37 37 39 40 38 38 41 43 44 46 48 50 52 50 49 45 40
86 91 75 73 61 72 70 99 53 98 78 100 98 80 54 44 42 44 43 43 42 38 38 42 45 44 40 38 39 41 40 40 42 43 45 47 48 50 53 56 56 54 52 49
76 94 76 86 96 88 79 75 91 99 99 94 78 48 46 47 44 42 37 36 35 34 36 41 46 43 40 40 41 42 42 43 45 45 48 50 51 53 58 63 63 62 59 51
90 99 89 94 98 85 97 99 92 98 90 90 88 54 41 44 43 42 42 40 34 30 34 38 42 42 40 42 42 44 44 46 47 49 52 53 53 57 62 65 65 64 58 47
89 97 98 91 88 97 76 98 94 92 100 94 47 48 42 40 40 34 35 32 35 35 35 38 41 41 40 43 42 45 46 49 52 56 59 56 56 59 64 67 64 61 52 40
97 98 93 100 100 100 100 91 63 78 99 82 54 48 43 39 37 37 36 38 39 41 39 38 40 40 41 43 42 44 47 52 58 62 63 57 58 61 66 65 61 54 42 39
97 98 96 97 99 97 100 82 80 96 100 55 45 43 37 33 31 32 35 37 38 40 44 42 41 41 43 44 44 44 47 54 61 66 63 58 59 64 65 61 54 42 41 36
98 98 99 99 96 100 89 56 81 99 80 47 44 40 36 36 32 31 31 33 34 36 40 41 42 42 44 45 46 45 47 55 64 65 60 59 63 65 59 46 41 44 36 29
97 98 100 100 92 98 87 77 100 96 63 53 54 42 42 40 36 36 42 46 45 43 33 40 41 42 45 46 48 48 51 58 65 62 60 62 64 55 38 35 38 33 29 26
97 92 99 82 100 100 98 90 92 71 59 54 55 52 45 44 46 48 49 47 43 37 41 40 47 46 48 48 52 53 56 64 64 61 63 62 40 28 32 32 30 27 26 26
78 79 94 69 64 71 57 52 55 54 52 57 53 56 63 60 52 51 52 52 53 51 47 36 40 42 51 54 56 60 66 64 61 63 51 21 22 28 30 29 28 26 27 26
92 94 86 85 76 64 59 59 54 58 46 52 53 54 61 62 59 56 56 57 56 54 54 51 50 55 59 63 66 64 60 62 60 32 19 24 27 28 28 29 29 27 27 33
90 100 95 86 77 75 48 53 42 53 55 54 58 56 60 64 62 60 58 57 56 56 58 58 59 62 65 64 61 62 63 47 26 23 25 25 24 27 29 30 27 29 34 39
99 100 93 86 96 65 56 60 44 57 50 46 49 49 51 55 57 60 60 59 59 61 63 62 63 65 62 64 65 57 40 28 26 25 22 23 25 27 29 27 31 37 40 35
98 98 99 99 96 83 55 58 51 44 36 41 39 36 45 56 57 57 58 58 61 62 62 62 62 65 66 65 53 35 28 26 22 20 21 23 26 28 28 34 42 44 36 36
98 90 81 84 78 63 59 58 56 44 42 43 34 32 40 53 56 59 62 67 66 65 67 68 68 71 59 44 31 27 22 17 16 19 22 26 28 30 36 44 43 39 42 44
91 95 92 81 67 61 64 55 57 55 53 43 39 40 41 44 48 56 63 65 62 68 72 68 58 47 34 28 23 15 13 14 18 21 26 27 33 42 48 48 46 47 50 46
68 75 85 83 70 66 63 60 58 60 57 42 45 47 45 47 53 59 64 68 67 61 54 42 33 29 22 13 12 14 14 16 22 25 28 36 44 48 48 51 53 54 52 39
66 65 69 60 64 64 63 63 64 63 51 45 48 50 48 52 58 59 61 62 62 56 43 30 20 14 15 17 17 16 18 21 25 30 39 44 47 48 50 54 55 56 42 36

GFSCGP_700_rhum_018.txt.gz
RH
66 91 94 65 66 92 86 91 88 88 95 83 94 78 74 73 61 59 59 48 57 57 50 52 45 39 24 22 23 26 26 24 33 38 35 33 32 34 37 38 38 37 36 35
91 92 69 47 47 65 89 94 90 87 82 89 92 83 82 67 66 64 54 58 58 55 54 51 41 41 29 26 27 31 35 36 35 34 32 32 32 34 35 35 36 35 37 44
96 74 58 53 54 65 62 78 86 86 63 72 91 82 72 53 58 63 54 59 61 56 52 54 48 44 33 31 36 36 35 33 30 29 30 33 35 35 34 33 36 43 48 50
100 86 71 63 88 70 76 57 68 84 97 96 78 86 77 58 50 62 52 57 58 59 58 58 54 53 36 37 37 36 32 30 30 33 35 36 35 31 33 38 44 49 54 54
88 76 69 71 61 72 83 77 80 90 97 99 71 92 80 71 74 53 41 56 58 58 55 56 55 54 43 38 39 36 33 32 35 36 36 33 30 34 38 42 49 54 54 49
96 96 91 77 64 64 96 95 94 96 95 97 71 82 68 63 57 49 49 52 53 64 58 55 56 57 50 38 39 37 33 34 36 37 32 32 38 41 44 48 52 52 51 46
98 98 93 93 82 78 86 95 87 99 96 82 64 66 62 58 51 48 49 51 57 62 54 56 57 56 51 40 40 37 35 36 38 36 34 40 43 44 47 50 51 51 50 47
100 97 94 88 83 81 84 94 83 91 99 71 53 79 75 46 36 44 41 53 55 56 52 56 58 56 52 47 40 36 37 39 39 36 40 43 45 46 49 52 54 58 57 54
96 97 90 91 76 86 86 98 55 90 78 87 66 72 41 25 43 50 49 45 42 46 56 59 58 58 55 50 41 37 40 41 40 39 42 43 46 50 52 56 58 62 63 62
97 95 74 73 86 96 86 70 96 94 98 95 85 95 75 27 40 50 41 42 42 44 52 58 59 59 54 50 41 40 43 43 43 43 45 47 51 54 57 58 60 64 68 67
84 95 78 73 83 76 99 98 87 74 70 99 81 70 62 54 38 48 43 45 43 46 50 53 52 56 58 48 41 43 45 44 45 47 49 52 57 60 60 60 62 68 72 69
73 95 95 81 72 84 94 80 90 84 75 70 94 70 40 49 44 49 45 42 40 40 41 47 55 58 55 47 43 44 46 46 48 51 54 58 64 65 61 62 66 73 73 65
92 97 97 92 95 98 97 98 81 84 65 94 97 68 47 46 45 47 42 41 40 39 46 52 50 46 46 44 44 46 47 49 51 55 59 66 70 68 63 66 73 75 68 49
98 98 95 91 98 84 100 94 84 91 72 79 93 77 68 44 43 39 40 39 36 43 45 44 43 42 43 44 46 47 47 49 53 58 64 70 72 66 65 72 75 69 49 42
98 97 97 97 99 99 98 85 91 100 91 89 76 89 55 39 37 36 37 41 45 47 48 47 44 44 45 46 48 49 48 49 52 59 66 72 70 66 70 73 68 44 37 31
98 93 98 99 92 99 99 98 95 95 98 85 90 97 42 35 34 32 32 36 37 38 43 46 52 54 50 48 48 50 51 51 54 62 70 71 66 69 69 63 34 36 32 26
98 98 98 99 100 100 99 98 96 85 97 90 99 81 40 36 34 36 46 46 42 39 38 34 44 48 50 50 53 55 57 58 60 66 70 67 66 66 50 30 32 30 26 23
99 100 97 99 97 80 78 80 92 96 97 100 97 53 44 41 39 47 49 49 51 51 47 37 42 49 50 54 58 62 62 62 68 70 67 65 61 32 28 30 28 24 24 25
99 97 92 93 85 67 65 65 85 97 86 78 66 57 55 55 50 52 53 54 56 57 55 54 50 51 56 60 66 69 70 72 68 65 64 43 26 29 30 27 24 24 26 27
89 98 99 99 93 75 51 54 52 60 58 53 56 55 56 66 61 57 58 57 58 58 58 59 60 61 66 68 70 71 69 66 66 54 35 28 29 27 24 24 24 26 27 30
94 100 95 92 98 62 57 54 50 56 51 48 48 48 50 50 55 60 60 60 60 61 63 65 65 68 70 70 68 67 66 60 47 33 29 27 24 22 23 25 27 29 30 31
92 97 95 98 90 82 61 58 50 46 43 41 48 51 53 56 60 64 64 64 64 64 65 68 68 70 69 68 68 64 56 42 32 27 23 20 20 22 25 29 32 30 32 37
82 78 93 78 64 62 66 62 54 46 42 42 35 39 51 57 60 63 61 63 64 66 65 67 68 69 70 69 61 47 35 28 21 17 18 19 22 26 30 31 31 36 39 38
82 89 90 78 61 71 71 64 57 52 51 43 43 37 37 49 61 63 64 67 69 68 66 68 71 71 63 50 36 28 18 13 16 18 20 24 27 32 31 33 37 40 41 44
76 79 76 69 66 65 61 61 63 61 59 48 46 44 44 45 48 58 62 65 64 67 70 65 57 44 34 25 15 14 17 17 18 21 24 28 30 31 36 41 42 44 50 46
70 66 67 60 68 68 66 64 64 65 58 50 48 48 47 51 58 61 65 66 65 62 59 50 34 21 16 18 21 21 20 19 21 24 27 28 31 38 41 43 49 57 50 42

GFSCGP_700_rhum_021.txt.gz
RH
66 96 97 93 98 96 94 95 96 99 96 77 71 86 68 64 62 60 48 55 56 55 59 60 48 48 49 44 36 26 26 30 33 32 29 39 47 47 45 44 47 43 41 38
80 72 70 94 99 95 89 93 97 96 89 83 74 59 58 59 54 54 46 47 50 49 55 57 54 49 52 43 37 29 27 29 29 29 40 49 46 45 46 42 39 38 36 36
69 74 60 71 67 72 69 72 82 86 77 72 80 47 36 35 43 42 39 36 46 44 56 60 53 53 48 44 37 33 33 34 38 41 41 40 38 39 39 37 36 35 40 47
98 90 82 75 79 70 96 78 69 65 87 92 80 73 47 48 33 39 37 42 46 54 59 60 57 54 54 48 40 35 38 38 37 35 33 36 39 38 37 33 36 42 47 54
95 83 71 73 63 69 98 75 86 84 80 83 76 97 64 48 34 32 38 42 39 54 62 60 57 54 56 54 46 39 37 35 32 31 34 36 37 36 32 37 42 47 53 56
88 92 97 85 78 80 94 92 96 97 99 95 85 87 59 46 26 21 40 42 37 45 59 62 58 59 57 56 52 41 39 35 32 34 36 37 34 35 40 43 47 51 53 53
99 98 100 96 88 90 97 99 97 98 95 83 65 72 55 34 34 24 18 38 35 40 55 58 59 59 57 57 55 42 40 36 34 37 38 34 35 42 45 48 50 53 55 58
98 96 84 92 88 86 82 84 95 90 93 80 48 57 42 22 17 14 30 29 46 47 43 57 61 64 58 56 57 46 41 37 36 39 37 36 43 46 48 50 52 55 57 58
96 93 84 73 83 90 98 98 72 96 97 97 66 46 46 25 17 17 21 39 41 52 48 55 59 62 57 58 56 50 42 37 39 40 38 43 46 48 51 54 55 56 58 60
93 97 76 74 94 98 97 91 96 97 96 94 67 72 58 35 26 14 15 33 31 43 53 55 59 54 54 59 56 53 42 40 42 42 42 46 48 50 55 59 60 60 62 63
100 99 92 91 94 88 99 99 95 89 78 91 90 59 44 41 22 33 25 40 45 46 48 50 60 57 58 60 57 54 42 42 44 43 44 48 52 56 60 65 67 66 65 67
86 100 100 86 82 76 76 67 89 86 82 74 70 62 52 56 51 62 51 46 52 45 45 46 50 59 60 61 60 52 44 44 46 46 47 51 56 60 66 72 73 69 67 68
78 97 96 92 95 96 97 97 88 76 84 69 70 43 30 58 56 59 53 57 50 45 43 46 55 61 63 64 63 52 46 48 48 48 50 56 61 67 73 77 76 69 69 73
97 97 94 90 95 95 99 99 96 96 96 78 74 63 31 52 70 60 59 52 49 43 48 55 61 63 63 67 66 51 48 49 50 51 54 60 66 73 78 79 73 70 73 77
98 98 98 97 97 98 96 99 99 99 87 84 60 78 69 77 84 62 62 48 46 48 50 52 55 61 64 65 61 51 51 52 53 54 58 65 72 76 80 77 71 74 77 49
98 97 98 94 100 100 99 99 100 97 100 83 75 80 51 95 81 67 54 49 45 45 50 54 58 60 56 53 51 50 52 54 56 59 64 69 73 76 78 73 75 74 42 33
99 98 98 98 100 97 98 93 83 70 77 86 93 52 97 73 68 57 53 47 44 45 49 53 60 64 56 53 53 55 58 60 62 65 68 70 72 77 75 73 61 35 30 27
97 99 99 99 99 97 97 97 90 81 79 84 83 79 84 72 62 49 50 41 39 38 39 48 56 62 69 70 69 72 72 72 70 69 70 72 77 74 68 44 32 29 26 24
92 99 99 99 99 90 72 82 97 95 81 90 90 92 76 62 58 56 46 51 54 52 48 48 54 62 65 67 72 72 73 74 74 72 76 76 70 57 35 30 28 24 24 26
89 96 100 96 98 82 68 59 78 100 92 80 82 83 74 67 68 50 51 56 57 58 58 58 59 58 61 66 69 73 73 74 76 76 70 62 41 34 30 24 22 24 26 27
99 89 94 98 96 66 68 65 74 96 57 55 60 68 79 86 61 56 56 58 58 60 61 61 63 67 70 73 74 75 76 73 68 64 50 39 32 26 21 22 26 26 28 29
87 88 91 96 94 80 65 63 61 50 48 47 58 65 66 60 58 62 62 60 60 61 63 66 68 70 74 76 75 71 68 65 56 44 35 27 20 19 22 26 26 29 29 28
88 85 80 78 70 65 69 66 55 45 46 38 50 54 56 57 59 63 65 65 65 65 66 69 72 74 74 70 69 68 62 50 37 27 18 17 19 23 26 27 31 32 28 26
84 84 88 83 68 65 70 66 56 48 47 38 35 44 53 59 63 65 65 63 65 67 69 69 69 70 71 71 65 51 36 26 16 16 20 21 25 25 29 31 30 27 28 33
81 81 75 69 64 65 69 66 61 60 57 47 48 41 42 51 61 66 66 68 70 71 68 70 72 71 62 46 33 21 15 18 20 21 23 25 27 31 30 29 28 33 37 36
68 70 68 67 69 66 64 61 66 64 58 51 49 43 43 49 54 55 62 65 65 66 66 62 56 47 31 19 19 22 23 23 22 23 26 28 29 28 28 30 38 40 40 42

GFSCGP_700_rhum_024.txt.gz
RH
60 77 100 95 87 89 81 89 91 90 87 93 72 66 51 53 49 37 32 32 40 33 36 41 45 56 54 37 41 47 40 34 31 35 40 44 46 42 48 57 76 64 81 75
74 60 66 72 93 97 97 99 100 91 65 67 63 41 39 40 39 34 32 25 28 39 36 37 44 62 61 50 48 46 41 35 30 31 37 47 50 50 66 76 57 84 62 49
70 65 69 71 68 99 99 100 99 80 54 58 70 35 29 23 23 24 27 25 25 30 40 41 54 60 58 54 51 45 41 35 30 32 39 45 53 55 57 61 54 51 49 41
92 84 90 87 79 76 82 76 68 73 92 96 68 78 47 37 26 21 17 20 22 25 40 38 52 58 58 53 51 45 43 38 40 37 40 46 56 56 56 54 41 38 41 45
83 82 78 88 80 86 97 80 82 93 96 98 95 98 61 42 28 22 18 18 18 20 30 39 50 56 58 54 54 51 46 39 39 39 41 42 46 47 42 42 36 41 45 48
97 95 98 93 88 86 90 98 99 98 95 95 84 90 57 46 31 24 18 17 19 22 24 37 47 61 60 56 56 56 48 40 38 35 34 35 40 40 40 39 43 46 49 51
91 94 100 95 91 93 98 98 97 98 97 86 65 80 59 42 32 23 23 16 14 26 28 40 56 65 61 56 57 57 54 42 39 34 34 37 40 41 41 45 47 49 52 54
96 93 82 94 86 83 88 89 94 93 94 81 54 67 53 35 27 26 22 17 20 31 39 32 53 62 63 59 57 57 57 45 40 36 36 38 39 37 44 48 50 53 55 57
98 95 90 81 70 92 98 98 74 97 97 98 68 51 42 34 27 29 22 18 14 22 45 37 42 55 62 60 59 57 58 49 40 37 39 40 37 42 48 51 54 57 60 62
99 96 84 73 78 99 99 98 99 98 96 94 70 61 56 45 46 46 42 30 16 30 48 53 49 43 61 63 63 59 59 52 42 40 41 41 41 46 49 53 56 61 66 68
99 97 92 97 97 72 99 100 97 96 97 86 77 50 39 64 66 68 48 26 31 25 34 36 54 50 57 63 62 59 60 53 44 43 44 41 44 48 52 56 60 65 71 74
86 97 94 93 72 80 91 74 92 88 88 85 76 60 46 54 48 54 74 67 60 26 29 41 50 55 56 66 60 60 61 54 45 45 46 44 47 52 55 59 64 71 76 78
71 98 98 93 95 100 96 88 95 94 79 70 81 53 37 33 56 58 74 62 61 49 50 51 50 55 60 61 62 64 60 56 46 47 48 48 51 55 59 64 70 75 80 81
84 90 93 93 88 97 97 95 97 97 96 78 79 69 39 43 37 40 60 80 82 66 58 56 52 54 62 66 67 65 61 56 48 50 51 52 55 58 64 70 74 78 82 80
95 95 92 93 99 98 98 98 97 97 80 91 69 72 52 63 42 66 97 94 84 73 58 55 54 58 68 70 68 67 65 54 51 54 55 57 59 63 68 73 76 79 81 75
98 91 96 95 97 99 100 99 99 95 87 79 74 76 70 78 87 83 100 80 73 64 60 58 61 68 70 70 71 71 68 54 56 58 60 62 65 68 72 75 78 80 77 73
100 100 98 92 98 99 98 99 99 98 93 86 97 28 59 49 94 98 97 68 63 58 53 58 63 68 71 71 70 70 64 58 60 61 65 68 70 71 74 76 79 78 69 39
93 100 98 97 99 98 92 99 82 73 70 80 64 51 75 97 94 94 79 63 59 60 61 64 69 72 72 66 63 64 62 64 66 69 70 71 73 76 76 80 76 57 35 31
78 100 98 99 99 92 75 88 93 98 78 80 72 68 88 95 82 64 54 56 60 62 66 72 78 81 78 70 66 68 70 72 76 79 80 81 78 80 79 66 43 33 30 25
99 100 99 98 99 93 80 73 95 99 88 84 73 73 80 73 63 64 68 60 56 55 52 74 80 76 71 74 77 80 84 85 85 86 83 82 80 70 49 39 32 27 23 24
98 98 97 99 94 84 80 65 88 78 59 64 70 60 58 58 65 63 75 72 62 60 62 66 69 70 70 73 78 81 84 85 84 83 78 69 54 43 34 28 23 24 25 28
88 83 82 89 95 83 78 67 67 56 52 47 58 73 72 70 66 74 73 80 80 67 62 63 65 67 72 77 81 83 82 81 76 68 59 49 36 29 23 23 25 26 28 27
82 79 83 83 76 73 80 75 62 51 48 40 48 54 63 65 70 71 66 62 63 63 65 68 71 74 76 79 80 78 74 69 62 52 38 28 21 22 24 26 26 27 27 26
78 80 83 79 76 70 70 77 60 51 43 39 51 55 60 64 67 67 65 65 64 64 68 72 75 77 77 74 72 69 64 52 36 26 19 20 23 25 25 26 27 27 25 23
76 80 81 74 76 71 71 71 60 60 51 47 43 53 60 65 68 69 68 67 68 70 71 72 71 72 72 71 63 46 33 21 17 20 23 24 24 25 26 26 25 25 22 22
71 68 75 79 75 75 68 65 64 63 54 53 49 44 49 63 69 66 68 70 72 70 69 70 71 66 54 42 26 18 19 22 24 23 23 24 25 24 24 25 26 23 26 32

GFSCGP_700_rhum_027.txt.gz
RH
68 68 63 58 65 76 80 88 95 96 83 76 62 51 44 40 36 31 30 27 26 25 26 30 38 49 54 59 55 48 43 44 50 38 40 49 46 50 59 62 65 90 100 74
70 67 59 69 87 98 100 99 96 87 87 83 66 36 35 27 26 27 26 27 26 25 26 28 28 35 42 51 56 49 44 51 45 41 34 36 47 55 67 72 91 97 98 79
61 59 67 74 80 94 89 97 91 96 91 72 69 40 30 26 24 23 23 22 22 23 23 30 33 30 32 40 60 54 50 49 47 41 33 33 49 68 73 60 97 98 92 70
80 72 76 82 88 80 84 78 81 89 98 93 79 72 48 37 32 29 24 20 19 18 20 22 27 37 33 36 61 56 52 51 44 37 33 33 49 66 64 93 86 96 58 48
73 78 80 86 79 92 97 95 88 88 95 100 100 100 52 50 38 30 25 24 20 20 16 18 21 27 35 43 59 57 54 48 45 38 40 39 56 67 75 92 75 97 52 44
96 98 99 95 86 89 94 98 98 99 98 96 82 94 59 54 42 33 24 24 25 20 18 18 21 28 34 51 59 55 53 51 44 39 43 42 56 57 96 59 69 52 45 48
97 93 98 98 100 96 98 98 96 96 97 82 60 86 59 46 39 31 25 22 22 24 18 19 27 32 37 49 57 55 56 55 46 40 38 37 42 90 99 56 49 44 47 51
91 88 76 96 74 81 94 90 88 90 87 73 68 82 59 40 33 29 30 32 23 22 22 18 29 34 42 50 53 56 57 58 50 42 37 36 48 98 78 76 45 46 50 53
94 91 91 85 92 95 99 100 86 97 88 97 71 59 52 34 42 51 59 61 32 21 20 23 33 37 52 62 59 58 56 59 57 45 38 36 74 85 86 42 46 50 52 55
95 88 78 73 84 89 98 98 98 98 93 86 78 79 58 41 40 39 46 61 42 30 18 23 47 43 49 65 64 59 58 61 59 48 40 40 46 56 44 47 51 53 54 59
100 99 79 80 75 72 99 98 98 95 84 78 66 52 41 35 34 53 52 60 62 32 28 27 53 47 42 56 64 62 62 62 62 51 42 42 43 44 46 50 53 55 59 64
75 100 97 69 60 71 85 94 93 97 84 96 79 58 46 58 60 54 55 48 72 64 35 28 60 60 50 51 62 64 67 64 63 53 45 44 45 44 49 54 56 60 65 68
75 96 98 79 86 84 96 84 95 97 98 95 88 58 49 43 50 48 38 38 72 84 62 35 48 44 55 52 59 65 68 64 63 55 48 46 47 46 52 57 61 65 68 71
88 93 84 82 89 98 98 97 97 98 97 82 87 74 60 49 44 41 31 34 69 97 57 31 39 44 60 60 64 67 70 65 64 59 52 50 50 51 57 61 64 68 71 75
99 94 87 88 91 98 98 98 98 97 85 96 66 75 63 58 56 51 38 48 88 97 77 58 61 62 65 69 71 75 70 69 67 62 56 54 53 56 59 63 68 71 75 78
100 98 96 90 94 99 98 99 100 100 98 96 93 90 78 72 66 57 54 55 98 91 80 68 63 64 65 72 75 70 71 70 68 58 59 60 59 60 63 68 72 75 78 80
100 100 98 95 84 98 98 96 100 98 97 90 99 62 76 57 51 52 75 98 99 87 77 70 70 70 74 77 76 74 71 68 63 61 64 63 64 67 69 72 76 78 81 85
94 95 99 97 96 98 99 99 100 86 87 85 71 68 74 77 97 99 82 79 81 80 71 69 71 75 77 78 77 79 78 73 66 66 68 68 69 70 73 78 82 84 85 69
73 86 98 98 99 83 97 98 99 99 98 99 79 96 94 91 97 89 80 78 75 71 72 75 78 82 84 85 84 84 81 73 71 71 70 69 73 82 85 84 87 77 49 38
99 100 100 99 98 97 76 83 94 100 80 79 79 82 87 97 87 75 70 69 68 70 75 78 81 85 86 78 75 73 74 74 73 75 81 85 87 86 87 79 55 44 32 26
97 99 96 98 99 76 75 73 80 71 71 79 74 63 72 89 87 80 72 65 59 59 60 65 77 85 87 86 82 82 89 93 90 88 88 87 86 78 58 46 36 25 26 26
86 85 86 95 96 86 78 74 70 60 54 49 75 76 68 89 92 99 81 72 65 60 62 63 68 72 75 77 83 87 90 89 88 88 83 76 59 48 38 25 24 26 26 25
85 79 84 83 72 70 69 77 71 55 48 54 61 63 64 64 69 74 77 77 74 69 67 67 69 72 75 80 83 89 91 88 82 74 62 51 39 25 22 25 26 26 23 21
77 83 86 86 77 78 65 72 64 54 46 51 54 58 66 68 70 70 72 68 71 73 74 75 74 75 78 80 83 83 79 72 63 51 38 24 21 25 26 26 24 22 21 17
86 78 74 75 78 71 64 67 60 58 48 48 51 58 63 66 67 68 67 68 70 73 76 78 78 76 76 77 75 71 62 48 36 23 21 25 25 26 24 22 21 19 16 16
69 70 72 76 78 76 72 67 63 62 53 56 50 53 59 64 69 69 69 70 72 74 74 73 69 71 72 68 56 43 29 19 22 25 24 24 24 21 21 20 17 16 17 20

GFSCGP_700_rhum_030.txt.gz
RH
73 76 58 52 58 83 78 94 92 94 80 79 58 60 56 35 31 36 33 31 29 24 22 23 24 32 37 50 56 53 49 53 52 45 50 57 58 61 58 50 54 65 87 76
72 64 57 56 59 77 100 99 87 86 89 82 79 30 38 26 19 22 24 26 27 27 28 26 24 26 32 37 50 56 52 51 51 46 47 61 49 48 53 53 63 66 94 98
72 68 53 57 74 98 100 100 100 95 87 85 84 45 29 37 23 21 22 23 22 23 23 24 23 23 25 31 38 47 52 51 48 47 52 47 45 43 46 53 73 81 80 99
80 79 68 78 90 86 90 95 97 99 96 84 90 62 48 45 41 29 25 24 24 24 21 22 23 23 24 26 32 36 42 50 42 48 50 48 43 39 45 65 83 98 93 93
70 66 76 88 68 89 97 96 99 99 98 96 85 97 50 50 52 40 30 30 28 26 23 22 19 21 23 27 30 31 36 54 46 50 50 46 39 38 52 75 86 94 92 99
96 82 93 98 83 91 94 98 98 100 100 92 73 87 52 44 43 41 33 28 24 26 27 24 20 17 21 26 33 36 36 55 50 53 50 42 41 40 63 70 79 98 98 98
97 97 83 93 98 94 99 94 77 89 93 64 51 62 60 40 38 31 30 29 24 23 24 25 21 19 18 24 28 40 46 56 56 53 47 40 45 61 73 85 78 96 96 76
97 85 79 90 89 96 100 100 71 65 52 43 58 58 46 46 53 44 41 32 30 22 21 23 23 19 21 25 30 43 54 59 55 51 47 40 43 54 72 63 98 97 95 53
99 96 74 62 75 89 95 99 84 97 81 80 58 46 44 45 50 52 50 51 69 61 36 22 20 18 28 25 32 45 58 59 56 55 46 41 39 67 51 98 99 69 96 51
99 98 76 79 76 82 93 96 95 97 77 65 43 42 43 44 51 47 63 46 48 56 45 27 22 19 33 33 43 55 61 60 58 58 51 43 38 42 93 94 99 98 58 56
99 95 92 84 85 88 96 98 97 90 92 69 57 39 39 41 44 54 37 46 54 55 59 39 22 24 43 45 49 59 65 62 60 61 57 45 40 65 99 97 98 51 56 58
69 97 100 80 56 67 81 86 98 97 84 95 84 68 50 63 49 44 47 58 51 47 48 55 30 47 54 51 62 68 67 64 63 62 60 49 41 87 79 98 53 55 58 61
93 97 95 72 72 80 97 81 93 98 98 96 88 60 46 60 56 50 45 38 41 34 45 79 45 39 56 51 65 65 69 69 67 66 63 51 46 58 77 55 56 59 61 64
93 99 80 67 57 71 100 96 98 98 98 81 88 72 64 70 64 60 60 65 39 40 47 89 63 46 67 56 56 63 68 71 73 69 64 56 56 60 55 56 60 63 65 68
96 96 82 67 74 82 87 97 98 99 96 98 68 73 70 72 78 71 70 54 48 46 55 91 56 65 62 67 60 63 70 74 76 72 66 66 67 67 60 61 64 66 69 71
100 99 85 79 78 97 99 95 100 99 100 100 100 95 78 91 93 90 86 82 53 67 99 76 47 49 41 54 66 68 78 83 91 97 97 85 87 87 66 67 69 70 73 75
95 99 98 97 72 88 99 99 100 99 100 100 98 65 94 97 97 91 85 82 67 90 98 73 60 52 49 66 81 81 86 94 100 100 97 86 94 71 71 71 72 75 77 80
98 99 99 98 93 94 95 99 100 99 98 100 98 91 87 93 99 99 100 99 94 94 86 71 69 70 73 85 96 99 100 100 100 100 99 91 75 72 73 76 78 81 88 93
99 100 98 94 98 83 96 98 99 100 100 100 100 99 98 99 100 94 100 98 90 86 80 79 74 74 88 99 100 100 99 99 97 89 80 75 74 76 78 82 92 97 97 89
91 95 99 94 97 78 78 92 88 93 90 87 98 95 97 100 100 100 100 84 81 82 86 86 86 90 93 89 87 85 84 81 78 76 74 76 79 84 96 100 100 95 66 42
96 99 99 99 97 77 70 80 75 70 74 82 85 81 84 96 99 98 95 90 78 76 77 80 84 86 88 88 88 89 87 81 78 78 83 94 100 100 100 96 67 46 27 24
86 97 98 99 96 87 72 76 84 74 64 82 89 95 87 84 88 90 86 83 86 84 81 83 85 86 83 83 83 81 84 87 96 100 100 100 99 92 66 48 30 23 25 24
95 83 86 83 77 76 76 68 73 60 56 63 79 75 88 93 91 96 89 78 77 75 77 79 83 85 86 92 98 99 99 100 100 100 97 90 66 49 30 23 26 24 23 19
86 83 86 85 77 77 72 64 66 57 55 57 68 76 79 84 78 77 79 80 74 73 77 78 82 89 86 89 95 99 100 100 96 88 67 48 29 22 25 25 23 20 19 17
88 84 79 72 76 76 73 70 64 58 51 57 60 70 77 77 71 68 73 70 74 75 76 79 84 92 96 96 98 97 96 86 65 45 27 22 26 25 24 21 19 18 16 16
74 73 71 77 74 78 74 70 67 62 53 52 55 64 66 67 68 67 67 70 77 83 84 85 90 96 91 84 83 76 58 40 23 23 26 24 23 21 19 19 17 16 15 15

GFSCGP_700_rhum_033.txt.gz
RH
72 91 92 83 86 78 68 74 66 61 69 73 66 64 60 56 46 41 44 35 34 43 32 23 22 19 39 53 52 53 52 46 48 49 51 52 52 47 55 57 63 64 64 64
92 80 87 83 83 82 81 78 71 67 67 68 66 43 52 24 12 14 16 18 18 20 25 27 22 21 20 26 41 51 54 51 47 49 50 54 51 44 56 58 62 64 67 76
98 85 70 88 89 90 84 82 79 81 80 74 68 44 22 34 26 17 12 13 14 15 17 19 24 24 22 22 24 32 45 51 51 48 52 53 46 42 45 59 48 50 63 80
97 87 76 80 90 86 78 74 79 82 83 65 74 54 43 32 33 37 31 17 18 22 24 22 22 25 26 23 24 27 33 40 51 54 48 48 45 43 50 46 49 59 64 79
88 69 98 98 90 90 90 94 91 87 83 90 71 75 45 40 43 39 38 27 35 41 40 27 23 23 23 29 28 27 31 38 48 56 51 45 49 47 49 47 44 54 71 82
91 99 99 98 95 98 97 95 97 95 94 87 63 54 39 34 31 31 36 41 40 41 43 46 29 24 22 23 29 28 31 34 36 51 50 48 50 49 49 47 42 53 79 94
100 99 100 86 99 99 100 93 70 82 91 64 39 48 50 27 37 37 41 41 46 40 26 23 25 25 23 21 22 27 27 37 34 40 50 51 56 52 50 43 46 68 91 86
98 88 95 93 95 92 100 95 67 58 47 39 41 44 37 36 40 45 44 43 38 29 28 23 23 23 24 22 20 22 27 39 41 40 54 58 59 53 46 47 58 84 84 96
92 94 83 96 95 96 98 98 67 84 70 66 47 40 38 37 38 38 40 48 56 79 65 39 38 32 26 24 24 20 27 37 48 47 59 63 56 51 44 48 71 86 83 97
96 95 87 99 99 98 98 92 93 97 81 60 38 36 36 34 33 37 44 52 81 95 52 47 39 34 28 26 24 26 28 38 49 59 64 60 54 49 46 53 76 70 88 100
99 93 96 89 68 83 96 100 95 91 92 63 55 41 36 38 42 39 66 76 88 58 45 52 56 52 40 32 25 39 36 45 57 67 65 57 55 48 48 77 70 98 97 97
99 99 96 86 69 78 82 96 98 97 66 91 89 72 53 51 48 59 54 73 82 80 50 39 36 53 60 31 32 53 42 51 68 70 61 60 54 46 46 55 95 95 98 99
96 98 88 85 85 86 88 85 88 98 98 96 89 64 47 60 60 65 74 67 64 66 41 37 34 40 71 52 44 61 51 62 72 70 63 62 57 48 50 66 99 99 97 87
99 99 82 72 68 79 89 92 96 98 98 84 82 76 69 63 70 76 67 68 61 68 64 41 38 45 75 67 70 64 56 71 75 71 66 64 62 56 60 99 99 94 89 96
96 92 100 97 93 80 81 91 91 99 97 98 78 95 79 91 84 83 87 82 78 71 74 45 47 68 77 58 71 65 70 74 75 74 70 70 67 62 99 98 98 83 90 69
96 99 100 89 71 94 88 94 99 99 98 99 100 94 83 76 91 89 88 86 92 97 92 55 71 84 65 50 66 61 71 71 80 79 82 82 85 99 100 90 86 85 86 89
97 98 97 85 76 89 93 99 99 99 99 99 99 98 100 96 94 98 87 79 85 77 89 75 90 79 52 77 71 63 71 86 98 99 93 95 100 100 93 98 98 94 84 77
96 95 93 95 90 83 85 97 93 97 96 98 99 100 100 98 91 94 98 98 98 99 86 70 89 59 64 66 76 79 81 92 98 99 99 100 100 95 97 96 97 85 80 85
98 100 99 96 81 74 82 86 86 86 88 97 99 99 98 99 99 99 99 99 100 100 94 92 80 58 54 58 76 88 90 97 100 100 100 99 100 94 88 91 82 86 93 98
99 99 100 90 94 74 68 74 82 82 96 82 95 100 99 99 99 99 100 100 100 98 91 81 79 74 82 96 100 100 100 100 100 100 100 97 91 80 80 86 93 100 98 97
98 99 98 98 97 79 73 76 77 74 73 85 97 100 97 98 100 100 100 100 100 100 92 88 99 100 100 100 100 100 100 100 95 89 82 84 86 89 97 100 99 96 76 38
95 98 98 99 96 88 72 78 83 75 68 65 95 99 95 89 89 99 100 98 98 94 96 99 100 99 99 98 97 96 95 91 87 88 90 96 100 100 100 93 64 40 24 25
94 83 88 87 85 84 82 78 70 70 59 64 78 88 98 100 96 98 100 100 99 95 90 90 87 82 80 85 90 91 86 85 93 100 100 100 100 89 62 39 23 25 24 22
84 81 82 89 86 80 80 73 69 62 56 61 71 77 82 82 86 95 95 99 98 97 97 94 90 90 95 93 94 98 100 99 99 99 96 83 59 36 23 26 24 22 19 18
93 89 82 75 76 82 82 76 70 63 53 60 63 74 80 85 85 90 83 83 85 86 83 84 86 91 94 93 96 98 100 100 95 78 54 32 23 26 25 22 19 19 18 18
68 65 79 81 79 68 72 75 71 67 55 55 66 72 77 74 69 69 77 77 81 84 86 87 90 95 99 100 98 92 81 67 48 27 24 27 24 22 20 20 19 18 17 16

GFSCGP_700_rhum_036.txt.gz
RH
95 100 99 90 82 67 82 76 66 60 58 63 65 66 62 41 36 21 23 27 23 24 24 24 23 20 20 33 58 72 61 57 52 51 49 48 48 55 55 54 51 47 50 60
99 97 96 92 85 86 79 75 71 68 63 66 56 34 26 18 13 15 15 13 10 12 14 16 20 23 22 21 33 66 72 64 51 52 51 54 56 57 58 54 51 42 56 60
99 83 70 88 86 79 77 81 78 73 64 52 56 36 19 32 29 20 15 13 14 12 12 13 15 17 22 24 22 37 64 75 60 50 54 57 56 55 53 52 52 46 57 66
97 92 82 69 89 85 86 75 75 75 80 72 69 75 20 17 20 24 21 18 19 18 18 18 17 17 27 27 27 26 39 59 66 62 56 54 52 50 52 56 52 49 60 60
88 89 94 84 71 85 83 85 81 83 86 86 65 74 23 19 18 21 30 34 36 31 35 36 32 29 33 36 48 33 35 44 50 61 55 57 58 54 52 55 51 52 57 56
93 93 75 77 84 90 90 84 80 85 84 92 47 58 22 24 32 32 32 38 39 40 41 41 44 43 39 32 42 46 55 47 60 65 49 40 55 58 56 53 49 54 50 58
94 94 98 78 94 89 94 92 86 97 91 88 38 54 37 27 28 27 30 33 41 42 42 40 37 27 30 34 28 38 51 58 69 69 48 33 51 64 61 52 54 54 51 51
89 87 94 86 90 93 87 89 82 82 85 64 49 46 42 34 36 38 37 36 35 42 44 40 37 20 21 23 26 27 42 56 65 63 48 41 44 63 59 49 61 53 48 53
88 91 89 99 98 93 96 96 72 87 64 78 55 38 36 34 34 34 35 36 38 40 41 45 46 52 43 34 26 24 27 48 44 42 44 54 52 50 49 58 63 54 50 68
91 88 89 97 98 96 94 86 93 94 96 82 50 44 40 37 36 38 38 42 42 43 40 44 58 49 51 39 38 28 29 32 32 29 46 61 66 55 58 67 59 51 60 84
97 94 90 96 89 82 92 100 95 94 94 86 78 50 39 39 43 45 46 50 54 57 57 53 42 43 48 44 65 39 31 34 42 30 40 61 60 54 68 63 55 54 79 98
96 89 92 75 70 72 92 84 87 90 74 80 78 76 54 47 53 55 55 58 64 62 59 56 49 51 39 34 74 54 37 43 52 31 36 53 63 73 69 61 63 71 95 89
91 94 95 93 86 84 84 78 86 91 89 94 94 68 52 54 59 67 73 69 66 68 76 65 63 47 36 39 73 67 51 76 53 39 46 56 74 77 65 57 80 99 96 88
90 94 71 86 90 88 91 88 87 94 98 89 88 80 73 76 92 93 85 89 75 72 70 82 66 50 40 50 98 100 93 90 56 47 57 71 80 73 62 58 76 100 87 97
90 93 88 76 53 52 60 78 90 99 95 99 87 98 95 98 95 79 81 86 84 73 69 82 61 46 40 69 99 100 96 60 61 60 73 83 87 74 75 70 98 85 100 100
96 94 93 76 60 85 92 88 92 100 100 100 99 97 100 99 99 98 94 92 93 96 92 89 78 60 44 99 99 70 66 74 70 79 86 91 95 88 73 88 64 100 100 100
97 86 84 90 74 85 90 82 91 92 98 99 99 100 99 100 99 99 93 96 89 91 89 86 87 74 72 99 96 59 79 79 86 86 90 96 99 98 85 80 100 100 100 97
90 94 92 84 83 95 79 86 89 90 94 95 92 99 100 100 100 100 99 98 92 77 85 92 78 64 100 100 77 76 87 90 93 99 98 98 92 97 100 100 100 98 99 92
94 99 91 93 85 69 83 76 79 87 88 92 100 99 100 100 99 99 99 99 98 99 99 94 69 100 98 82 91 88 84 96 100 100 100 100 100 100 99 98 100 92 90 91
98 96 96 93 97 83 68 69 78 81 98 91 88 100 98 99 99 99 100 99 99 100 100 100 100 92 79 78 98 99 100 99 100 100 100 99 100 99 94 90 89 87 92 98
99 99 98 95 96 72 64 74 83 86 79 86 80 99 99 96 99 100 100 100 100 100 100 100 98 87 87 99 100 100 100 100 100 99 99 99 94 94 89 95 95 99 97 88
88 97 91 100 98 90 83 84 91 85 80 75 72 88 100 99 93 99 100 100 99 100 100 100 100 100 98 100 100 99 99 99 99 97 96 92 94 96 100 100 91 71 41 27
92 80 92 78 66 75 85 87 83 77 70 64 63 82 90 98 98 99 100 99 100 100 100 98 99 98 97 97 98 95 93 92 86 91 98 99 98 100 89 60 37 26 26 22
94 86 91 89 82 87 81 83 79 71 61 64 66 76 84 83 90 97 97 96 98 96 98 100 100 100 100 99 97 98 97 99 100 100 100 100 85 56 31 25 26 22 20 20
89 86 93 85 70 83 80 77 75 71 63 56 63 73 77 87 87 96 91 91 92 93 95 97 95 96 99 100 100 100 100 100 100 95 77 51 29 25 26 22 20 20 20 19
74 70 74 74 93 81 69 64 71 74 67 58 64 70 80 87 77 75 87 87 89 92 94 95 96 100 100 99 98 90 88 79 68 46 27 26 26 22 20 21 21 20 19 17

GFSCGP_700_rhum_039.txt.gz
RH
96 100 98 86 76 72 76 85 92 68 68 70 66 66 64 37 39 38 30 29 22 20 21 23 21 17 14 14 24 55 71 76 63 58 59 51 50 56 53 56 48 50 49 51
99 100 85 87 84 78 82 97 87 69 64 66 60 50 47 31 14 12 9 11 11 11 12 16 21 29 28 25 23 33 73 76 78 75 67 58 60 60 59 63 57 54 50 54
93 95 98 97 86 92 88 86 77 71 54 44 43 24 12 14 13 14 13 13 15 14 13 12 13 17 25 34 40 38 42 68 79 81 76 68 63 63 60 65 62 54 51 56
92 88 86 95 87 87 84 78 78 77 72 65 61 78 12 16 16 15 16 17 17 18 16 16 15 13 14 20 27 41 46 59 68 79 85 83 72 59 55 54 59 60 63 62
89 90 89 90 74 89 86 83 79 77 75 79 59 61 22 15 12 15 21 24 27 25 29 26 22 19 17 20 22 26 32 49 62 64 76 83 84 69 62 65 64 64 63 65
87 87 91 89 83 84 88 86 79 72 81 93 38 56 30 22 23 26 25 17 20 21 34 30 24 19 25 27 25 37 44 32 46 62 64 74 77 77 63 66 66 64 63 64
92 88 94 85 80 89 94 85 88 86 89 88 56 67 30 25 26 28 26 26 29 32 40 41 41 38 36 36 33 32 40 44 43 47 62 67 73 78 78 70 72 69 67 66
88 73 83 69 90 81 90 81 75 91 98 81 60 59 37 31 26 32 34 34 35 36 35 39 42 39 35 40 31 26 25 35 49 49 47 67 74 78 77 64 70 71 68 65
84 86 93 98 90 88 91 91 86 87 76 86 50 37 25 30 35 36 37 38 37 39 38 37 35 37 37 38 37 35 25 27 33 46 57 57 65 70 64 62 74 76 76 67
89 83 96 89 97 95 86 80 93 95 96 93 66 54 40 40 40 39 40 44 42 43 43 42 41 36 41 48 46 40 39 31 37 39 45 56 62 73 62 62 65 75 66 62
90 84 96 93 92 80 96 95 92 89 90 93 96 63 41 41 40 45 43 44 56 69 59 54 50 47 54 47 39 35 51 55 54 39 42 50 66 66 59 73 80 80 71 71
91 85 86 82 76 82 85 76 88 83 65 87 89 73 53 48 44 43 56 73 77 71 72 67 64 61 53 48 47 38 47 58 64 48 44 41 48 60 51 78 77 71 73 67
90 90 88 92 81 89 93 94 93 90 80 85 89 68 55 56 65 83 98 100 99 95 78 71 74 72 56 47 41 30 30 54 66 55 42 56 30 32 69 82 77 77 72 66
88 90 71 78 92 88 84 82 84 92 98 86 83 76 72 91 99 98 99 92 77 85 88 83 78 81 63 48 46 38 35 68 71 67 49 86 61 61 77 84 84 78 80 99
93 86 86 75 73 78 75 66 70 82 76 98 70 95 80 98 100 99 99 99 96 97 94 81 78 79 74 60 54 38 60 93 96 100 99 76 84 74 86 90 82 80 71 92
89 86 88 72 72 71 79 74 86 89 92 98 98 97 91 100 100 98 100 100 98 98 98 94 86 78 70 62 50 40 80 96 98 100 100 85 96 94 95 99 95 88 100 98
92 90 87 78 71 83 84 80 85 86 95 100 93 82 95 98 100 99 98 100 99 99 100 94 84 77 75 63 60 99 100 98 100 100 99 88 98 99 100 100 100 100 100 100
95 93 90 78 78 94 80 76 77 84 86 89 89 90 100 100 100 99 99 100 100 98 94 98 91 87 82 84 99 99 98 99 100 100 97 100 98 100 100 100 100 100 100 99
97 99 86 90 87 72 83 72 78 87 78 80 92 93 100 100 100 100 99 99 100 97 91 76 82 92 90 100 100 100 100 100 100 100 100 100 100 100 100 100 99 99 97 98
98 97 98 97 96 87 77 66 85 89 74 80 88 94 98 100 99 99 99 99 99 99 100 99 100 99 100 84 82 99 100 100 100 100 100 100 100 99 98 99 97 97 93 89
100 99 94 87 97 70 72 86 93 89 82 79 75 76 99 100 100 98 98 100 99 98 99 99 96 98 98 100 100 100 100 99 99 99 98 99 99 98 97 94 88 90 100 100
88 89 96 98 97 83 86 91 97 88 78 69 66 79 98 98 99 100 96 98 98 99 99 99 95 97 100 99 99 100 99 99 99 98 98 100 98 98 96 96 100 96 71 37
95 77 82 80 68 74 87 87 90 82 74 59 65 80 90 92 98 98 99 99 99 93 96 98 99 99 99 99 99 99 98 99 100 98 100 97 85 86 94 81 47 29 28 25
96 99 98 97 82 94 87 93 90 72 73 60 60 72 83 90 96 99 95 100 99 98 98 98 98 98 98 97 97 98 98 97 99 99 98 98 84 54 31 27 27 23 21 21
89 98 99 91 82 92 85 88 71 68 73 66 60 67 78 84 95 96 94 90 100 100 99 98 98 98 98 98 98 98 99 99 99 95 69 42 29 29 27 23 22 22 21 20
72 78 95 90 86 89 86 80 75 64 73 70 60 68 75 83 87 79 78 88 96 100 100 100 99 100 100 100 99 100 100 90 75 48 31 29 26 23 22 23 22 21 18 15

GFSCGP_700_rhum_042.txt.gz
RH
93 94 99 99 97 84 92 80 81 83 82 72 71 76 56 32 42 38 32 27 23 21 21 23 19 17 21 36 48 60 71 71 61 56 53 52 52 58 55 51 52 51 46 50
92 100 100 99 95 89 90 86 80 74 80 78 67 56 45 36 28 25 19 21 20 18 15 17 23 27 26 22 21 19 30 72 76 66 58 66 61 57 62 62 55 55 51 54
99 92 93 97 92 83 86 85 85 85 72 66 64 58 44 23 13 12 11 12 14 12 11 11 12 18 24 25 26 27 24 35 76 77 74 63 78 74 60 60 60 60 53 61
95 94 94 92 85 84 81 83 85 84 78 64 47 67 16 14 13 12 15 14 13 12 12 13 13 13 13 16 29 37 40 33 56 72 72 71 70 75 71 63 62 63 64 62
91 96 90 87 87 90 90 84 78 78 79 79 56 66 23 15 15 12 13 14 13 11 11 11 12 15 17 18 20 26 39 45 50 48 59 66 75 77 84 87 76 63 66 70
91 93 90 82 84 82 92 87 78 78 76 81 48 56 28 21 22 17 16 21 22 20 23 24 24 21 18 22 24 22 20 24 49 62 57 61 65 73 87 91 90 75 64 69
97 89 89 85 90 86 90 84 78 86 96 79 58 75 28 25 22 23 28 30 32 31 30 31 34 37 36 30 31 34 32 31 31 30 55 60 64 68 71 85 89 89 77 70
95 96 85 80 78 67 87 78 65 74 97 87 63 66 30 23 22 28 35 36 35 36 36 37 40 44 43 43 43 43 43 42 35 36 36 41 56 58 70 76 85 88 82 71
91 84 93 88 77 75 87 98 84 87 87 91 52 38 27 21 31 37 38 38 38 38 38 37 39 38 37 36 35 36 38 34 34 36 27 37 41 49 58 73 76 80 79 70
73 88 95 90 92 95 80 81 89 84 91 88 65 57 26 37 42 42 42 42 44 44 42 42 42 45 46 43 42 40 40 39 38 28 25 26 41 52 53 62 65 76 72 71
84 76 99 91 93 85 94 94 90 82 82 92 94 57 42 44 48 46 48 54 59 57 59 62 69 59 63 56 54 48 50 45 36 33 24 29 28 50 65 59 66 72 70 70
84 84 87 98 89 88 93 83 80 78 66 98 98 69 47 48 56 72 88 89 85 86 76 76 92 76 86 75 61 54 55 41 32 28 32 34 27 43 73 78 69 72 72 71
85 83 84 86 84 83 92 88 94 88 84 89 87 64 51 56 74 84 91 97 96 95 97 81 91 88 90 73 66 56 46 41 34 41 54 50 45 55 83 86 84 76 75 90
84 82 69 77 80 77 78 70 78 92 92 88 79 61 58 76 81 94 93 96 98 98 94 90 95 95 97 83 69 59 50 39 31 48 72 63 64 67 78 85 82 64 83 92
93 88 86 78 85 92 82 82 86 90 76 95 65 78 70 96 100 98 100 92 92 96 100 98 100 96 99 88 75 66 57 47 45 77 86 76 80 56 66 95 67 66 91 94
94 89 83 69 64 66 66 62 62 70 75 91 88 90 93 99 100 99 99 94 99 99 99 100 94 99 95 86 82 74 53 39 74 99 92 92 82 98 96 91 97 92 94 100
95 86 84 75 76 81 81 75 85 86 87 91 95 88 97 99 99 98 98 92 96 100 99 88 93 93 90 90 86 71 55 91 94 88 84 96 100 82 100 100 100 100 100 98
85 87 92 80 78 96 90 83 80 83 84 88 85 99 100 99 99 99 99 99 98 98 99 85 78 80 85 93 89 97 99 100 96 95 99 99 98 99 100 100 99 100 100 100
89 95 89 94 85 74 94 83 76 87 64 68 91 94 86 100 93 100 99 97 98 100 100 86 96 92 92 99 100 98 99 100 99 99 100 100 100 100 100 100 100 100 100 98
95 90 96 99 94 83 88 75 83 89 73 87 89 77 76 96 98 98 93 98 99 100 98 100 100 100 100 100 100 99 95 98 99 98 99 100 99 100 99 99 99 99 97 97
95 97 100 98 90 67 64 84 88 87 89 88 73 72 89 96 99 100 98 96 98 100 96 99 98 98 96 97 95 99 98 98 99 95 99 98 98 99 98 99 98 98 97 91
96 100 98 92 94 86 86 84 93 93 83 83 68 72 88 94 91 95 98 87 88 97 98 93 98 95 92 100 99 99 98 93 98 98 98 98 99 100 99 97 95 95 84 53
96 81 83 76 70 80 84 92 98 96 77 78 71 70 84 90 92 93 93 91 80 84 89 97 100 100 98 99 99 99 97 99 100 99 98 98 100 99 94 80 54 32 27 24
88 97 97 93 82 95 95 93 88 93 78 74 73 70 78 85 89 97 99 98 89 81 74 83 99 99 98 97 97 98 97 98 99 100 100 97 74 46 30 27 25 22 22 22
79 97 99 86 83 93 96 96 93 88 76 67 74 68 74 81 87 95 98 98 88 91 81 78 85 91 97 98 96 99 100 100 99 81 53 32 28 27 24 22 23 22 22 19
99 96 82 84 92 97 82 84 83 79 73 64 78 68 78 84 90 86 92 98 99 97 94 84 94 96 96 98 98 99 89 54 32 29 28 26 24 23 23 23 22 20 16 13

GFSCGP_700_rhum_045.txt.gz
RH
100 98 98 87 80 72 76 75 75 72 72 72 56 68 44 29 45 33 27 24 24 22 16 17 18 20 37 48 46 47 67 73 68 64 55 48 41 49 58 51 50 52 55 57
99 98 98 100 99 95 97 97 88 74 73 82 71 61 43 28 32 34 34 31 27 26 24 25 30 32 26 22 18 26 37 64 78 76 74 66 54 48 58 58 56 60 58 60
97 98 97 98 99 100 97 93 85 84 74 74 72 59 37 28 31 29 16 12 12 12 13 13 14 21 29 33 32 25 23 29 55 76 78 77 77 63 58 59 48 46 52 61
98 93 100 100 96 94 84 75 79 80 78 79 67 72 29 19 13 11 12 15 18 15 15 14 14 12 11 14 23 32 35 36 30 35 44 52 74 76 62 60 57 61 55 61
97 94 97 100 99 92 85 80 80 82 76 77 58 61 26 15 13 16 14 15 16 14 13 14 14 14 15 17 17 17 23 36 48 47 49 43 50 76 80 76 77 84 80 70
87 92 95 90 93 93 78 85 88 84 76 79 59 61 18 20 22 16 13 20 24 25 23 21 24 24 25 26 25 25 26 27 29 44 51 57 58 58 70 72 75 82 84 80
97 99 96 94 88 92 90 92 71 75 90 78 62 65 20 24 29 24 18 23 29 32 32 32 33 33 30 31 32 31 32 34 35 36 35 50 64 65 58 61 66 81 84 86
94 98 93 95 89 80 88 84 58 64 89 84 70 68 30 24 27 26 30 35 38 36 36 37 38 40 40 40 40 39 39 41 42 42 41 40 40 63 69 67 66 64 77 93
85 82 87 81 76 85 85 93 75 76 93 93 54 36 21 25 26 37 40 41 42 43 43 43 40 39 38 38 39 40 41 41 39 39 39 36 36 35 40 53 59 64 63 72
79 85 94 90 89 88 79 72 79 71 66 82 58 46 22 36 43 46 49 51 48 46 45 45 47 47 43 43 42 45 45 46 46 45 44 42 36 29 34 31 43 56 62 67
79 76 96 97 96 95 90 92 79 71 71 86 89 42 35 42 48 57 76 78 83 88 86 69 54 54 52 54 56 61 60 64 60 54 50 44 36 24 30 28 24 47 59 72
84 81 99 96 93 93 98 78 76 63 74 100 97 57 46 49 58 74 78 78 82 87 93 82 72 64 75 70 62 78 94 81 66 57 48 39 32 32 39 46 39 46 58 73
82 79 87 97 96 92 91 98 93 80 82 90 83 54 51 54 76 76 78 80 84 91 84 79 66 66 80 91 92 98 97 76 67 49 39 39 37 52 53 49 41 52 62 69
83 78 71 73 76 74 86 72 79 95 96 84 70 53 59 82 93 86 78 96 81 83 84 80 66 74 82 98 95 91 88 81 62 49 42 37 36 58 62 51 50 61 76 78
91 87 84 81 84 85 81 68 69 75 74 84 52 63 79 94 96 98 99 96 94 82 89 89 71 88 95 95 86 90 91 79 64 51 44 42 74 76 67 70 77 84 85 92
93 89 81 69 64 69 72 77 81 75 75 78 70 81 96 98 100 99 99 100 100 92 99 95 88 97 85 78 82 84 74 51 43 42 36 61 86 83 88 92 97 91 84 93
98 92 83 73 82 78 70 54 44 49 66 88 95 89 99 96 100 94 99 100 99 98 98 95 80 95 82 91 83 78 72 55 40 49 70 85 95 87 84 97 97 92 90 57
88 91 88 80 77 95 89 83 83 82 82 87 84 90 95 94 99 100 97 98 98 98 97 67 62 74 86 88 98 100 96 100 99 83 99 94 100 98 99 93 99 100 98 99
92 94 88 88 89 67 79 86 83 84 85 85 90 87 79 85 95 95 98 98 98 99 99 73 83 97 100 100 99 99 97 100 99 99 98 98 98 99 100 99 92 91 100 97
90 91 94 100 100 88 94 87 87 87 86 85 87 75 79 99 97 96 99 92 97 98 100 99 99 99 100 100 100 100 99 94 78 96 98 99 99 98 99 96 100 100 96 99
97 99 97 100 99 65 85 80 87 88 91 84 87 74 84 91 92 88 85 80 88 100 97 99 100 100 100 100 100 100 100 100 100 95 97 93 99 100 99 99 100 98 97 98
80 93 99 100 99 79 83 86 91 97 98 85 82 73 79 93 96 86 90 84 79 82 85 97 98 99 99 100 100 99 96 100 98 98 98 98 98 99 99 99 98 98 97 83
94 84 93 83 72 94 98 85 89 92 91 88 76 77 75 93 88 96 100 88 88 76 85 90 93 94 99 100 99 99 96 94 97 98 98 99 100 100 100 86 51 29 26 23
99 100 97 93 85 78 84 90 94 94 93 90 75 78 74 85 99 100 100 99 94 89 82 90 96 95 92 93 95 98 97 99 100 100 98 88 65 38 27 25 22 23 25 23
96 100 99 98 77 89 94 88 95 97 93 87 76 74 74 79 96 100 100 99 97 97 87 93 99 100 91 93 98 98 95 91 75 48 31 28 27 23 24 25 25 23 20 16
95 96 97 88 85 86 75 82 79 76 77 73 70 70 80 83 93 97 94 91 99 99 94 90 95 99 97 82 77 53 40 33 29 28 26 24 25 26 25 23 20 17 14 11

GFSCGP_700_rhum_048.txt.gz
RH
97 94 94 83 84 77 69 68 62 54 57 58 48 50 28 18 20 18 16 14 15 14 14 16 20 26 36 44 51 59 62 59 60 56 45 38 36 39 43 48 53 51 49 50
99 100 99 91 91 90 89 86 75 77 76 75 62 56 38 19 21 24 28 26 23 24 25 26 29 30 25 21 27 45 51 57 61 61 65 54 57 54 51 48 58 62 59 56
97 98 100 100 98 97 99 89 86 78 80 79 73 59 35 24 28 30 27 27 22 21 18 17 22 28 30 29 28 27 29 34 45 45 44 57 64 64 62 54 51 51 63 62
99 86 99 97 99 100 100 94 91 76 78 78 70 74 33 24 17 16 14 14 28 24 20 16 18 18 17 17 20 31 34 34 34 31 28 38 61 72 76 78 76 68 63 58
98 90 93 99 99 99 98 87 82 79 81 80 61 59 22 18 16 20 18 20 22 23 22 20 18 18 20 23 23 22 20 22 34 44 43 36 31 36 63 68 64 69 69 70
93 100 100 98 100 100 94 84 83 84 84 80 61 54 15 27 29 30 27 23 22 24 26 26 24 24 26 24 25 26 26 26 26 29 38 52 58 56 46 42 47 46 55 66
100 99 94 95 98 99 98 89 82 68 84 74 61 61 20 35 34 31 27 21 28 32 33 32 30 31 30 33 32 34 37 37 39 40 39 41 54 62 68 68 63 56 61 73
90 98 95 98 91 83 95 87 67 59 79 70 75 71 34 32 35 29 26 35 38 38 37 37 35 34 33 32 33 34 33 34 36 39 42 42 43 43 43 43 56 68 70 68
87 85 96 84 94 91 88 86 76 68 85 90 54 36 29 31 33 38 44 45 45 44 42 41 39 39 38 37 38 38 38 38 38 42 45 43 43 42 41 37 38 42 57 70
80 84 91 88 94 91 80 78 79 67 71 68 47 40 23 35 42 47 54 57 60 65 65 60 52 47 42 41 42 44 43 41 41 44 45 45 44 46 44 41 34 36 36 38
72 74 99 97 98 91 84 84 72 66 68 73 68 32 38 34 49 60 68 69 71 75 75 75 63 58 52 49 48 51 54 48 55 64 70 67 59 54 48 43 35 28 36 33
74 77 95 92 92 93 92 82 74 60 82 90 92 45 43 45 56 75 79 76 81 70 77 76 72 58 45 43 47 52 64 74 77 87 77 75 68 53 45 37 33 35 32 35
76 79 95 99 96 97 98 99 89 75 75 80 84 46 49 54 72 82 84 78 86 96 76 59 56 58 57 48 57 89 95 95 96 95 86 81 69 48 43 38 35 46 41 40
80 75 71 73 74 77 87 75 88 89 89 76 58 39 55 78 83 80 85 96 100 95 76 58 55 52 45 59 84 99 100 99 92 91 86 63 56 51 41 37 38 50 46 44
88 82 76 76 78 77 81 73 78 84 76 71 49 53 73 89 97 99 100 97 99 100 81 70 68 46 60 64 94 100 96 85 79 63 49 47 50 47 40 51 55 58 52 56
93 86 83 75 71 71 73 76 86 74 75 72 56 71 89 95 100 99 98 97 98 98 91 84 54 53 42 65 84 84 76 62 54 46 45 45 43 42 61 77 72 76 80 94
93 93 85 73 83 76 68 57 57 56 48 59 70 80 90 95 87 94 98 97 95 98 100 65 47 37 46 60 70 79 80 79 98 89 82 61 60 81 94 87 90 100 99 99
94 94 92 82 81 93 79 84 76 76 83 86 88 91 91 86 84 90 95 99 94 94 99 75 51 49 60 76 97 99 100 100 100 100 94 92 90 93 99 100 100 92 99 89
93 95 87 86 92 62 66 85 87 85 98 94 88 84 75 78 87 92 80 82 82 98 99 97 82 71 83 99 100 99 100 99 99 90 98 88 92 97 97 99 98 98 98 99
89 87 89 96 93 92 95 92 95 91 96 95 86 88 77 89 86 90 86 76 77 87 92 96 96 100 100 99 99 100 100 100 99 100 100 93 99 97 100 97 98 98 98 98
99 90 98 91 93 69 83 97 99 96 99 93 86 84 76 87 93 92 90 77 76 71 76 96 100 100 100 99 100 98 99 100 100 100 100 100 100 100 98 98 97 97 97 98
93 89 97 96 89 83 81 98 95 96 92 82 90 79 77 79 94 93 100 98 81 73 75 81 99 98 97 99 95 94 96 97 97 99 98 96 97 95 96 96 97 98 94 71
97 87 89 84 78 90 85 98 96 84 81 84 92 84 78 77 86 92 99 99 92 80 74 77 78 88 100 99 95 92 88 88 90 92 93 95 95 96 91 52 32 26 24 24
100 100 96 96 78 80 95 98 95 91 94 96 92 87 75 78 82 93 99 97 100 94 79 79 86 94 96 92 92 96 92 91 93 96 82 54 33 29 26 23 25 25 23 19
98 99 96 94 97 87 94 96 95 89 90 83 90 82 72 82 82 91 95 100 100 100 95 80 82 85 90 96 98 95 89 78 54 34 30 27 24 24 26 24 22 19 16 13
89 86 93 92 86 87 73 82 93 85 81 72 69 69 70 80 86 89 92 97 100 100 99 89 91 85 77 74 60 55 43 32 30 28 25 26 27 26 24 20 17 15 13 13

GFSCGP_700_rhum_051.txt.gz
RH
98 96 74 64 78 76 54 42 40 34 42 51 48 52 23 22 18 16 16 16 15 14 15 16 15 21 34 41 44 50 52 52 51 50 48 46 48 47 42 42 50 56 56 54
100 95 83 75 84 72 72 70 68 63 63 60 53 48 22 23 21 21 19 17 18 18 20 19 18 17 16 18 25 34 42 48 52 55 56 54 54 56 55 53 46 52 49 53
99 97 85 86 87 94 98 82 74 73 76 74 68 48 27 28 34 31 22 22 24 24 23 24 27 26 25 24 24 24 24 25 22 24 48 55 58 58 60 61 45 42 44 46
99 96 99 100 95 93 93 87 90 85 77 72 65 65 29 32 29 25 21 20 22 24 21 24 20 19 20 19 22 29 32 32 33 37 32 30 34 41 47 49 59 74 77 76
98 99 95 99 99 100 98 92 95 84 79 77 66 51 30 27 25 28 32 28 25 27 29 24 23 22 21 20 20 20 20 20 22 31 40 44 43 42 38 33 41 70 74 79
88 99 100 99 98 99 98 90 86 84 80 81 65 55 27 38 38 37 36 34 31 30 28 27 26 27 28 25 23 21 19 20 23 23 25 32 47 56 52 52 52 47 49 51
100 100 96 93 99 99 99 93 82 63 79 77 62 63 30 39 41 40 36 26 24 31 33 33 31 32 32 33 33 31 30 27 25 25 27 32 40 45 50 60 66 68 68 66
95 98 98 96 94 85 96 92 75 56 65 58 66 62 36 38 40 35 31 39 40 41 40 38 37 36 34 32 33 33 34 35 34 31 31 34 39 43 45 46 46 48 48 54
88 99 99 98 90 89 94 93 78 61 78 76 48 41 38 36 40 40 47 48 46 47 48 48 47 44 43 41 39 37 35 36 39 39 38 34 35 41 45 45 43 41 40 40
78 89 99 94 100 93 84 81 78 67 73 58 41 35 26 37 44 53 52 47 50 52 50 53 51 44 43 41 40 43 45 42 43 44 43 42 41 44 46 47 46 45 42 36
72 71 99 96 95 88 86 82 69 59 60 57 45 27 31 44 50 51 49 53 57 58 55 51 55 36 26 22 23 25 28 33 44 59 55 51 56 57 53 53 51 48 44 39
72 75 92 94 92 91 85 79 67 55 72 72 82 34 42 39 53 58 68 68 69 63 54 52 53 30 28 24 26 24 22 27 46 61 74 69 65 70 73 73 58 55 48 43
70 77 97 97 94 94 96 85 82 73 54 55 70 40 51 52 67 87 85 76 77 88 86 64 48 39 28 25 28 26 33 41 65 78 82 89 90 81 77 76 70 54 49 43
74 69 68 66 70 75 88 78 82 85 74 65 44 40 40 71 81 81 83 87 98 99 99 82 64 41 27 30 28 31 33 54 78 67 80 77 72 85 79 85 60 45 41 42
82 70 71 71 74 73 76 76 79 86 83 63 39 41 64 85 88 97 98 98 98 98 100 93 47 37 28 24 26 34 48 60 60 58 51 47 45 48 54 57 54 50 52 52
91 77 74 76 73 72 72 77 83 73 72 57 50 61 84 90 92 90 94 96 96 97 99 90 41 33 32 29 42 58 60 53 48 43 54 42 45 52 55 62 74 80 79 72
94 89 78 74 77 81 71 59 58 62 54 52 62 80 91 81 80 85 89 88 80 75 89 90 50 40 37 43 56 69 77 89 98 99 95 98 84 65 96 100 98 97 92 97
89 94 87 85 80 90 78 87 71 58 60 80 89 89 85 76 78 86 82 78 69 69 78 62 55 55 58 63 72 80 89 86 87 100 96 91 96 100 99 99 99 100 100 96
91 95 91 92 90 59 60 88 88 89 98 94 90 89 80 75 84 87 93 74 65 65 70 71 73 82 76 88 96 99 99 96 78 85 96 97 99 99 91 98 99 99 99 100
93 91 94 92 89 86 90 96 96 100 100 98 89 86 79 78 88 94 75 76 73 65 67 70 96 98 100 100 100 100 100 100 99 100 99 99 96 99 99 99 99 97 97 98
97 93 94 88 87 70 87 92 98 99 99 98 89 85 81 78 79 92 89 99 80 69 66 75 84 99 100 99 95 94 98 99 99 99 98 99 99 98 98 97 97 98 97 97
99 100 94 90 83 80 77 99 98 99 98 92 87 88 83 77 77 87 99 98 97 75 67 66 72 88 99 95 89 84 83 90 95 94 94 97 97 97 96 95 92 81 57 32
95 86 87 81 79 95 95 100 99 96 90 90 84 86 84 78 77 80 94 97 98 96 79 68 74 75 88 93 84 84 85 84 86 88 88 87 74 45 30 27 25 24 24 21
98 94 93 94 85 85 94 95 100 99 94 95 90 92 85 76 75 81 89 98 98 99 97 77 73 81 85 85 86 88 85 82 76 52 33 28 27 24 25 25 23 20 16 14
100 100 93 96 93 86 99 99 98 93 94 86 86 78 78 73 69 82 86 98 99 99 98 97 78 70 70 76 82 84 74 45 30 29 26 24 26 26 24 21 18 15 13 13
80 82 92 94 85 86 81 88 87 90 89 91 86 79 73 70 68 76 89 93 100 99 99 99 92 71 65 56 50 45 34 30 27 25 26 28 27 24 21 18 16 14 15 17

GFSCGP_700_rhum_054.txt.gz
RH
91 99 84 95 84 66 70 74 60 30 42 32 45 62 32 24 21 16 16 15 15 15 12 13 13 13 14 16 20 28 38 45 49 45 42 43 37 40 42 43 48 48 50 58
94 98 97 100 97 72 80 65 64 47 46 45 65 51 35 25 19 16 15 14 14 14 15 15 14 14 14 15 17 21 22 29 39 43 44 44 43 43 41 45 54 54 52 56
98 97 99 100 97 89 87 73 77 72 59 64 64 50 36 31 28 25 23 22 20 18 16 17 18 20 21 18 16 15 15 16 19 24 31 36 40 39 31 34 38 42 49 53
99 99 97 99 93 86 87 85 75 72 79 60 59 35 47 45 42 36 31 28 26 27 28 28 28 28 26 24 21 20 22 25 27 30 30 29 24 23 23 36 50 58 60 54
99 92 93 99 93 93 95 86 88 88 76 72 61 53 51 40 41 39 33 28 28 28 33 30 27 24 20 18 18 19 19 20 22 25 27 31 32 32 35 34 36 40 43 48
98 99 99 98 99 100 93 94 97 83 79 75 70 60 37 43 48 43 40 39 38 34 31 29 26 24 22 20 20 20 20 19 19 19 18 20 22 31 40 44 46 51 53 49
99 99 98 99 99 99 97 98 89 82 89 60 55 61 42 43 45 46 43 36 29 28 28 29 29 28 27 28 27 26 25 25 24 24 23 23 22 22 24 31 46 57 59 59
98 99 99 99 93 94 97 98 74 59 53 44 56 47 41 43 46 46 39 34 37 38 38 38 36 35 34 34 33 32 32 33 33 34 34 34 33 32 29 32 40 44 47 51
96 98 99 100 92 90 95 96 75 49 59 64 44 42 46 41 45 43 40 46 48 45 44 45 45 43 41 39 38 38 39 38 36 35 35 37 39 38 37 40 44 46 47 47
79 98 100 97 92 90 86 80 76 68 65 49 37 38 31 41 47 48 52 52 50 52 50 47 47 46 46 40 27 29 31 31 36 42 46 43 42 42 42 42 44 46 47 46
68 79 99 99 95 96 86 87 69 66 50 34 21 25 27 38 49 56 51 49 53 54 52 51 49 46 45 32 20 20 17 15 16 17 24 37 53 56 53 54 53 51 50 49
72 68 98 97 89 87 85 79 64 66 73 70 62 32 36 46 57 56 55 58 69 68 64 61 57 50 37 24 21 15 13 16 17 20 29 35 45 59 72 73 67 66 68 64
66 71 97 98 96 92 91 79 71 58 53 64 46 36 45 48 56 56 66 76 75 78 76 75 60 41 28 26 20 17 14 15 17 24 30 33 37 50 55 59 68 84 84 81
66 62 64 65 71 75 80 71 76 75 67 64 51 52 49 48 79 84 84 84 89 85 73 68 54 42 27 26 22 19 18 21 20 25 25 28 29 33 35 40 47 66 77 83
74 68 64 62 65 69 72 73 74 72 67 62 53 36 42 72 87 83 81 85 81 75 73 74 68 49 31 27 26 27 32 37 40 39 35 32 30 30 35 37 44 54 62 68
81 72 67 66 65 68 69 72 74 73 80 68 58 37 73 86 86 84 83 82 77 68 66 72 70 51 33 29 32 37 43 52 46 54 57 55 39 33 35 42 49 55 66 85
88 81 70 78 72 75 72 54 58 57 52 46 56 66 89 88 84 80 79 73 70 63 64 67 50 47 41 40 46 50 51 62 50 68 76 84 78 71 76 65 76 79 85 96
91 91 83 90 78 81 59 82 77 61 54 56 68 92 90 76 75 78 76 80 71 61 58 60 63 59 62 56 59 54 68 87 60 57 64 75 75 87 97 92 97 98 98 99
91 91 88 95 88 66 64 86 76 60 67 88 88 90 85 78 75 81 82 72 69 62 58 66 63 79 79 72 65 61 92 98 90 85 80 93 94 90 92 98 89 98 99 98
93 94 98 89 85 60 85 91 91 90 97 86 89 89 84 79 78 83 90 79 66 66 63 65 74 86 98 87 72 80 96 100 100 88 96 97 99 100 94 98 95 92 96 98
96 97 99 94 83 78 89 86 95 98 100 98 92 91 88 84 80 80 89 89 80 80 69 63 66 74 98 81 75 70 72 82 91 87 90 96 87 89 85 90 92 92 92 94
95 95 96 97 90 81 67 91 97 99 98 98 95 89 88 84 79 80 84 95 98 98 79 67 66 69 82 86 76 72 68 77 78 81 87 87 85 83 72 57 40 28 25 24
96 92 94 89 83 80 93 95 99 98 98 97 97 87 80 80 78 75 82 87 98 99 95 81 72 76 82 83 81 78 79 79 79 80 76 51 30 26 25 25 25 24 20 17
88 92 95 90 78 86 95 98 98 99 98 99 98 93 86 82 80 72 75 86 99 98 99 97 87 76 83 86 87 84 82 71 47 30 27 25 24 27 26 24 20 17 14 12
88 92 93 91 86 91 92 98 97 97 96 97 94 84 83 77 75 72 71 83 89 99 100 100 96 88 71 78 82 77 55 32 28 26 24 26 28 26 23 19 16 14 14 16
75 76 90 100 84 86 90 89 91 89 90 92 92 93 85 78 71 71 72 79 89 99 100 98 99 96 70 60 53 45 33 29 26 25 27 29 27 25 20 17 16 16 18 21

GFSCGP_700_rhum_057.txt.gz
RH
94 99 96 90 72 55 47 50 37 44 52 58 59 59 50 58 26 17 17 22 21 14 15 13 9 9 9 9 10 14 26 38 46 50 50 39 40 43 44 42 43 45 44 46
99 92 98 88 74 63 62 51 48 59 59 54 55 61 65 45 24 25 28 20 20 17 13 12 11 11 11 11 12 12 13 16 23 32 41 42 28 34 37 41 40 45 42 44
99 99 90 99 85 72 63 63 52 59 70 61 65 61 48 32 21 18 15 15 15 13 13 11 11 12 13 12 12 13 14 14 14 17 22 32 23 23 26 25 25 31 40 43
100 100 96 99 92 73 61 61 60 80 67 42 55 25 58 44 36 29 26 24 22 20 19 19 17 16 17 18 19 20 21 21 20 19 19 20 21 22 25 29 28 29 33 37
95 91 98 98 90 78 64 79 87 83 74 71 62 47 46 43 49 44 36 31 29 29 29 30 29 29 27 26 24 21 18 16 15 16 21 27 29 32 32 32 32 32 31 29
99 98 98 99 87 79 93 90 90 86 78 70 58 45 45 45 53 64 38 32 32 32 33 35 34 30 27 24 21 19 18 17 16 16 16 17 18 18 19 20 25 33 41 46
98 98 99 96 97 99 96 90 92 91 89 59 64 59 41 39 54 66 57 41 40 38 35 32 29 26 23 22 21 21 22 22 23 24 24 23 24 25 26 27 26 25 28 39
98 98 99 99 99 97 87 87 71 64 64 50 63 47 39 49 67 51 43 39 33 34 36 36 36 36 35 34 33 32 31 30 30 30 30 30 30 32 34 35 35 34 34 32
96 98 99 99 99 100 99 96 76 54 50 46 42 46 51 51 64 49 45 39 38 38 35 33 35 38 40 39 39 40 38 36 36 38 39 38 36 35 36 36 38 39 40 42
93 96 98 98 98 97 99 92 81 66 64 43 37 32 30 42 48 50 56 50 47 44 42 43 43 43 42 41 40 40 29 19 21 26 28 33 42 46 46 44 43 44 44 46
86 85 99 93 95 90 82 86 71 71 55 35 23 24 33 38 49 60 57 53 50 52 53 53 50 47 44 42 39 38 22 18 15 13 13 15 16 22 27 34 48 56 55 54
68 94 97 99 85 88 90 77 71 70 64 58 54 39 36 55 62 49 54 51 50 59 61 59 56 50 49 44 38 24 19 15 12 12 12 14 21 25 28 28 36 49 62 71
70 82 94 97 86 81 87 87 80 71 56 67 41 43 49 57 56 55 52 65 72 68 66 62 58 52 47 31 25 22 19 16 15 13 12 14 16 20 22 21 23 32 42 50
65 64 82 66 75 81 78 70 74 70 71 58 46 53 52 51 60 80 78 76 73 70 65 65 62 58 51 33 29 24 23 24 25 28 28 23 19 16 16 19 25 30 35 43
67 61 55 55 59 64 71 69 67 74 62 62 50 51 56 55 70 66 74 73 71 68 62 59 59 63 58 36 30 26 28 29 32 34 32 31 30 26 23 23 27 32 36 37
78 68 61 59 54 57 58 66 74 70 68 77 71 58 60 64 64 76 76 73 70 66 60 61 62 53 47 34 31 32 35 40 38 38 35 36 51 55 50 56 59 39 38 42
93 82 68 81 70 74 76 52 56 59 55 68 79 49 73 78 79 76 74 75 76 67 61 56 60 61 52 44 38 44 49 46 51 48 41 50 57 62 64 62 62 66 76 70
97 95 86 84 79 79 67 65 65 68 57 55 44 61 83 82 76 74 77 78 78 70 60 53 59 58 62 62 58 62 56 52 56 60 57 54 60 69 70 72 71 70 77 98
95 88 91 82 72 68 59 68 78 67 62 49 54 87 86 81 77 79 84 87 76 70 63 57 62 69 66 69 67 61 67 66 76 68 64 58 64 68 70 77 76 74 79 93
83 93 93 94 78 59 91 80 79 76 95 72 87 90 89 83 84 89 88 87 82 75 71 55 57 64 71 71 75 69 62 65 71 72 77 74 72 78 76 80 73 73 78 83
99 99 96 88 80 70 73 86 90 96 99 91 90 93 90 88 82 80 82 87 83 91 78 64 59 65 73 77 67 62 58 61 65 69 70 71 72 77 78 72 60 51 54 53
89 88 87 87 90 78 65 94 96 99 95 99 98 94 91 88 84 78 79 82 88 97 87 79 67 69 74 74 71 67 66 66 67 68 70 74 71 49 30 25 26 26 24 20
87 84 79 80 81 76 70 97 86 89 94 99 100 97 95 86 84 81 73 75 85 93 100 94 82 69 73 77 76 74 73 73 70 64 48 29 25 24 27 27 24 20 17 14
86 86 89 92 82 80 89 87 92 98 94 97 97 97 95 91 86 82 77 72 83 94 94 99 96 81 70 73 77 77 72 64 44 29 26 24 25 29 27 24 20 16 15 16
95 89 87 96 94 90 87 88 90 90 91 92 95 96 92 88 83 77 74 72 77 82 90 99 99 94 88 67 69 74 64 38 29 27 24 26 29 28 25 21 18 16 16 18
76 67 98 95 95 98 98 92 90 88 89 85 88 85 88 87 85 81 73 70 74 82 97 96 99 99 99 75 59 54 46 31 29 25 25 29 29 27 24 20 18 17 19 22

GFSCGP_700_rhum_060.txt.gz
RH
92 95 78 48 66 65 68 68 66 57 56 62 52 60 44 55 48 31 26 18 16 15 16 17 14 13 12 11 10 9 12 18 28 44 58 40 37 42 48 50 51 47 45 43
100 85 71 78 84 73 62 56 49 50 48 48 57 54 58 52 51 33 23 17 16 22 28 26 11 10 10 10 9 8 9 10 13 21 37 56 47 39 36 40 46 50 45 39
92 91 84 92 87 75 62 57 48 52 63 61 55 54 51 50 42 33 15 13 14 19 18 13 11 10 10 9 10 11 11 12 12 13 14 16 21 17 13 13 18 23 35 46
98 89 80 94 87 73 65 59 52 56 67 59 48 40 32 38 29 23 19 17 18 16 14 12 12 11 11 12 12 14 15 15 15 16 16 17 19 21 19 18 21 22 25 29
100 96 99 97 82 84 67 58 58 71 55 71 63 57 40 51 49 36 29 23 18 17 16 17 19 17 17 18 18 19 20 21 22 20 18 17 17 21 31 35 33 32 30 27
92 100 100 93 96 92 90 71 80 79 79 83 61 45 54 47 38 40 44 38 34 32 30 29 29 28 28 27 26 23 21 18 16 15 14 14 14 15 17 21 23 22 21 20
97 99 99 99 99 97 96 78 83 90 92 84 50 56 43 41 46 46 46 43 37 35 34 33 32 31 29 27 23 20 19 18 17 16 16 18 20 22 23 24 25 26 28 29
94 99 99 99 99 95 92 62 72 73 92 70 62 60 42 40 47 55 55 41 40 40 37 34 31 28 26 24 24 24 24 25 27 29 30 32 31 30 30 31 32 33 34 36
98 97 100 99 99 92 97 88 86 52 49 59 52 48 48 44 46 48 50 42 40 36 34 34 33 30 28 27 31 33 35 35 36 36 33 33 36 39 42 42 40 39 39 40
92 94 99 99 98 93 92 95 83 54 70 66 45 43 38 52 46 48 49 50 41 38 36 34 32 32 37 39 40 39 38 38 39 26 18 17 19 23 25 28 33 38 38 40
96 91 98 99 98 98 99 98 81 72 62 65 51 37 34 34 38 51 72 48 44 44 41 41 44 47 46 45 42 41 40 40 33 20 15 11 10 10 12 13 14 15 18 21
85 84 98 100 94 95 98 95 93 88 71 52 51 50 34 42 47 56 53 48 46 44 45 54 56 54 48 46 45 43 38 32 22 16 12 9 10 11 12 16 18 18 17 21
71 74 88 90 83 81 83 82 78 70 69 60 68 53 52 52 60 60 53 50 47 50 61 60 57 56 51 51 48 30 25 22 19 16 18 18 18 16 15 14 14 16 16 21
68 70 83 76 76 72 72 72 76 75 60 57 49 51 58 60 61 59 53 48 60 68 64 62 57 56 53 54 52 29 25 22 22 24 25 26 28 29 29 27 18 15 17 22
64 58 57 62 51 56 59 66 83 76 64 56 51 49 47 53 62 73 52 68 76 71 64 57 53 55 49 55 50 30 25 25 26 29 29 28 32 33 37 37 33 30 43 44
70 66 60 58 54 51 51 60 68 65 64 62 65 56 59 57 56 52 59 74 75 69 62 56 51 52 52 44 37 30 30 31 41 39 44 37 36 40 42 44 51 51 50 53
75 75 62 85 74 63 64 40 44 51 49 48 54 47 55 55 51 46 72 74 73 72 62 57 52 51 53 56 53 42 43 50 52 48 53 42 41 44 49 49 56 53 54 57
91 88 82 86 70 93 62 54 54 50 51 53 53 70 70 56 64 77 71 73 76 74 68 60 52 55 58 60 66 61 60 57 54 61 63 55 52 56 57 59 60 55 60 65
95 89 83 85 80 56 60 53 67 68 56 52 53 59 67 82 79 75 75 82 85 74 70 63 52 53 61 69 68 66 65 70 74 72 65 59 64 62 63 65 59 57 62 68
84 87 83 88 80 77 86 74 78 78 93 60 57 73 93 84 84 86 80 86 83 79 73 69 58 60 67 69 67 63 60 60 66 68 66 66 66 62 66 64 51 57 62 63
86 89 85 80 87 71 70 65 92 93 97 80 92 96 89 86 83 80 81 80 83 85 84 81 70 63 66 65 66 63 59 57 59 62 62 62 65 66 46 29 26 26 26 23
79 77 81 83 83 85 71 69 98 96 94 93 96 97 97 96 89 84 78 78 83 88 90 83 86 66 64 70 70 69 66 64 63 63 64 62 47 28 25 27 27 23 18 16
83 81 79 80 81 79 77 64 86 89 93 99 98 100 99 94 89 85 82 78 75 84 93 94 93 84 68 68 72 72 69 65 63 53 40 27 25 25 28 28 24 20 16 16
84 86 85 82 78 80 74 78 77 86 87 90 95 95 96 96 94 89 84 82 77 77 89 96 100 98 83 67 69 70 67 62 48 32 27 25 24 29 28 26 22 18 17 19
89 91 82 77 80 94 92 85 84 91 91 94 94 97 97 97 96 89 83 78 75 77 80 86 99 98 94 83 66 65 68 60 37 29 26 24 28 29 28 25 21 19 18 21
72 74 88 90 91 95 94 91 93 90 86 83 80 80 79 79 84 91 86 80 76 74 76 87 99 98 100 94 76 61 57 50 33 29 26 25 29 30 28 25 22 19 20 22

GFSCGP_700_rhum_063.txt.gz
RH
98 96 80 50 80 79 77 81 74 65 69 69 60 53 52 42 43 38 35 33 28 26 28 26 23 20 18 17 18 17 17 20 16 14 17 19 24 35 52 49 47 51 55 54
99 81 73 70 80 79 74 67 68 63 66 63 58 54 49 50 40 36 32 29 29 22 20 17 16 15 15 15 14 14 12 12 13 16 17 17 16 14 18 37 50 57 61 63
93 98 80 73 87 73 70 68 61 62 59 67 64 66 56 47 41 40 29 24 24 20 17 14 12 11 11 12 13 12 12 12 12 12 13 15 15 15 14 14 15 17 23 33
99 90 83 85 72 60 72 65 59 60 66 71 62 55 39 36 31 29 28 22 23 18 17 16 15 15 15 13 12 12 12 12 14 14 14 14 15 16 15 15 16 18 20 21
92 78 84 86 84 84 75 65 62 56 62 60 59 55 36 34 31 27 30 28 20 18 17 16 14 14 14 13 13 13 13 14 15 16 17 17 18 19 20 20 17 17 20 45
98 95 90 97 74 85 80 76 66 68 70 80 61 59 35 22 19 26 35 31 24 20 17 18 18 17 19 20 21 21 21 22 22 21 19 17 15 15 14 15 17 17 16 14
100 99 98 97 90 92 88 84 87 88 91 88 55 66 39 37 31 37 39 33 32 29 27 27 29 29 28 28 28 26 24 22 19 16 15 15 14 15 15 16 18 22 24 26
99 100 100 98 94 97 93 69 65 85 98 83 63 68 52 36 41 38 36 40 37 32 30 31 32 32 30 28 25 22 20 18 17 17 17 18 20 22 25 29 32 33 33 34
90 98 99 99 98 96 98 85 74 65 60 66 57 56 52 43 42 39 34 36 40 36 35 34 32 30 29 28 26 22 21 21 23 26 28 30 31 28 25 27 33 39 42 43
91 94 95 98 99 98 93 82 77 75 62 76 63 49 47 53 44 47 46 46 44 39 37 35 33 31 27 24 24 24 25 29 31 32 34 35 28 18 16 15 14 15 16 17
83 91 100 100 99 98 97 93 79 72 68 66 61 44 41 40 39 44 53 53 43 42 41 39 37 35 33 34 35 36 37 36 35 36 37 32 19 13 10 9 8 9 11 12
94 91 98 98 97 95 84 88 80 74 71 54 57 49 35 37 43 51 52 52 50 47 45 44 45 46 45 47 45 43 42 40 38 37 30 19 14 13 12 12 11 10 10 15
74 88 95 98 98 97 99 92 88 87 78 64 64 49 35 38 48 57 58 59 52 45 50 58 60 56 51 51 47 46 46 32 24 23 20 18 20 22 22 24 24 24 19 12
72 70 72 68 63 68 86 93 93 92 92 72 58 54 48 50 50 57 58 51 46 50 66 65 60 52 49 51 48 51 49 30 26 24 23 25 25 25 27 30 30 31 23 20
68 60 70 70 60 57 61 72 85 81 73 63 52 49 45 50 54 60 55 47 53 73 71 66 59 52 49 53 48 53 48 31 27 27 28 33 35 32 32 37 40 44 41 43
70 60 55 53 51 51 50 53 63 70 71 69 57 50 52 54 60 64 61 46 70 75 72 66 60 54 50 53 55 44 37 32 30 33 42 42 45 35 37 40 45 45 45 48
67 66 62 71 72 62 48 34 37 45 45 50 62 54 53 59 60 57 53 53 76 77 78 69 63 55 52 56 55 58 49 41 44 50 46 47 50 42 44 46 52 49 50 52
65 72 70 78 72 90 54 55 50 49 39 51 50 56 60 61 60 57 57 77 78 83 81 73 64 54 51 58 60 64 62 57 54 51 51 55 54 54 53 54 56 52 54 56
95 83 83 81 83 52 49 53 57 58 52 48 53 57 62 55 54 54 78 77 84 88 78 75 65 55 53 56 62 62 60 56 56 58 62 59 59 63 63 59 55 58 54 52
96 96 82 85 87 87 82 72 76 76 77 67 62 60 75 62 84 81 85 85 92 83 78 78 70 59 55 59 62 61 56 54 55 59 60 64 69 67 64 50 43 44 31 25
90 95 88 74 85 69 72 68 87 89 78 54 68 65 66 86 87 89 82 82 82 84 85 84 78 67 60 65 65 62 59 56 56 58 59 62 65 64 36 26 27 26 22 17
76 77 78 78 86 82 72 71 96 94 92 79 59 65 92 96 93 88 84 78 78 84 88 90 81 75 68 67 70 66 63 62 61 62 63 64 52 28 25 28 27 21 18 16
79 77 78 77 72 70 75 72 70 90 98 97 97 97 98 98 96 96 96 88 81 73 76 90 89 82 78 69 71 69 68 67 64 56 47 32 25 24 28 28 24 21 17 17
84 82 84 82 80 80 82 80 75 78 86 94 98 97 98 99 98 96 92 89 83 80 76 82 96 97 89 86 71 71 71 71 62 44 30 26 24 26 29 27 24 20 18 18
88 87 83 82 79 82 83 82 83 84 86 93 95 95 100 100 98 97 98 96 91 83 76 76 77 93 96 91 90 72 71 72 61 38 29 26 24 28 30 28 25 21 20 20
75 80 85 83 85 87 89 94 90 94 93 90 88 87 88 90 91 88 88 92 97 90 84 76 78 82 98 99 92 79 65 62 56 37 31 27 25 28 30 29 27 24 22 21

GFSCGP_700_rhum_066.txt.gz
RH
99 98 60 62 86 84 68 75 69 78 72 68 63 54 55 46 43 37 35 38 36 33 34 33 32 30 28 25 22 22 21 20 20 21 22 22 22 27 31 35 39 47 52 50
99 74 66 90 86 82 77 72 71 67 75 73 66 53 51 53 47 45 40 38 38 37 34 32 31 30 29 26 23 21 20 21 20 18 15 13 12 12 17 27 36 42 55 58
100 90 73 77 89 79 80 78 73 67 64 72 68 65 53 43 49 55 48 35 32 32 31 30 29 26 23 20 17 18 18 17 16 15 14 12 10 10 11 12 14 18 24 26
100 89 71 80 83 88 86 75 70 70 67 72 72 69 50 43 49 53 44 39 31 30 31 27 24 21 20 18 17 17 18 17 15 13 13 13 13 12 12 12 13 14 15 16
99 84 79 84 71 93 80 72 63 61 63 66 68 66 53 40 41 40 34 33 27 23 26 24 22 20 18 17 19 16 14 14 14 14 14 14 16 17 18 19 18 18 19 18
93 98 87 88 75 87 71 73 66 69 76 77 62 62 49 37 31 29 27 27 28 27 25 21 17 17 17 18 17 17 16 16 18 18 18 19 19 19 20 19 18 16 15 14
100 100 100 92 88 80 88 74 94 94 97 90 63 63 52 32 27 29 23 23 25 28 29 26 21 19 20 21 22 22 22 22 23 23 22 21 20 18 17 16 16 18 19 19
99 99 85 83 90 90 84 73 69 87 94 81 64 65 52 39 32 40 38 36 42 39 31 29 29 28 28 28 27 26 26 24 23 20 18 17 17 18 19 21 25 29 33 34
92 97 99 97 86 89 93 80 70 61 71 75 54 48 44 38 29 32 33 35 35 36 37 34 33 32 31 29 27 25 24 21 19 18 19 19 22 25 27 30 30 23 22 24
69 89 98 99 94 97 98 88 85 79 71 81 64 57 44 34 32 33 34 34 37 39 36 35 35 34 32 30 28 25 23 21 20 22 25 27 30 32 34 32 20 15 12 10
68 70 96 100 99 98 99 99 84 72 65 70 67 54 43 34 34 32 36 42 44 44 39 38 38 35 32 29 27 27 25 25 28 33 34 34 36 37 34 22 14 11 10 9
84 95 100 100 100 96 100 94 84 69 73 66 62 45 34 40 46 43 46 51 52 51 44 45 45 40 36 35 38 39 39 40 40 39 38 38 38 34 22 14 16 18 19 16
92 90 96 99 92 100 100 98 86 83 73 66 62 40 34 30 42 57 59 60 55 50 48 51 47 46 50 54 51 47 46 44 44 42 30 27 24 18 19 21 22 24 25 25
73 81 77 71 70 76 96 87 85 88 84 74 66 57 55 46 31 48 59 56 51 53 54 56 66 63 57 52 49 49 46 48 48 37 26 23 22 23 23 24 25 29 33 37
73 64 70 68 70 68 74 72 86 89 85 88 72 69 63 47 34 39 53 54 53 50 58 73 69 61 55 50 48 51 47 49 49 34 27 26 28 34 36 33 31 35 37 41
69 60 60 69 56 56 58 62 83 94 91 88 72 62 56 43 52 55 53 51 47 47 74 76 70 64 57 51 49 50 52 42 37 31 30 32 43 43 44 36 39 42 46 45
68 67 60 60 59 61 57 38 44 55 71 78 78 61 52 47 55 61 59 54 51 52 78 78 72 64 58 51 50 53 54 54 43 40 48 54 49 53 49 46 48 51 52 52
65 69 65 72 80 77 40 52 50 43 36 49 56 60 61 53 58 58 54 54 54 72 77 82 74 66 60 53 54 58 64 65 60 60 58 57 63 62 55 57 55 54 52 50
79 78 77 78 81 50 40 54 53 54 49 45 39 48 66 62 59 57 56 54 57 77 81 82 76 69 60 57 60 62 62 63 61 62 64 69 70 64 66 60 54 49 47 44
98 91 81 91 86 89 82 72 70 75 62 53 40 51 59 67 66 58 51 50 76 80 91 82 78 74 62 62 64 65 62 57 56 58 64 64 66 69 67 57 43 39 29 25
90 91 92 88 82 66 60 70 73 81 67 70 58 53 61 64 65 69 84 92 89 94 88 88 86 82 72 63 68 65 62 59 57 56 61 61 64 68 56 29 27 27 24 18
76 85 87 83 79 80 64 73 76 85 91 86 65 74 70 70 80 97 98 90 88 85 87 91 92 87 79 72 66 68 66 66 61 61 61 61 63 52 27 26 28 24 19 17
78 73 73 72 69 66 76 75 73 75 93 91 77 69 70 91 97 98 98 98 96 85 78 81 89 92 87 81 71 66 70 71 66 62 57 52 37 25 25 28 28 24 20 17
85 83 79 79 75 73 74 79 80 78 81 98 100 98 96 100 99 99 98 98 98 96 89 82 82 97 90 82 86 71 71 72 69 61 46 32 26 25 26 29 28 25 21 18
81 88 86 84 81 78 76 80 85 84 86 87 96 96 97 98 99 98 99 99 99 97 91 83 78 82 86 89 88 88 72 70 71 64 44 30 27 25 27 30 29 26 23 21
67 71 81 82 83 84 81 84 93 93 96 96 96 94 96 98 98 97 98 97 97 97 97 94 91 80 82 93 95 91 84 70 70 67 47 32 29 26 26 29 30 28 25 23

GFSCGP_700_rhum_069.txt.gz
RH
94 99 70 47 80 82 65 83 72 59 67 58 72 76 82 61 63 64 62 56 49 46 44 41 43 42 39 33 28 27 25 23 23 23 25 26 27 29 29 28 26 30 35 40
100 96 84 68 90 77 77 86 80 73 79 73 84 83 80 65 52 49 49 54 52 52 49 41 41 39 36 33 31 29 27 25 23 22 22 21 20 19 17 16 17 20 22 26
98 98 81 78 89 79 88 69 76 74 79 84 78 70 67 54 55 50 46 44 41 42 38 34 37 36 35 33 31 29 27 25 23 21 20 19 17 16 14 14 15 15 16 19
99 95 81 88 89 85 95 86 73 75 76 81 78 77 51 47 48 48 48 49 48 39 35 36 34 33 32 30 28 23 19 17 18 19 19 18 17 14 13 12 12 14 16 16
98 92 82 80 88 87 81 84 84 74 73 71 72 75 56 47 36 38 33 40 44 48 41 34 31 30 29 28 26 22 18 16 15 15 14 13 13 13 13 14 14 16 20 23
98 92 87 83 83 84 81 80 71 68 68 83 70 71 60 47 30 32 33 36 43 45 38 29 24 26 28 28 24 20 19 18 16 14 14 14 14 15 16 18 19 21 21 19
98 97 88 83 74 83 83 81 93 92 92 91 70 65 61 47 39 32 33 36 39 33 30 30 31 31 30 27 20 18 17 17 19 22 23 23 23 24 23 22 21 19 18 17
98 99 99 92 73 83 95 84 74 86 96 85 66 68 59 43 37 34 31 31 30 31 32 34 33 35 32 25 21 24 26 26 27 26 27 26 26 24 22 20 19 20 22 24
93 100 99 97 81 69 85 92 75 61 74 80 64 58 48 42 36 35 30 32 29 28 34 43 41 34 33 33 34 33 32 30 27 24 23 22 21 20 20 21 24 29 32 35
72 88 100 98 84 87 86 82 86 72 81 89 67 57 41 32 29 33 30 30 33 38 45 42 39 36 35 35 35 33 30 27 25 22 21 20 20 22 24 27 31 34 34 25
71 76 100 98 92 95 96 92 85 76 67 72 71 49 40 40 36 35 28 31 35 39 40 38 37 38 38 36 34 32 30 28 26 24 24 25 28 31 33 35 36 36 26 15
63 65 99 100 96 92 100 99 96 75 81 72 62 54 42 37 35 38 40 43 46 49 45 44 41 39 38 37 36 35 35 35 36 37 39 40 40 39 39 40 36 24 16 18
81 93 98 99 97 99 99 99 100 89 74 67 69 54 36 39 30 42 48 51 52 51 50 48 44 43 41 40 41 48 50 49 47 46 45 45 42 33 30 26 20 20 21 22
82 84 79 74 66 79 97 97 99 96 90 77 69 57 54 49 52 45 36 53 58 60 53 51 48 46 48 58 59 54 49 47 50 47 49 48 35 26 23 23 24 25 26 27
80 78 81 74 66 73 80 64 87 100 91 84 73 67 58 56 55 56 39 58 64 56 53 52 54 68 70 63 57 53 49 48 50 46 54 45 31 26 26 31 37 36 30 33
81 69 66 75 67 72 80 74 87 90 90 87 79 79 66 69 71 54 42 54 56 53 57 58 74 75 70 65 60 53 49 49 50 48 44 35 29 29 36 41 43 37 38 44
75 71 63 59 58 60 52 36 44 56 62 63 83 55 77 73 57 45 43 46 53 58 54 58 79 76 74 67 61 53 51 52 52 55 42 36 38 49 46 48 47 45 49 53
69 66 69 67 81 80 38 39 39 36 35 37 40 52 75 77 65 52 52 56 60 54 54 64 78 77 76 69 61 53 56 57 61 62 56 54 56 53 54 56 54 54 54 54
79 74 72 73 83 54 35 42 45 53 39 41 36 36 45 73 69 56 58 55 51 54 56 74 79 84 76 69 59 57 58 58 59 64 63 60 63 64 64 61 59 54 54 52
91 89 85 87 85 86 74 64 68 72 58 51 48 40 44 69 70 58 58 58 59 58 54 80 88 85 79 72 61 62 64 61 59 57 60 66 67 67 67 65 58 56 47 39
91 95 94 94 91 67 57 65 72 79 66 70 69 50 45 55 56 66 65 63 59 67 83 88 92 86 82 77 68 64 66 64 60 56 58 63 66 68 68 58 45 34 26 23
75 86 86 89 92 78 67 77 75 79 87 87 72 62 57 68 68 68 69 87 99 95 94 96 90 88 89 84 76 67 67 69 66 60 60 62 64 68 58 31 27 28 25 19
80 74 74 68 68 65 71 78 78 74 73 88 84 74 77 76 76 79 93 98 94 91 91 89 88 89 93 89 78 79 72 73 69 65 63 67 65 56 33 26 28 28 24 20
81 80 80 76 69 72 73 72 76 78 77 79 92 91 82 85 93 90 92 97 95 93 94 92 90 85 94 88 81 83 84 74 72 70 65 57 44 30 26 25 28 28 25 22
77 82 81 80 76 79 76 77 81 84 84 84 84 91 99 99 97 98 98 98 99 98 99 99 93 88 87 92 84 84 88 85 76 74 70 57 36 29 26 25 28 29 28 26
61 65 72 69 78 80 79 81 81 85 89 91 96 98 99 99 100 99 98 98 99 98 98 100 99 98 94 89 92 83 88 90 82 76 74 64 43 32 28 26 27 29 30 28

GFSCGP_700_rhum_072.txt.gz
RH
85 99 87 50 65 76 67 78 90 93 80 69 65 66 95 85 99 82 72 66 63 58 55 50 49 47 44 42 41 38 36 30 28 25 26 24 23 29 30 32 34 32 31 30
100 97 93 59 76 74 75 77 75 78 76 77 71 84 94 98 93 88 80 65 60 57 53 50 49 47 44 41 39 36 34 32 30 28 26 24 22 22 21 20 21 20 18 16
100 98 97 67 89 81 84 66 70 72 86 81 77 91 85 79 79 82 70 61 62 62 59 54 52 52 52 42 37 36 36 34 32 31 28 26 24 22 20 19 18 16 15 15
99 98 94 72 90 94 85 76 76 81 83 93 85 86 78 55 54 50 61 54 49 47 54 54 50 48 45 35 35 35 34 31 28 25 20 18 18 17 18 17 17 16 16 16
94 96 100 92 88 86 93 88 81 83 83 80 84 81 60 60 58 31 32 45 50 47 48 49 41 39 37 34 32 31 30 27 24 20 17 16 16 14 13 13 13 14 14 15
97 98 98 83 98 93 79 92 87 93 86 87 74 73 59 55 40 32 30 36 43 48 48 48 49 43 38 32 30 29 28 25 22 18 15 14 14 13 14 14 15 15 16 19
98 99 96 80 88 90 81 82 97 98 95 91 70 66 59 53 48 42 36 31 30 42 49 46 45 49 42 31 30 31 28 23 18 15 14 13 14 15 16 17 18 20 21 21
98 98 97 82 92 87 88 83 74 88 96 85 67 78 56 39 33 34 35 35 37 37 43 46 50 41 37 36 31 29 27 22 19 18 17 18 19 21 22 23 23 22 20 18
95 100 98 92 80 79 94 96 78 65 79 80 65 61 50 38 37 35 32 29 30 31 35 38 36 34 35 34 37 30 28 26 27 28 27 27 25 24 23 22 21 20 20 21
82 98 97 99 84 78 85 83 89 78 84 90 67 58 40 36 38 40 34 36 29 31 31 32 35 39 42 41 37 36 36 35 33 31 29 27 24 22 21 21 22 24 28 31
74 75 100 98 96 86 81 86 85 80 69 77 76 51 41 42 38 32 33 36 36 35 39 40 45 44 37 36 36 36 36 34 31 29 27 25 23 22 22 24 29 34 36 37
73 83 99 100 98 90 96 80 82 75 84 77 66 57 43 43 35 30 34 35 42 51 48 44 41 40 39 40 39 37 36 35 33 31 30 30 31 33 35 36 37 37 38 37
73 82 97 100 98 93 92 97 95 95 82 77 76 61 40 45 41 44 43 42 50 52 52 50 51 49 46 42 41 40 39 41 44 47 46 44 43 42 43 41 34 30 25 20
82 76 71 76 65 75 86 85 91 98 100 93 79 68 59 53 49 51 50 49 48 55 58 61 59 55 49 46 46 52 57 54 50 47 46 48 46 49 47 35 26 23 23 24
83 78 82 79 75 71 72 72 85 98 95 94 80 74 58 56 58 56 57 60 51 48 61 58 59 61 54 56 69 66 60 55 51 49 48 49 47 54 40 30 26 28 36 36
84 77 71 93 90 75 79 85 91 96 100 99 93 83 67 69 69 64 61 61 51 49 59 59 58 57 64 74 73 68 60 55 52 50 53 52 45 42 33 31 34 42 43 39
82 79 75 64 64 70 64 46 51 57 64 59 93 42 67 68 72 72 65 59 42 57 58 61 56 58 78 76 74 69 63 57 54 53 54 58 50 38 37 50 50 48 48 45
74 74 75 68 70 83 45 42 40 42 40 43 46 50 53 51 65 74 65 51 49 57 62 61 54 60 78 80 79 70 63 56 58 61 62 63 56 53 59 56 54 54 53 54
82 83 75 71 86 53 37 39 44 50 40 47 43 45 37 39 48 68 75 61 55 58 60 55 56 65 81 86 78 72 63 61 64 65 64 65 66 66 66 63 63 60 58 54
97 90 89 84 85 78 56 75 70 70 57 69 64 56 47 54 44 34 56 59 58 62 60 59 58 66 88 88 80 75 64 64 63 62 62 61 63 66 67 64 64 59 55 53
88 91 94 97 92 67 53 54 59 77 67 79 68 66 57 42 41 60 61 62 63 62 61 61 63 87 96 90 86 80 70 68 66 63 59 58 60 63 68 70 64 58 48 35
75 82 84 90 92 84 68 68 68 70 77 75 74 70 62 53 58 67 74 72 70 68 76 92 93 98 97 94 93 86 80 71 70 67 62 60 60 62 67 66 51 38 28 25
82 73 74 74 67 65 68 77 80 78 75 74 84 84 77 75 74 76 76 77 87 98 99 97 97 96 96 97 96 87 76 78 73 71 67 63 62 63 66 52 30 27 28 25
77 79 80 77 65 67 74 75 78 80 78 77 74 89 84 83 89 98 98 100 100 100 99 98 95 92 91 91 96 92 84 83 81 76 72 67 60 55 45 32 26 27 28 27
78 82 80 75 70 76 74 76 77 78 82 81 85 93 100 98 100 99 100 96 96 97 99 99 98 98 98 96 96 96 91 85 87 83 76 74 66 49 35 29 26 26 28 29
70 72 69 65 70 72 74 77 85 83 88 90 91 97 100 98 99 99 98 98 97 97 98 98 99 99 99 97 95 94 93 84 87 91 82 78 74 59 38 32 28 26 27 29

GFSCGP_700_rhum_075.txt.gz
RH
100 98 97 79 74 79 75 96 98 96 87 92 85 82 81 72 70 85 89 93 85 62 73 61 53 45 42 40 37 36 35 34 32 29 27 25 24 26 27 28 33 36 36 36
95 98 98 85 73 73 74 86 95 94 81 78 72 70 85 74 68 65 94 86 81 74 68 66 61 56 51 47 45 43 41 39 36 32 29 28 27 25 23 23 23 22 22 23
100 85 94 84 92 91 81 70 78 72 79 89 84 76 63 67 69 69 84 76 69 64 64 62 58 55 52 50 47 44 39 35 33 32 31 30 29 27 26 25 23 21 20 18
98 98 98 92 86 85 83 71 57 63 74 95 90 82 56 52 53 59 97 75 67 64 64 62 61 57 53 51 51 50 48 35 32 33 33 31 28 24 20 17 16 16 16 16
98 88 97 87 79 88 79 74 81 79 84 83 87 83 64 52 48 45 60 73 60 58 56 54 54 56 57 54 46 42 38 37 35 34 31 27 23 19 17 16 14 13 13 12
96 95 99 70 92 82 76 90 88 88 81 90 79 84 65 59 40 41 46 57 83 55 55 56 50 48 44 40 39 37 34 33 32 30 28 25 22 19 16 14 13 12 13 13
94 86 98 94 94 92 93 86 95 94 97 86 74 80 71 55 54 51 47 45 42 58 53 52 54 54 52 49 45 45 36 30 28 27 24 20 16 14 13 13 14 15 17 18
94 99 98 95 96 83 93 81 71 87 92 82 75 77 53 43 40 42 40 41 40 32 38 46 50 54 54 53 51 51 41 34 27 24 22 20 16 14 15 16 18 20 21 21
83 98 100 83 96 88 85 80 70 70 80 79 65 65 39 35 38 39 39 39 36 37 40 35 36 42 49 52 54 46 38 33 30 26 23 20 19 19 19 20 21 21 20 19
98 98 100 100 95 89 84 75 81 74 83 82 66 54 36 39 41 38 33 30 36 35 32 32 39 46 49 52 47 41 37 36 31 28 28 28 27 25 24 22 21 19 18 17
91 88 99 91 96 89 91 87 87 74 73 70 72 48 42 42 40 32 31 33 31 36 35 37 37 42 46 46 47 46 40 36 34 32 31 30 28 25 24 22 21 20 21 23
92 83 99 100 88 95 87 81 86 77 84 79 70 57 41 46 42 44 45 36 38 38 42 45 49 50 52 51 45 41 40 38 36 33 30 27 26 25 25 26 28 31 34 36
72 89 93 94 96 98 99 91 83 84 75 71 74 60 48 51 44 49 52 47 44 47 50 52 57 55 50 44 42 42 42 41 38 36 34 34 36 39 40 40 41 42 41 34
77 72 64 68 59 66 79 73 85 87 90 83 75 64 44 41 42 48 52 56 55 47 48 54 54 54 54 51 49 48 47 45 52 55 52 48 45 43 44 43 46 45 34 25
86 79 74 76 76 72 69 68 72 74 77 91 67 63 41 38 49 58 58 58 61 61 54 50 59 58 55 52 53 53 63 67 63 57 53 49 47 45 46 46 47 36 27 28
90 82 74 69 82 82 84 73 70 73 77 75 76 55 52 50 56 67 73 66 66 65 59 63 64 58 57 56 54 70 76 70 64 59 52 50 50 49 48 45 38 31 32 43
84 83 78 70 65 72 67 48 52 51 51 64 94 39 61 56 63 68 76 82 69 67 52 66 62 58 57 57 74 77 76 74 66 60 54 54 55 55 53 43 38 43 51 50
75 78 83 70 69 81 44 46 45 41 40 48 44 36 39 41 46 58 66 66 66 52 57 65 61 64 57 61 77 78 77 73 67 60 59 62 66 67 61 52 57 60 57 55
77 83 76 72 79 55 43 40 43 45 42 51 47 50 48 43 39 29 46 76 64 52 57 61 62 59 57 59 77 82 78 72 65 62 64 64 65 67 72 68 68 67 66 63
90 90 87 84 84 75 48 61 70 69 64 78 73 78 68 57 41 30 38 65 76 61 57 60 61 58 60 55 82 88 80 76 67 68 67 65 62 62 68 70 71 70 67 63
86 99 92 86 85 75 57 59 58 68 66 82 74 66 59 56 51 53 41 53 62 68 62 64 62 61 60 65 93 93 89 81 74 70 68 64 60 62 68 73 75 70 66 62
70 78 87 96 97 85 67 71 68 68 73 70 66 62 67 60 50 50 59 67 67 67 68 67 66 63 77 90 98 97 94 81 76 72 69 66 63 64 68 71 70 66 64 50
80 73 72 72 65 63 64 68 76 76 73 75 73 75 84 72 67 70 74 78 76 72 73 74 90 98 100 97 99 98 97 85 75 74 72 70 65 65 66 66 63 48 35 27
78 79 80 77 66 68 71 73 76 81 80 81 79 68 96 85 83 85 87 86 95 96 95 95 99 97 97 97 99 99 97 89 83 79 79 76 70 66 67 68 52 32 27 27
87 86 82 76 67 71 67 75 77 76 76 83 83 83 98 99 100 98 96 99 98 97 97 94 95 99 98 99 98 96 97 97 94 86 83 83 79 73 64 53 38 28 26 27
71 76 79 72 72 74 73 73 75 81 86 87 93 95 100 97 99 98 98 98 98 98 98 97 99 99 97 98 98 98 98 97 96 96 91 88 86 84 75 56 38 31 27 27

GFSCGP_700_rhum_078.txt.gz
RH
98 97 96 96 81 67 85 87 92 97 92 87 96 97 74 64 68 77 79 73 86 76 71 63 60 62 66 66 60 58 52 47 40 34 30 28 26 27 26 26 27 30 32 34
98 96 94 98 97 84 82 83 79 96 83 94 92 69 64 62 64 71 70 78 78 81 75 60 56 56 56 52 46 42 41 42 41 39 37 34 30 27 26 26 25 24 23 24
97 97 96 86 85 81 79 72 79 78 86 100 98 87 67 49 52 46 61 68 76 80 74 66 56 62 64 55 50 47 45 43 40 38 35 32 30 28 28 28 27 26 26 24
92 99 100 94 91 77 87 84 84 72 84 70 88 47 67 69 45 46 38 54 58 82 82 76 70 64 58 55 52 49 47 46 41 37 34 31 30 30 29 28 27 24 20 16
94 91 94 91 95 86 75 63 80 78 67 78 85 74 51 56 52 49 57 59 74 78 75 68 63 60 59 55 54 51 49 48 44 41 34 32 32 31 29 26 23 20 17 15
98 94 98 98 85 78 60 74 87 84 76 71 64 68 48 62 62 60 44 51 79 80 72 66 63 60 57 55 56 55 52 46 40 38 37 34 32 29 27 24 22 18 15 13
99 96 98 89 97 96 83 79 86 86 85 60 71 76 54 57 58 53 47 44 70 84 72 66 62 58 52 47 48 45 42 41 39 37 35 32 30 28 24 20 17 14 13 13
98 98 96 92 85 89 87 68 62 61 62 49 73 63 52 46 38 40 49 49 41 55 84 67 60 50 48 52 54 51 48 48 50 49 38 33 28 24 21 19 15 14 14 15
85 97 96 88 94 94 92 88 65 68 71 62 56 57 42 37 36 39 42 48 48 47 44 66 56 51 47 46 56 57 55 53 51 50 39 34 28 24 22 20 19 19 19 20
83 98 98 93 96 94 91 85 73 67 74 57 50 50 33 42 37 36 35 33 39 43 48 47 55 48 45 51 52 56 56 55 54 44 37 33 28 25 24 24 24 23 22 21
87 90 99 92 96 92 87 88 80 71 66 46 41 34 44 46 42 42 39 35 36 36 39 38 37 37 36 44 50 55 57 55 47 42 38 34 31 29 28 26 24 22 21 20
87 86 99 99 93 91 93 91 81 70 72 73 60 39 42 42 48 44 44 44 42 38 36 37 37 37 49 62 64 62 53 45 43 37 34 32 31 29 27 26 24 23 24 25
88 93 97 98 92 86 94 88 80 87 78 87 58 41 39 36 45 42 42 41 47 48 42 38 40 42 54 66 65 59 51 43 39 37 36 35 33 32 30 32 35 38 40 40
77 72 76 69 64 73 80 64 71 75 91 72 68 53 48 43 44 45 46 39 43 50 55 47 50 53 56 54 52 50 49 47 44 42 40 42 47 46 45 43 42 42 42 44
81 79 71 69 68 63 62 65 66 71 66 80 64 60 62 43 40 38 36 43 55 51 60 60 52 55 56 56 53 50 49 46 46 49 57 58 54 51 48 45 45 46 47 48
88 82 76 72 73 78 77 74 70 69 68 90 88 76 64 48 55 46 49 58 66 69 68 67 62 60 62 60 58 55 51 51 60 67 64 58 55 52 50 49 50 50 45 37
84 82 79 81 70 73 73 50 61 60 54 52 77 41 50 54 63 64 60 64 60 73 69 67 61 64 66 62 61 58 65 73 74 73 68 62 56 53 55 54 55 54 43 38
83 79 83 80 72 76 51 43 45 45 41 40 34 34 39 37 37 48 58 60 62 63 64 61 57 71 62 60 58 61 77 79 80 75 72 64 58 58 59 62 63 59 51 55
78 80 79 81 77 61 44 46 47 43 44 43 39 42 46 46 34 24 31 34 46 61 66 52 61 71 64 65 59 58 75 82 83 77 71 66 65 62 62 64 70 70 71 72
87 88 86 82 80 57 45 54 61 60 68 62 69 71 68 63 48 47 42 29 48 69 55 52 61 63 64 62 58 54 66 89 85 79 73 70 67 65 61 63 69 74 75 74
92 99 97 88 82 76 58 60 59 66 67 68 69 65 60 53 48 48 48 43 34 72 73 60 63 64 65 61 61 56 69 93 88 82 76 70 68 66 62 64 72 76 73 71
68 82 92 96 91 80 57 64 64 64 64 69 70 65 64 66 60 52 53 52 50 55 77 69 66 66 66 63 62 66 88 96 94 78 76 78 70 67 63 65 71 76 71 67
82 73 80 70 71 60 60 61 64 67 71 71 71 70 70 80 72 64 69 72 73 71 70 70 70 71 71 72 90 97 96 98 98 89 85 84 74 69 66 67 69 69 68 64
78 78 81 76 63 65 68 71 70 76 78 82 80 80 80 93 85 87 88 86 85 85 83 82 78 80 87 99 100 98 99 98 99 95 84 81 78 73 68 70 72 68 52 37
84 88 89 82 73 86 71 68 67 71 74 77 84 90 91 86 97 96 98 98 97 92 97 100 98 94 95 97 99 99 99 98 98 98 97 94 86 82 77 72 72 67 45 30
70 77 88 84 80 83 75 73 72 72 74 78 84 93 97 97 94 97 98 98 98 98 99 99 100 99 100 100 100 100 99 98 98 98 97 98 97 94 87 84 76 63 44 32

GFSCGP_700_rhum_081.txt.gz
RH
97 94 98 89 67 49 49 50 46 50 90 96 90 90 85 83 78 70 71 80 81 86 78 71 67 74 68 68 69 60 49 46 43 42 43 43 43 43 41 39 35 34 32 30
96 96 98 86 70 79 61 76 77 77 85 85 75 72 75 78 53 57 72 80 79 79 86 76 76 76 75 70 66 62 58 57 54 52 47 41 36 31 28 30 27 26 26 26
94 91 97 99 82 83 70 63 69 70 86 91 69 65 72 76 77 76 64 64 73 78 83 81 73 69 74 74 74 69 60 49 48 42 41 41 39 36 34 31 28 27 28 27
92 96 88 91 73 59 64 61 66 75 86 72 74 38 46 62 69 53 45 47 49 62 80 85 79 72 63 61 60 56 48 47 46 45 41 38 36 34 31 30 29 29 29 28
88 94 93 91 78 73 60 67 67 71 69 51 66 60 41 54 57 64 58 70 78 74 65 74 85 74 68 57 58 55 52 49 48 48 47 44 40 35 31 31 32 31 28 26
91 97 98 98 85 93 71 82 75 69 61 63 56 54 35 43 53 54 60 66 56 77 55 58 71 82 76 67 58 54 53 51 50 50 49 46 41 37 36 35 32 29 27 25
99 98 93 95 84 74 78 71 71 73 77 55 53 48 42 49 50 51 54 62 64 72 59 91 76 73 73 67 59 56 54 52 51 50 48 42 39 36 34 31 29 27 24 20
97 96 98 99 94 90 70 60 53 54 52 42 62 52 45 49 49 37 40 47 52 64 67 100 82 77 70 64 61 58 57 54 50 44 42 40 40 39 32 30 26 22 21 18
96 98 92 98 92 89 82 67 72 63 56 48 48 46 45 43 38 37 35 40 44 40 60 83 94 75 67 64 60 53 48 48 48 45 47 50 49 48 40 34 28 21 19 18
98 95 94 98 85 86 92 81 60 68 65 44 41 38 31 39 46 36 34 34 35 38 44 57 86 87 63 58 54 52 51 53 55 57 56 54 50 46 37 31 27 23 21 20
98 92 99 97 88 93 86 93 79 68 60 43 31 29 34 47 44 41 38 34 32 32 36 40 45 47 76 81 84 66 55 55 57 59 58 54 51 42 35 31 28 25 24 23
82 98 99 98 100 90 99 79 74 71 61 54 55 38 35 39 36 42 40 40 39 38 36 37 40 42 44 68 68 75 71 52 55 58 57 52 43 39 33 29 28 26 25 24
90 97 96 97 97 91 84 90 86 72 70 74 52 36 43 39 38 39 36 37 35 37 44 44 42 37 37 39 40 47 56 54 52 59 52 46 39 37 35 32 30 28 29 30
87 92 86 72 74 77 86 84 87 89 90 68 62 51 46 42 39 35 45 47 38 38 34 44 42 42 39 41 49 66 69 66 62 54 44 40 39 36 35 37 40 43 44 43
83 88 77 66 65 57 65 77 86 95 76 76 61 54 50 50 51 52 55 52 49 41 37 47 50 47 48 53 58 61 56 50 46 45 44 42 43 48 50 51 50 48 46 46
87 90 77 74 73 68 68 67 66 85 89 92 85 75 67 58 66 67 69 56 58 46 44 52 56 57 52 52 54 55 54 53 52 48 48 52 60 62 59 56 52 48 47 48
96 97 81 76 71 78 73 45 50 66 83 81 86 80 76 74 75 80 70 73 73 56 66 68 65 63 62 60 61 61 60 57 56 61 68 74 72 69 65 59 54 52 53 52
93 91 89 79 78 71 53 48 43 50 70 77 73 47 53 44 45 34 32 42 54 54 62 69 67 69 64 70 68 62 56 56 60 70 76 76 72 68 62 57 59 63 66 63
71 83 77 75 64 57 53 46 42 43 41 44 38 42 45 43 39 38 42 39 40 60 62 59 64 71 66 71 71 61 60 56 61 75 82 79 73 67 63 62 62 61 66 72
77 77 84 82 70 58 57 43 50 50 53 50 48 57 62 64 53 66 44 46 35 31 44 59 69 65 55 70 64 62 63 57 53 64 84 81 75 70 67 66 65 63 65 73
97 98 94 83 81 66 66 59 57 66 71 66 58 58 56 51 48 43 44 44 46 34 58 61 57 61 66 67 64 68 62 61 56 65 91 86 79 73 69 66 62 61 67 75
76 75 75 76 76 75 57 58 64 71 68 62 66 66 66 65 66 63 57 55 58 51 49 76 64 66 71 66 67 68 65 62 63 81 98 91 77 78 77 70 62 66 74 77
81 70 65 70 67 71 60 60 65 64 61 65 66 68 68 67 74 76 68 69 70 65 62 72 80 75 72 70 71 71 68 72 85 95 100 97 86 85 88 83 65 67 73 74
77 68 72 75 62 65 66 68 71 75 74 73 73 74 73 73 82 84 84 81 83 84 82 80 79 77 75 74 74 72 66 73 98 100 99 97 87 80 81 81 81 70 71 70
90 88 77 76 73 77 70 71 69 68 66 68 73 76 80 85 81 85 95 96 92 93 90 85 90 88 85 84 83 89 99 100 100 99 98 98 97 94 93 84 79 81 88 74
71 75 98 96 94 96 90 84 77 72 70 74 74 74 86 95 96 88 93 93 95 97 96 98 98 99 96 95 99 100 100 100 100 100 99 99 98 98 97 95 95 88 80 75

GFSCGP_700_rhum_084.txt.gz
RH
98 95 90 95 70 74 69 61 66 72 70 88 86 74 87 75 86 77 78 66 60 76 72 70 61 64 66 64 63 66 62 62 55 55 55 53 46 43 42 43 42 40 38 33
98 97 99 98 88 66 64 58 73 65 74 75 68 87 74 70 78 59 60 67 64 64 80 71 66 63 70 66 70 73 75 68 62 53 52 52 47 45 44 44 40 32 30 27
98 99 84 89 94 91 75 61 94 88 93 83 73 73 72 70 73 65 44 48 58 66 78 77 72 65 65 66 68 71 74 68 67 72 63 54 54 57 42 42 33 32 31 30
97 97 88 88 81 74 78 59 66 72 66 66 69 57 50 42 46 43 40 40 52 66 73 80 70 76 70 69 70 70 68 68 66 65 68 62 57 54 41 38 35 33 32 31
96 95 99 98 96 86 78 64 67 68 69 71 68 68 43 48 56 54 44 41 44 73 71 74 74 65 75 68 69 76 76 73 66 54 55 50 45 42 41 39 36 32 30 31
98 81 71 79 91 82 96 76 75 71 66 68 60 62 43 48 50 52 55 54 48 49 58 72 75 69 65 71 73 67 67 65 52 50 49 48 49 48 46 42 39 35 34 33
92 89 74 87 84 72 75 68 74 82 84 78 51 53 54 48 40 40 50 56 60 56 43 68 77 78 62 69 77 76 65 63 53 52 51 51 50 50 47 42 38 35 32 29
89 95 88 87 90 79 79 55 62 65 77 62 52 51 44 41 45 47 46 39 50 64 65 70 71 75 76 69 65 82 75 60 56 54 53 52 50 48 45 40 38 38 32 30
86 97 100 84 87 79 74 71 70 65 51 60 56 46 47 46 38 36 29 30 37 49 67 71 75 87 72 71 77 72 74 64 59 57 55 55 50 45 43 46 47 44 40 34
91 85 95 95 84 80 78 79 62 59 73 48 49 42 39 42 41 37 35 33 33 38 44 55 58 62 66 84 79 72 71 64 61 58 52 51 53 57 52 53 46 42 41 34
88 87 94 97 92 85 85 88 75 62 59 70 56 40 35 40 42 38 34 33 32 32 32 40 47 51 65 87 85 74 76 75 58 55 58 64 70 57 55 50 46 43 38 33
85 83 93 92 76 79 77 81 76 71 67 55 54 49 44 40 36 39 41 39 36 33 33 34 40 45 48 70 78 69 92 92 88 74 74 67 66 59 54 49 44 36 33 30
94 88 84 90 86 77 88 79 83 77 71 68 69 44 46 42 38 38 38 40 39 36 35 38 37 35 42 45 43 45 74 91 82 80 86 90 88 61 53 45 37 32 30 29
83 89 80 86 84 83 82 70 72 82 85 76 68 48 47 46 45 44 40 51 44 39 39 43 35 40 40 38 36 37 41 45 50 61 67 71 69 59 48 40 34 34 34 34
82 83 86 80 71 68 74 68 83 84 75 87 63 66 53 53 51 54 56 58 55 53 42 45 38 45 42 42 44 42 41 46 61 68 68 62 53 45 41 39 41 48 51 50
84 90 80 73 70 69 65 64 62 71 77 88 77 69 44 45 51 54 58 59 66 63 53 41 34 37 50 45 41 48 52 57 60 56 53 51 49 47 46 51 59 59 56 53
93 88 83 83 79 70 65 46 45 48 57 61 83 58 54 68 72 76 73 62 46 52 50 51 44 49 58 55 55 54 56 58 57 57 56 54 52 53 61 64 63 61 58 54
92 93 93 84 78 85 51 53 52 49 47 54 69 70 62 49 48 32 35 41 35 38 40 60 58 61 65 61 61 62 65 64 62 60 56 57 66 74 77 74 68 64 60 60
90 89 87 79 75 63 51 55 53 48 37 43 41 50 51 44 40 38 40 41 42 35 37 57 63 62 66 70 69 67 69 69 64 58 55 60 72 79 78 72 68 63 62 61
71 75 82 82 82 70 56 57 54 46 44 54 60 55 61 64 57 54 56 49 43 43 40 34 64 70 70 65 69 72 72 70 64 60 55 51 55 76 79 75 70 65 64 62
79 84 82 84 88 78 65 63 63 63 71 75 69 58 56 58 61 54 52 41 38 43 47 41 58 62 66 71 72 76 78 71 72 64 60 57 59 84 84 76 76 78 73 61
82 84 81 81 88 86 66 65 58 69 75 72 68 70 66 64 64 62 65 63 53 51 55 46 69 65 63 69 81 83 75 72 71 66 63 61 65 89 89 74 74 72 66 63
72 68 65 68 69 75 71 73 66 66 67 71 71 72 74 75 74 72 80 76 74 69 63 57 63 79 77 86 87 78 72 75 72 69 70 76 94 96 97 85 76 87 80 65
86 85 79 72 60 72 72 76 74 75 83 79 76 75 76 75 79 83 85 90 88 89 86 82 81 86 88 92 86 81 81 77 76 77 78 97 100 98 99 87 81 78 81 77
76 81 92 94 87 87 91 96 93 92 92 87 84 77 78 80 84 91 91 98 96 96 96 100 97 94 92 91 92 89 84 81 88 99 100 100 98 99 98 97 94 90 82 82
86 100 100 99 98 99 91 97 97 92 94 89 84 82 85 85 91 98 94 93 95 98 98 99 99 98 92 94 90 92 93 100 100 100 100 100 99 100 98 98 98 99 99 94

GFSCGP_700_rhum_087.txt.gz
RH
98 96 93 97 73 86 75 55 76 75 68 94 98 100 96 97 81 71 69 78 70 62 65 68 64 61 58 60 52 52 55 62 55 55 58 59 66 66 57 45 46 38 35 34
99 96 90 99 91 88 72 70 74 71 72 71 80 84 89 81 76 77 62 58 66 62 46 58 68 68 57 56 58 62 63 61 61 64 60 67 67 65 64 63 61 48 46 37
99 93 92 93 84 90 74 74 69 79 91 88 74 69 67 70 64 62 59 58 59 60 59 50 59 65 63 65 65 64 65 65 70 76 67 61 66 67 61 60 58 54 41 34
98 99 97 94 77 73 77 71 52 62 80 96 95 79 54 39 46 49 49 42 42 53 68 59 54 56 63 68 71 65 64 71 78 78 65 82 88 76 73 74 85 79 64 53
99 99 90 87 82 85 67 66 66 94 92 93 90 68 35 47 53 45 22 20 27 42 58 64 58 52 53 65 63 72 64 67 76 82 80 75 77 77 68 62 62 50 41 38
95 88 90 98 95 91 76 87 79 93 80 70 70 63 36 46 44 42 40 40 33 33 40 50 68 75 64 55 64 69 66 63 80 75 76 73 68 59 49 48 49 46 43 40
93 98 100 91 90 94 92 77 94 87 80 78 58 68 49 47 51 52 42 49 58 58 45 40 60 72 75 69 60 65 68 64 68 82 76 59 52 51 51 50 49 48 45 40
79 73 85 84 88 93 91 70 62 83 90 66 56 56 44 48 48 47 47 47 50 50 42 40 45 64 71 73 72 71 67 72 72 73 73 54 54 54 52 52 50 48 43 41
83 98 78 88 76 77 78 74 70 65 57 62 49 41 43 45 45 45 44 44 27 31 41 48 56 63 57 72 78 77 70 72 82 88 72 56 57 58 57 56 52 45 48 50
87 96 98 80 70 75 75 76 64 58 68 58 62 50 38 48 45 43 32 28 30 32 38 52 61 57 62 61 68 84 84 84 78 95 91 72 70 80 62 54 51 60 68 69
90 82 98 83 76 70 71 77 68 65 62 71 62 44 38 41 38 34 33 32 30 31 31 41 50 49 60 64 81 94 98 85 91 96 95 92 96 80 83 75 71 69 66 56
84 81 98 93 83 79 75 75 76 68 64 59 57 49 46 41 39 34 35 38 39 37 32 33 35 37 45 52 57 75 99 85 70 69 80 84 91 74 69 66 67 68 66 52
79 81 94 97 84 73 71 68 77 79 72 68 71 45 45 46 40 38 41 42 40 38 38 36 36 38 38 43 48 51 73 95 87 75 88 91 98 94 88 90 94 88 80 70
75 73 80 72 78 77 74 60 71 89 79 65 63 50 50 46 47 53 52 55 54 49 38 37 39 42 36 38 41 45 46 47 46 55 81 95 89 90 96 77 72 69 54 47
80 77 75 86 82 76 85 74 70 80 70 80 53 58 46 47 50 55 59 64 68 60 49 41 35 45 44 42 41 38 38 41 45 46 54 68 82 82 79 74 60 50 46 44
84 87 81 73 73 69 68 64 61 59 62 81 67 64 46 50 51 58 60 61 62 63 64 54 45 41 38 40 39 45 42 50 56 67 77 80 80 72 61 54 53 50 49 53
95 94 91 82 82 80 69 49 52 52 54 57 68 42 53 59 67 67 54 53 56 56 54 57 52 41 37 34 42 55 51 54 59 63 63 61 60 57 55 53 56 66 66 65
90 86 88 84 80 87 55 55 54 53 48 48 58 53 53 73 77 71 58 56 46 38 34 32 32 34 45 46 58 61 60 60 62 62 63 63 61 56 55 64 72 74 71 66
80 85 83 82 82 66 50 55 55 52 44 39 46 54 65 76 72 65 46 46 47 47 43 39 34 39 53 68 71 73 72 69 71 72 70 66 59 58 62 72 77 77 72 68
69 75 87 85 86 81 65 64 67 65 56 56 64 67 61 56 53 49 52 50 48 48 42 38 46 42 57 64 71 74 77 79 78 79 74 68 62 58 54 57 75 79 76 73
71 74 79 84 92 78 67 68 69 65 65 78 74 70 65 65 67 62 60 59 57 52 44 40 43 44 50 76 63 64 74 82 87 84 74 74 67 63 61 62 81 84 74 73
72 75 76 83 86 85 76 78 75 71 66 65 69 70 68 70 71 73 69 67 72 67 60 53 53 47 56 64 69 79 85 89 89 81 80 76 68 67 71 74 81 93 85 82
71 71 69 77 79 81 82 86 96 84 84 84 87 80 83 80 75 71 71 73 75 79 74 68 62 64 80 82 90 94 94 94 88 76 78 76 73 76 72 62 72 98 86 76
84 84 85 83 74 75 78 86 88 82 84 94 94 91 90 84 77 76 79 86 84 84 88 89 83 78 88 92 99 99 98 93 81 80 80 77 82 80 95 96 93 100 90 88
77 76 85 81 80 72 80 85 96 96 99 98 92 97 96 95 93 90 84 95 90 89 86 91 97 98 98 98 98 99 98 95 91 89 90 94 93 100 100 100 100 100 97 94
78 84 70 77 67 82 45 67 70 78 84 96 97 97 96 91 97 97 94 97 96 95 88 96 95 90 90 96 97 98 92 92 94 99 99 100 99 99 99 98 100 99 98 97

GFSCGP_700_rhum_090.txt.gz
RH
95 88 81 95 98 82 75 78 76 77 82 88 87 92 93 96 88 86 91 71 54 50 49 54 57 56 52 55 66 66 66 61 54 58 58 66 58 55 64 61 50 43 40 43
93 67 92 97 99 93 83 63 76 84 74 72 80 93 100 94 87 70 87 78 64 51 48 46 56 55 52 49 53 60 62 60 62 67 65 59 56 61 74 82 68 48 46 43
94 73 88 98 99 91 78 60 66 88 99 94 74 74 72 91 90 80 90 75 72 62 51 50 51 57 62 60 56 57 61 61 62 62 62 54 58 65 78 71 66 70 67 68
86 82 79 98 94 74 83 68 69 77 91 99 92 90 66 60 76 91 61 56 51 60 65 56 54 56 69 66 61 59 64 66 65 66 63 66 67 66 73 84 90 81 78 64
99 92 97 100 88 77 68 75 73 73 88 99 99 92 60 48 57 55 54 48 47 54 56 52 50 49 51 55 67 66 61 63 70 74 76 74 81 79 75 78 84 93 91 87
99 99 99 91 84 73 77 86 92 84 99 95 76 90 41 46 33 28 34 37 41 44 36 47 50 52 61 64 63 64 71 64 66 69 72 74 82 83 82 82 83 81 65 56
100 94 100 79 81 89 72 79 98 98 97 77 68 83 46 41 43 42 46 42 38 33 29 34 39 46 49 63 70 71 63 68 75 73 76 80 81 82 85 84 72 60 55 52
95 98 97 99 90 98 87 86 70 90 89 68 70 70 46 50 49 50 45 44 40 44 38 31 30 32 34 45 69 76 72 67 69 77 83 80 93 100 92 94 75 64 59 56
66 95 95 98 98 96 87 87 68 59 63 60 56 50 44 48 47 45 46 45 42 39 24 26 31 40 43 64 76 76 75 72 70 70 70 85 92 99 88 78 62 62 59 55
66 79 83 84 93 90 75 67 60 58 70 64 65 54 38 40 40 42 41 39 37 32 24 24 31 49 60 60 68 72 75 75 75 77 79 85 95 98 96 89 90 77 62 54
71 67 78 76 73 78 78 69 64 63 63 65 68 51 42 41 41 42 37 37 30 30 30 31 33 49 64 68 70 64 69 73 85 93 89 86 96 96 99 97 94 95 90 88
88 83 97 83 79 69 70 71 69 59 64 62 62 48 40 42 44 38 34 35 34 35 37 34 31 35 42 53 53 51 60 74 88 99 80 80 86 95 98 99 93 98 97 86
78 86 93 79 80 77 71 67 72 68 78 74 69 46 47 47 44 39 43 45 46 44 40 40 36 35 36 36 40 47 54 67 82 100 95 88 88 95 95 87 99 96 97 88
71 74 73 80 80 78 69 60 66 79 83 68 64 46 47 48 48 49 55 55 55 49 46 41 37 36 37 40 38 39 42 48 57 82 100 96 95 94 95 99 92 100 97 73
76 76 78 80 81 81 74 81 65 63 65 81 50 61 51 54 54 52 59 63 61 60 55 50 48 45 42 43 45 41 42 43 45 48 59 76 72 87 100 100 100 91 76 75
79 78 73 69 71 74 71 66 66 73 73 74 62 55 49 49 55 54 55 56 57 61 62 60 60 56 52 49 43 41 37 43 45 47 49 55 59 68 74 79 79 75 63 56
79 74 70 72 78 76 64 59 60 58 57 56 56 50 51 53 56 56 55 59 60 63 69 60 54 50 46 42 43 40 44 51 47 48 54 63 73 77 78 69 62 61 62 68
81 83 82 83 81 86 60 58 52 55 54 50 43 40 41 47 49 61 73 74 70 55 45 45 39 33 29 31 38 45 56 61 56 55 61 65 66 67 69 66 61 66 74 80
91 92 80 83 84 65 58 61 60 59 48 43 47 45 47 51 53 57 62 58 52 43 39 38 37 36 34 34 38 62 72 71 68 65 67 68 71 70 67 62 63 67 68 71
80 94 94 87 86 82 60 61 62 65 56 59 72 76 70 67 62 57 55 52 49 45 42 37 36 36 36 40 42 69 78 84 83 79 80 81 78 73 66 62 60 58 59 73
70 73 80 89 88 76 62 70 71 72 61 64 65 61 60 62 62 57 54 55 54 51 50 48 39 32 34 40 46 55 78 81 86 91 94 89 85 78 74 69 64 63 62 71
70 67 73 86 89 81 80 80 83 80 77 81 76 72 81 83 76 74 74 65 62 59 56 56 54 43 42 50 49 58 76 80 97 93 96 98 96 87 81 74 69 69 72 77
75 73 74 77 79 84 83 85 86 90 86 79 84 88 92 83 84 81 76 71 72 73 69 64 68 60 55 60 71 75 75 98 100 99 99 98 97 94 84 76 74 78 68 71
72 76 79 77 75 77 80 85 90 95 98 99 99 97 99 98 87 88 91 72 78 87 83 82 84 82 72 71 83 85 98 100 99 98 98 97 97 93 85 87 87 89 91 95
73 75 76 77 77 67 64 57 52 43 49 54 62 76 88 94 95 98 98 93 87 97 95 93 92 89 94 89 92 94 96 98 98 98 96 98 95 92 93 93 87 99 100 100
45 46 38 31 29 24 22 28 29 27 40 49 57 64 66 80 94 97 94 93 89 94 98 96 94 96 98 100 100 95 92 98 98 98 98 98 97 100 97 97 97 99 97 98

GFSCGP_700_rhum_093.txt.gz
RH
99 99 92 97 90 93 72 84 88 98 99 97 93 96 100 93 75 68 64 60 55 45 46 67 63 65 70 72 76 85 87 75 82 74 74 72 65 69 65 53 58 56 51 49
99 96 93 97 99 88 73 79 79 99 93 93 92 97 98 95 81 75 73 64 61 57 47 50 57 56 62 58 73 81 83 70 79 79 74 72 69 68 61 58 58 58 64 52
99 96 81 96 97 86 80 73 78 75 99 96 94 95 91 88 80 74 80 64 60 66 58 46 43 52 56 53 56 61 69 75 71 74 81 76 74 66 71 58 62 64 75 70
98 88 92 97 98 86 72 71 63 64 84 95 89 96 99 84 59 71 79 68 55 57 70 70 66 64 60 63 67 64 65 70 77 76 80 72 70 66 62 70 77 74 69 88
94 91 96 99 91 75 70 70 58 68 75 96 99 84 71 61 73 79 70 53 51 52 56 58 58 66 63 62 69 71 69 73 73 73 80 78 76 74 70 78 85 79 76 75
99 99 95 90 85 71 80 76 78 84 74 94 83 86 51 53 49 42 44 45 41 44 52 53 57 64 62 60 56 54 60 66 71 75 73 74 81 86 84 81 86 88 92 91
98 98 96 94 89 82 82 80 98 94 96 88 75 74 49 45 47 36 32 37 38 41 46 54 56 49 53 57 64 62 56 54 62 70 74 79 85 88 92 98 99 99 100 100
97 89 90 89 77 97 94 71 75 91 95 76 86 71 51 38 36 45 43 35 34 31 36 40 34 33 41 41 47 60 54 58 68 69 70 77 81 84 90 99 96 99 98 98
85 98 94 91 91 92 90 72 69 61 69 66 78 64 49 50 50 47 43 40 38 38 39 40 39 37 38 39 40 41 46 70 76 77 76 74 76 74 82 90 81 100 99 98
83 94 99 97 98 88 76 74 64 55 75 57 63 55 37 39 50 50 46 44 43 41 38 34 28 28 34 40 42 46 65 79 80 78 75 76 77 77 79 83 93 96 88 94
66 70 94 91 87 90 77 70 61 62 63 63 73 49 47 42 44 43 44 46 44 34 31 30 29 28 32 45 57 61 61 66 69 72 78 81 84 88 81 87 88 91 91 98
66 78 88 85 76 73 74 68 63 52 68 62 61 51 45 40 49 47 38 38 38 38 38 34 30 28 27 32 46 56 56 58 62 80 91 96 92 78 85 98 96 97 89 88
64 74 83 80 77 68 67 68 72 69 67 68 64 46 48 48 47 41 43 43 46 44 40 37 35 32 31 32 32 37 46 51 55 66 76 85 95 96 92 91 85 84 77 86
62 65 61 65 69 72 73 69 68 74 77 69 60 46 43 48 52 51 49 48 48 48 48 46 41 37 36 36 38 38 40 43 46 51 54 76 97 100 96 98 86 92 84 97
68 66 76 81 82 79 74 77 67 62 63 71 56 56 51 56 58 60 58 54 57 62 61 55 49 46 44 45 46 46 44 43 44 46 48 54 74 87 100 100 99 97 98 100
77 78 74 74 70 69 68 69 68 68 68 57 57 56 55 49 48 51 56 60 57 54 52 51 49 50 49 53 52 50 48 43 40 38 44 47 49 54 67 77 97 99 100 89
77 74 69 72 76 70 64 62 60 60 59 59 59 52 47 44 43 43 44 47 47 47 53 57 52 48 45 46 47 42 39 40 37 34 38 47 48 51 59 71 81 84 79 65
77 75 74 77 68 73 57 61 55 52 52 57 52 47 42 40 41 42 42 44 52 56 62 60 54 44 39 38 33 33 33 32 36 41 45 53 54 64 73 79 76 65 63 60
77 80 77 76 76 60 47 55 59 58 48 45 44 51 55 60 61 59 57 52 50 48 44 43 42 40 35 35 35 34 35 34 43 52 61 63 66 73 71 65 66 66 61 61
84 91 85 86 82 80 58 64 59 55 48 59 68 71 63 59 55 55 59 59 57 56 53 50 46 42 37 34 33 35 39 41 55 70 71 75 75 72 71 73 74 68 65 61
77 84 92 97 88 72 62 66 65 72 58 60 63 68 69 72 74 69 66 65 66 65 62 57 51 46 45 41 32 31 37 43 73 84 84 84 83 81 82 84 78 75 68 64
65 65 69 84 90 79 73 73 77 70 70 76 78 82 82 85 83 83 85 83 80 72 71 64 55 52 49 52 43 36 39 53 80 95 98 92 91 92 93 93 87 81 75 69
64 61 68 66 69 64 71 74 81 82 79 81 84 86 92 94 93 99 98 94 88 84 85 71 66 64 58 62 57 55 54 55 89 100 100 100 96 97 95 95 95 88 86 79
61 64 71 67 62 68 74 78 81 81 86 87 80 68 61 65 65 62 58 64 93 94 92 88 81 78 72 74 72 77 72 76 84 94 99 100 100 100 99 97 94 94 89 89
53 58 60 61 65 64 64 68 44 25 21 16 18 24 33 34 35 48 56 64 61 62 96 95 100 88 91 81 86 83 90 99 96 98 99 99 99 100 98 96 95 97 93 93
44 48 49 40 13 10 8 6 6 5 6 6 8 20 45 56 46 48 61 67 78 96 98 97 98 96 93 100 100 100 96 100 100 99 97 99 98 97 98 99 99 98 89 92

GFSCGP_700_rhum_096.txt.gz
RH
98 97 89 65 63 90 93 75 78 82 82 83 95 99 98 100 80 72 65 61 55 56 64 74 73 75 83 93 90 87 90 91 71 61 76 67 80 72 63 51 60 58 58 53
95 93 90 95 82 93 93 78 96 92 80 85 93 97 98 99 89 82 64 58 54 49 52 57 64 76 80 92 83 84 84 86 74 66 62 63 65 69 69 59 63 58 58 62
100 99 94 94 99 98 80 88 91 91 86 99 81 91 92 97 92 90 74 61 55 48 44 43 52 67 76 82 73 61 74 95 89 81 83 84 87 88 81 76 61 65 69 74
98 98 94 97 99 96 72 70 65 63 98 98 97 92 88 91 88 93 78 64 57 54 50 48 51 56 68 70 78 76 72 76 74 90 88 87 99 97 82 88 93 89 85 82
98 99 91 98 88 90 67 82 69 67 66 69 88 88 84 94 96 94 78 71 63 58 55 48 51 60 71 80 77 75 75 78 78 78 84 90 86 88 91 96 90 96 93 94
98 92 97 99 92 84 80 74 73 79 68 81 86 73 60 79 77 65 61 68 65 67 61 53 53 59 62 67 73 78 80 77 76 77 80 80 85 90 90 88 87 95 97 100
95 99 97 88 86 76 75 69 92 87 82 87 77 68 54 53 75 49 44 43 61 63 63 50 47 54 58 54 55 57 59 62 59 68 74 76 81 83 85 88 94 93 97 97
82 96 91 88 84 98 88 69 74 91 94 80 85 80 51 48 46 47 44 37 44 53 55 53 51 51 55 55 51 53 54 61 65 60 60 64 70 75 78 85 90 92 98 95
94 99 100 90 95 97 89 71 62 66 73 79 85 67 49 51 54 53 51 48 44 46 50 50 51 48 38 31 32 41 43 60 72 71 66 68 67 67 67 73 78 82 96 98
89 97 100 99 95 84 79 67 63 53 75 58 64 60 44 44 53 49 48 45 45 46 45 44 43 36 38 39 40 43 36 35 50 47 69 79 78 76 74 72 69 73 85 86
68 78 99 91 96 78 69 62 58 60 60 64 67 48 48 44 48 50 46 46 45 43 35 32 32 32 32 32 38 48 50 47 54 67 77 77 75 76 76 73 73 85 87 90
63 86 89 98 92 75 72 66 56 49 64 60 58 53 50 43 49 50 44 37 39 39 36 35 33 31 30 32 45 64 68 69 74 75 70 67 70 76 82 82 83 80 85 85
72 75 81 80 76 70 74 68 64 57 57 58 58 51 51 50 47 43 39 39 38 38 38 38 39 38 36 36 37 38 46 59 66 65 65 70 79 83 88 90 82 85 92 86
66 66 60 67 71 71 67 64 64 63 61 59 48 48 44 44 44 47 48 46 45 43 41 39 38 38 39 37 36 34 36 37 39 40 44 50 56 64 86 80 87 85 92 72
61 78 83 79 77 76 73 70 64 64 66 66 56 53 45 48 53 55 53 49 48 47 47 45 43 42 42 41 42 40 38 34 35 36 38 38 41 48 55 73 75 81 88 89
69 72 72 68 70 71 72 72 70 69 70 68 64 55 56 56 54 51 49 46 45 52 55 53 49 47 46 45 44 43 42 42 42 37 35 34 36 40 47 51 59 78 93 96
68 69 66 62 65 61 57 62 62 63 63 61 58 52 48 44 41 40 40 41 44 47 49 49 47 44 42 44 44 43 43 42 41 40 36 33 32 37 45 49 54 63 80 88
71 68 63 66 59 58 58 60 58 55 55 57 54 49 46 46 47 50 57 55 56 56 58 58 56 53 50 51 51 45 41 39 33 29 30 35 36 38 42 49 54 60 74 85
69 69 65 62 64 54 52 58 61 55 56 50 50 65 61 58 57 59 63 62 61 63 64 62 58 52 46 40 36 31 31 33 33 34 32 33 40 45 50 57 67 77 82 75
71 73 72 75 74 70 58 69 67 58 51 70 69 65 60 59 65 52 61 66 70 70 72 70 64 61 55 50 44 39 34 33 34 42 41 49 61 67 72 81 83 78 71 71
70 77 86 86 90 64 56 61 61 63 49 59 59 61 65 70 75 73 69 70 82 88 87 83 79 76 73 63 55 48 46 38 41 45 57 74 78 81 84 80 74 74 76 75
58 60 66 90 92 72 53 59 59 54 64 65 66 74 76 77 82 83 82 84 81 72 78 84 83 84 81 73 66 61 52 53 45 52 81 92 87 85 83 80 78 78 82 80
63 56 54 47 54 54 55 61 60 64 60 62 56 54 58 50 36 18 17 19 23 19 14 25 57 88 86 82 73 69 67 58 55 62 93 100 99 98 96 94 89 88 92 89
59 56 56 53 47 52 55 51 42 41 37 39 35 12 8 8 8 21 21 25 19 32 53 51 59 71 85 93 85 78 79 69 66 71 94 99 99 100 99 96 94 98 97 98
50 49 48 43 43 44 40 27 20 16 9 7 7 8 8 11 26 37 42 54 48 45 57 63 63 59 71 87 91 91 91 84 90 85 97 99 99 98 84 100 100 100 99 97
36 34 37 39 40 30 10 8 7 6 6 6 6 6 11 31 41 58 64 74 80 78 71 75 84 70 76 100 92 98 100 100 100 99 98 98 98 96 99 99 99 99 98 96

GFSCGP_700_rhum_099.txt.gz
RH
84 97 96 87 78 82 97 78 73 82 84 83 84 74 91 93 98 98 84 82 83 78 74 97 100 98 100 98 97 96 98 92 78 75 66 66 74 73 83 66 65 57 61 67
100 92 98 87 76 80 96 83 83 84 89 82 83 72 81 77 87 100 81 85 93 89 75 83 71 96 98 96 99 97 97 100 89 71 66 83 89 83 81 70 76 63 69 64
95 94 96 94 70 88 96 78 90 97 99 99 82 63 83 93 100 93 92 84 83 79 69 70 67 71 83 82 86 98 81 99 87 85 74 79 95 95 93 94 86 83 86 90
97 97 99 98 85 94 90 85 67 72 76 98 80 91 93 97 85 98 91 77 67 65 62 62 64 67 77 87 85 80 85 95 99 96 95 88 90 86 85 90 87 80 84 86
99 97 99 100 92 95 75 86 68 82 65 63 92 94 95 100 95 96 95 66 65 60 54 52 53 56 58 67 69 86 88 92 99 81 89 89 80 83 86 83 86 83 78 74
97 94 98 99 91 93 57 85 76 81 64 82 84 66 77 82 99 99 84 71 66 65 64 57 53 52 52 69 80 75 86 87 85 84 88 88 93 91 95 98 96 86 91 98
98 99 100 94 99 91 81 77 83 74 77 80 78 67 75 73 98 95 96 91 83 86 71 64 61 63 70 71 79 82 85 84 80 78 75 75 82 83 88 90 92 96 93 97
94 98 96 93 89 97 81 64 66 85 87 83 95 74 79 66 93 69 54 48 46 69 72 69 67 66 60 60 63 65 70 71 70 68 66 65 78 78 79 81 84 90 90 88
82 99 97 90 83 77 65 60 65 71 79 80 81 56 61 64 80 61 51 52 46 49 54 53 54 52 50 51 52 55 55 53 53 57 59 63 62 66 67 67 69 77 78 79
90 97 97 99 96 78 72 64 60 57 71 71 62 56 52 56 55 55 53 49 48 48 52 52 48 49 45 44 41 35 35 32 42 49 62 70 70 61 64 66 65 68 68 68
76 80 94 93 89 78 68 62 55 58 58 58 57 54 51 51 54 53 51 48 46 44 41 36 37 36 30 28 28 28 33 38 43 39 47 67 60 61 77 78 77 76 74 71
79 82 94 95 85 75 69 60 50 47 59 56 51 61 55 53 54 52 46 41 40 39 39 36 34 33 32 29 29 35 46 55 53 52 60 72 78 78 79 76 71 65 66 74
67 77 74 75 76 73 62 66 56 48 49 55 52 58 60 54 50 48 48 47 47 46 45 43 41 40 39 37 35 35 40 56 66 66 64 65 66 60 58 66 76 81 76 76
58 59 57 68 71 65 59 62 61 56 47 50 51 58 52 54 55 57 56 51 46 44 45 46 46 44 41 42 42 38 37 36 36 38 45 52 53 54 56 65 67 65 73 82
63 74 68 70 69 68 69 67 65 65 63 56 57 50 54 49 46 49 50 53 54 52 51 51 50 50 50 49 48 46 46 46 42 39 38 39 40 41 44 49 49 57 69 76
57 67 67 65 65 68 72 70 67 66 64 65 62 58 59 54 52 50 50 50 49 47 46 47 48 52 56 57 58 58 54 51 46 44 41 40 37 36 36 37 40 47 61 74
67 65 66 67 62 57 59 60 58 62 63 63 59 59 53 48 46 43 40 38 37 38 39 43 48 50 52 54 55 56 60 59 56 54 55 48 43 40 39 39 38 42 48 60
64 58 57 60 54 51 64 62 60 60 57 56 55 50 43 40 44 51 46 50 54 53 50 50 51 53 55 54 50 46 48 53 54 48 52 54 43 36 43 44 46 50 59 64
57 54 50 50 50 53 57 61 63 60 51 48 46 42 41 41 45 54 59 62 60 59 59 60 59 57 56 57 56 52 48 43 40 42 47 47 42 37 35 41 50 56 60 59
58 53 50 54 59 50 52 55 61 60 54 42 44 49 48 49 51 33 31 33 33 36 42 44 49 55 56 59 58 51 51 49 46 48 44 47 49 46 39 48 56 66 66 68
61 60 64 66 56 49 47 48 51 57 42 45 53 56 58 56 59 46 41 24 12 8 7 6 7 9 17 32 53 52 50 47 52 46 46 41 44 49 51 68 76 75 74 80
51 52 56 76 76 56 40 46 46 45 44 46 53 49 40 37 17 8 7 7 10 10 14 25 16 8 14 27 42 41 56 61 54 49 49 49 47 57 65 80 83 83 84 83
55 50 45 37 37 35 36 40 40 36 29 30 22 13 8 6 6 6 6 7 8 16 30 40 46 30 22 40 51 61 69 71 62 52 53 56 54 64 83 84 90 92 86 86
53 51 46 40 35 35 30 27 17 14 10 8 7 6 6 6 7 7 10 9 16 38 48 56 63 62 51 57 61 51 99 84 68 56 57 61 68 93 96 95 98 99 98 96
48 46 43 34 34 35 23 18 8 8 9 8 7 6 7 7 8 10 14 34 48 57 61 77 81 85 67 59 64 54 89 97 83 64 66 71 75 96 97 94 99 99 100 99
33 30 29 28 26 26 22 11 8 11 10 7 6 7 7 9 12 14 30 43 49 60 70 86 94 97 95 93 80 63 83 100 100 79 87 92 89 92 94 97 96 94 96 99

GFSCGP_700_rhum_102.txt.gz
RH
65 88 89 95 93 98 73 80 67 81 83 92 90 88 62 76 64 99 87 79 74 87 100 99 92 99 99 99 100 91 100 97 94 75 63 64 48 42 43 47 51 49 46 46
99 96 97 100 100 100 89 90 75 84 97 85 91 61 60 61 79 90 96 80 73 82 98 98 99 99 100 99 100 99 98 97 77 93 72 65 71 60 64 65 69 82 82 88
97 94 97 99 100 100 88 97 76 89 95 89 97 92 67 70 74 79 77 72 78 83 96 100 100 94 99 100 100 100 99 100 96 98 83 72 74 70 66 77 83 79 86 87
97 100 94 97 92 85 99 82 86 93 81 84 99 78 67 54 76 59 90 79 86 91 98 100 100 96 83 81 95 99 93 99 97 85 95 85 79 74 82 86 84 76 80 86
100 97 99 100 84 91 83 94 99 79 73 90 85 74 85 98 98 100 99 97 94 85 96 98 100 100 100 98 91 90 81 74 82 100 100 100 97 98 95 91 92 89 90 93
93 92 91 93 89 93 90 97 97 80 70 85 88 80 99 98 99 100 100 99 99 98 97 94 90 84 83 91 96 76 89 77 92 98 83 87 86 80 99 94 90 92 89 88
99 100 97 90 95 94 97 98 93 81 79 78 89 75 97 99 100 100 100 98 99 83 99 83 84 88 81 91 96 91 85 86 90 94 99 98 99 98 99 99 96 91 99 97
95 98 98 100 87 97 99 80 68 65 60 67 84 96 97 100 99 98 98 98 96 84 76 70 71 78 80 80 82 86 89 92 92 89 86 84 85 83 91 86 91 92 93 92
95 98 96 95 95 94 71 73 66 73 76 58 70 74 88 91 80 67 69 79 68 54 63 78 78 76 79 76 70 69 70 72 77 78 75 73 75 71 71 73 75 77 78 82
90 98 91 85 71 68 66 62 64 62 58 58 52 53 62 66 60 60 53 46 44 42 62 71 70 65 56 50 50 51 52 53 56 59 56 56 59 63 63 64 66 67 67 68
78 86 98 85 76 66 69 66 54 56 57 37 40 52 55 62 57 53 50 48 47 49 52 48 46 44 40 39 33 35 37 36 38 40 39 46 60 72 73 74 69 58 68 74
73 89 98 93 85 70 66 59 55 59 54 55 41 58 62 59 53 49 47 44 41 39 38 39 35 32 32 32 30 29 28 28 32 43 47 47 47 60 72 72 66 71 74 76
65 67 79 77 73 65 67 58 54 48 45 57 43 60 63 59 56 52 50 50 50 48 44 40 38 36 35 33 33 34 35 41 50 55 56 55 56 70 76 79 81 79 75 66
54 52 59 62 68 58 64 52 47 43 59 56 56 72 76 68 64 62 59 55 51 48 49 49 48 44 42 40 39 37 36 36 35 39 48 60 63 67 68 65 59 55 63 71
62 74 70 68 67 66 63 59 55 49 51 61 68 74 66 58 52 49 50 51 52 52 50 49 48 49 48 46 46 47 47 45 44 43 40 37 37 37 38 41 47 50 53 60
57 69 65 69 71 70 66 62 65 63 58 51 54 54 58 56 51 48 47 46 45 44 45 46 48 47 47 48 50 49 48 51 49 48 49 48 45 43 41 41 40 40 48 51
51 55 54 64 57 54 60 58 60 60 58 54 56 49 50 49 47 45 44 44 44 44 44 46 50 50 53 57 54 48 52 54 53 55 57 54 52 52 51 52 47 42 40 43
55 52 51 60 47 47 60 58 56 53 51 47 44 43 42 43 39 35 35 38 40 40 41 40 42 43 50 56 59 54 47 44 46 49 54 61 60 59 60 55 50 48 48 47
48 44 39 55 48 44 46 53 58 55 50 50 48 43 40 43 48 49 50 49 40 31 24 18 16 13 13 16 28 46 52 54 52 49 46 46 50 50 52 59 53 45 52 56
45 42 39 37 49 32 35 42 48 49 57 33 31 32 32 31 27 21 23 13 7 6 6 6 5 5 5 5 5 5 8 36 56 57 53 50 49 45 45 48 54 57 54 57
46 44 50 48 57 35 29 32 41 54 35 26 29 28 27 23 18 9 7 7 6 6 6 8 11 14 23 30 18 10 8 10 38 71 68 58 51 49 39 47 58 61 66 66
48 51 52 51 60 46 27 31 26 23 20 18 15 13 11 9 8 7 7 6 5 5 5 6 10 21 32 42 46 37 30 17 27 66 77 76 63 54 53 38 50 58 66 83
45 42 44 35 29 25 24 21 22 16 11 9 10 11 11 10 7 7 7 6 5 6 5 6 14 29 37 46 64 68 57 40 37 40 91 93 76 66 58 58 49 61 76 88
39 43 41 34 28 26 24 19 15 10 8 8 12 13 12 8 7 7 6 5 6 8 8 14 28 39 48 60 73 83 74 54 60 47 58 98 88 76 68 68 64 74 87 98
41 42 36 26 25 24 19 18 16 11 7 9 13 13 9 7 7 7 7 7 10 11 14 23 35 50 60 79 84 86 87 77 67 59 58 98 94 84 76 78 80 84 97 99
24 22 25 22 18 18 15 16 18 15 8 12 15 12 7 8 7 7 8 10 13 17 23 33 47 56 70 87 92 87 97 97 78 73 71 99 99 90 93 90 97 93 100 99

GFSCGP_700_rhum_105.txt.gz
RH
100 92 96 99 98 94 100 79 68 72 42 84 65 82 84 91 67 64 70 68 50 72 87 93 84 99 98 98 100 100 97 91 64 63 51 41 40 40 43 46 48 49 50 49
97 87 94 96 93 96 95 81 76 62 77 71 65 74 73 77 45 43 70 81 79 72 85 95 87 99 100 99 100 100 98 94 86 87 77 66 59 45 43 45 47 48 48 48
97 94 95 98 88 90 93 87 82 97 77 74 62 72 86 76 63 42 54 92 77 73 78 94 96 100 97 99 100 98 99 100 99 87 79 72 68 77 76 51 50 52 60 54
95 99 100 94 96 94 72 72 94 91 74 74 71 65 89 91 75 62 74 58 70 76 81 98 98 100 100 98 100 100 99 98 99 96 99 95 90 78 81 79 79 74 85 82
100 99 85 95 95 91 89 86 91 94 69 73 96 99 100 100 99 60 65 66 67 76 98 96 98 100 99 95 100 98 100 99 100 96 98 99 100 96 85 88 83 84 85 92
95 99 99 99 97 90 100 97 93 98 87 65 88 85 99 99 100 100 89 97 80 92 97 96 90 89 97 84 97 100 96 98 92 97 96 83 98 89 89 91 87 88 96 89
98 97 86 83 96 95 98 98 93 89 93 72 88 78 99 96 98 100 100 99 90 100 100 99 86 87 88 84 91 91 87 90 99 97 98 88 86 89 98 94 83 89 87 84
86 89 78 79 97 98 96 92 83 92 82 72 84 96 98 98 99 99 100 99 100 99 88 97 97 95 92 92 92 93 90 91 85 88 92 100 100 100 100 99 100 90 95 98
98 96 98 96 83 82 90 79 62 67 52 60 86 93 99 90 99 100 100 99 99 100 95 90 96 86 88 87 84 82 81 81 81 84 82 85 84 83 82 81 92 91 86 88
93 94 90 81 77 84 69 58 70 64 52 57 79 98 96 86 82 96 98 90 86 88 84 89 93 87 77 74 73 71 68 64 64 62 63 65 69 68 64 66 69 72 75 74
92 94 80 72 85 79 85 74 62 58 52 36 47 60 73 68 78 75 62 67 70 74 77 77 73 63 57 51 49 48 51 54 55 52 51 55 59 58 62 69 69 70 70 71
83 95 96 76 67 67 91 87 70 64 41 45 41 65 79 78 63 66 53 52 51 50 50 48 46 43 40 37 35 33 30 29 34 40 46 51 50 51 52 56 67 76 74 76
70 77 80 73 71 70 79 74 70 49 58 60 44 66 75 80 79 59 49 46 47 46 44 43 44 43 40 38 36 33 31 33 39 41 44 54 60 58 58 58 65 73 75 74
55 75 76 70 82 63 78 74 49 49 58 52 61 74 76 77 61 58 55 53 49 46 44 43 45 43 42 42 42 41 40 37 36 39 54 66 71 74 72 72 74 78 80 79
69 76 58 63 63 62 61 60 68 48 67 64 66 76 81 59 53 52 50 49 47 46 43 43 43 43 43 42 40 40 39 39 41 43 42 41 40 42 52 68 72 68 66 62
58 64 58 57 57 62 56 54 69 59 76 76 77 66 63 59 55 53 50 47 45 42 41 40 40 40 40 40 40 41 42 43 41 38 38 42 44 46 46 42 42 43 46 56
39 47 70 68 51 53 55 48 50 50 53 62 64 58 52 48 47 48 52 55 53 48 44 45 42 39 36 31 30 25 25 27 32 39 46 50 48 48 48 50 50 48 46 44
51 45 45 58 46 53 50 42 41 43 43 42 42 40 36 32 30 26 21 19 21 25 23 15 10 7 7 6 6 6 7 7 7 11 21 33 43 50 54 53 50 51 52 52
45 50 52 54 38 42 36 28 37 36 31 26 28 23 24 21 15 32 10 10 9 8 7 6 5 5 4 4 5 5 4 4 4 6 9 18 33 38 41 46 57 60 60 59
36 36 59 54 45 27 50 28 37 38 58 22 20 17 16 17 15 31 9 8 7 7 7 6 6 4 4 5 8 13 21 23 14 6 8 40 66 54 49 49 44 50 57 55
49 40 63 50 52 44 23 26 32 53 40 18 14 12 13 12 11 11 10 8 8 8 7 7 5 4 4 6 11 20 34 44 50 46 22 12 12 60 86 75 58 49 50 55
55 56 59 58 61 52 21 23 27 23 15 12 10 10 11 13 12 11 9 8 8 8 8 6 5 5 5 6 14 26 39 48 57 64 59 49 33 20 44 93 92 65 54 59
46 39 56 38 50 21 19 18 18 18 13 10 8 8 11 14 14 13 10 9 10 10 8 6 6 9 9 12 22 31 47 56 58 64 63 64 59 37 25 64 93 90 69 59
29 30 34 28 24 21 21 19 17 16 12 9 7 8 11 14 16 14 11 10 10 9 7 6 7 9 11 18 36 47 56 61 73 73 71 76 74 48 42 56 87 90 81 71
44 27 27 22 20 22 18 16 14 13 10 9 8 8 12 16 17 13 10 10 9 8 7 8 9 10 16 25 44 55 75 84 84 85 91 95 76 62 56 82 88 90 90 80
17 17 18 24 16 14 10 12 12 12 11 13 10 10 16 19 17 11 10 9 8 8 9 10 11 10 16 25 46 54 81 94 90 93 96 96 80 76 69 91 98 90 96 80

GFSCGP_700_rhum_108.txt.gz
RH
100 100 76 76 84 97 100 97 95 77 60 60 46 50 59 98 70 68 63 49 33 42 42 69 80 92 91 95 98 98 97 97 98 86 46 46 48 51 46 34 40 46 48 49
99 92 83 98 98 96 97 94 89 73 68 63 48 56 71 77 82 67 52 44 49 37 48 50 76 86 94 93 99 100 99 92 99 92 65 50 40 43 40 39 43 47 48 49
97 94 93 97 98 97 96 94 86 87 78 58 68 89 77 69 78 84 48 34 53 77 73 63 76 96 97 96 100 97 100 97 97 94 62 62 60 55 55 51 47 48 49 50
97 94 100 100 97 96 96 90 82 84 95 95 88 78 67 80 85 79 56 46 74 83 64 77 97 100 99 95 100 98 98 100 99 98 89 84 78 74 62 63 68 56 57 59
98 96 100 87 95 99 83 94 99 99 100 95 63 80 99 97 97 90 97 76 67 69 90 85 99 100 98 84 96 97 98 99 99 100 87 89 97 98 91 89 96 98 94 99
99 99 97 95 95 100 93 97 92 94 97 98 86 94 98 98 99 100 94 79 73 90 99 99 94 100 87 97 100 100 99 100 99 99 91 96 98 98 98 98 98 98 100 98
92 77 89 92 90 91 82 95 98 96 97 98 98 94 98 99 98 100 100 84 98 100 94 96 98 85 83 93 93 99 94 99 96 94 86 92 98 99 98 100 97 100 99 96
94 81 77 89 94 98 100 99 99 96 97 98 85 97 98 99 100 99 100 100 100 97 99 98 100 99 99 99 99 100 97 86 88 83 91 90 98 98 96 100 98 94 91 96
97 86 76 80 96 99 97 97 95 98 70 85 98 99 99 98 99 100 100 100 100 100 100 100 98 93 91 89 87 86 84 86 90 95 90 91 98 99 98 99 92 95 97 93
93 83 79 86 93 88 91 80 88 88 88 95 98 98 98 98 98 99 100 100 100 100 100 100 99 93 90 90 85 81 76 74 74 72 71 69 73 80 79 83 86 85 86 80
90 97 73 82 70 81 81 79 70 67 49 52 79 98 98 96 96 98 98 97 92 95 98 97 95 90 77 71 69 64 59 58 60 64 67 65 62 62 65 62 62 63 64 65
89 89 74 60 63 76 75 71 67 68 62 55 73 96 96 90 88 82 77 74 73 66 62 59 55 54 48 45 42 40 40 41 43 51 59 60 57 56 58 56 54 57 60 66
72 74 80 66 78 67 75 65 43 65 62 56 73 96 98 75 68 67 60 56 56 54 51 48 46 44 41 39 37 37 37 37 38 45 50 47 49 53 60 64 59 56 57 62
60 70 82 88 80 81 79 62 58 54 68 77 87 81 73 68 62 58 52 51 48 46 44 43 41 40 40 40 39 39 38 37 38 39 38 37 41 55 64 64 64 65 66 70
67 62 64 71 68 65 71 71 65 65 64 73 75 80 66 57 55 52 50 48 45 44 45 43 42 42 41 39 38 37 39 38 38 39 41 43 43 43 42 39 38 43 62 72
56 55 61 52 50 52 43 48 58 67 72 72 65 66 56 48 44 41 43 43 40 36 33 30 28 27 24 22 21 22 24 26 29 33 36 39 41 43 48 49 48 46 42 39
42 43 58 64 40 49 60 41 40 51 66 72 73 56 48 42 34 26 22 18 15 13 10 8 8 8 8 8 7 7 7 7 7 7 8 11 18 26 32 41 49 52 51 50
46 47 47 62 33 65 50 38 37 40 42 45 44 40 42 44 47 38 27 15 10 9 8 7 7 6 6 6 5 5 5 4 4 4 4 5 6 7 12 22 32 45 56 57
37 35 55 56 40 38 27 22 28 31 34 31 26 26 26 26 34 57 57 38 9 8 8 8 8 8 7 7 7 6 5 4 4 3 3 3 3 3 5 13 28 39 44 53
27 28 44 53 52 42 36 20 22 21 35 24 15 13 13 13 14 14 11 9 8 9 10 11 11 14 15 14 14 13 16 19 22 28 28 21 10 6 4 5 19 52 58 58
44 44 55 60 53 44 34 22 22 37 39 18 11 10 10 12 13 14 14 12 10 9 10 10 10 12 11 11 11 10 10 17 22 37 40 44 53 47 28 15 10 9 22 63
40 54 58 54 56 55 21 20 16 18 11 10 9 9 9 10 12 15 15 15 14 12 11 10 10 10 9 7 6 6 5 8 20 34 51 58 58 68 66 55 37 24 20 16
33 27 47 37 42 27 17 14 16 15 12 10 10 8 7 8 10 14 15 15 14 13 12 11 11 10 9 7 6 6 6 5 12 31 46 66 69 69 74 69 69 56 43 24
34 29 29 24 21 18 18 17 17 16 15 12 10 9 10 8 10 15 16 17 16 14 13 12 11 9 8 7 7 6 8 14 26 36 50 70 74 64 78 84 90 87 49 32
29 29 24 18 19 20 16 14 14 15 12 10 10 11 12 10 13 18 19 18 16 15 14 11 10 9 9 8 8 7 9 16 29 44 55 74 89 87 88 95 99 93 53 50
13 12 14 13 12 13 10 10 9 10 9 10 11 14 12 12 18 22 20 19 17 15 12 11 11 10 10 10 10 10 13 21 39 46 50 76 89 91 82 95 76 72 69 70

GFSCGP_700_rhum_111.txt.gz
RH
83 71 63 78 90 97 100 100 93 76 56 84 75 72 56 50 48 59 62 69 68 27 39 41 29 36 65 81 83 88 100 100 94 88 99 99 97 66 47 31 40 25 31 37
88 71 80 94 97 98 97 96 86 72 61 91 84 70 62 42 52 76 68 59 66 45 28 23 31 54 74 85 88 99 100 100 93 100 100 99 97 69 60 35 29 33 32 42
98 92 98 98 97 95 86 87 77 84 75 56 64 55 44 46 70 81 82 70 60 60 44 30 35 59 67 84 85 100 99 97 92 100 93 99 99 93 80 57 44 42 37 44
83 85 97 98 97 96 87 68 86 92 100 84 80 90 52 58 74 79 84 65 46 39 61 65 66 71 84 87 78 99 99 100 99 91 96 100 96 95 99 94 75 57 58 55
92 85 98 92 86 97 74 88 82 98 99 97 63 97 93 83 82 87 87 88 67 52 80 79 95 99 82 87 90 97 99 100 97 98 97 94 83 83 86 83 70 59 60 62
100 99 91 99 91 98 96 92 97 98 98 98 80 88 96 96 98 95 95 91 67 81 81 99 99 87 98 100 96 91 99 99 97 99 99 96 93 78 78 86 72 75 78 83
98 74 93 82 78 85 98 97 96 97 96 98 88 98 98 98 98 85 95 91 93 89 100 100 98 99 100 100 100 99 100 99 100 100 100 100 99 98 100 99 98 98 99 96
87 72 80 82 97 98 99 98 98 96 97 98 98 98 98 99 100 98 89 96 98 100 99 98 100 100 99 100 93 100 99 100 99 100 99 100 100 100 96 96 99 99 100 96
88 78 86 95 98 98 99 99 97 98 89 89 98 98 97 98 99 99 99 99 100 100 99 100 100 100 100 96 94 95 98 93 92 100 97 97 97 94 95 98 100 100 96 99
97 88 76 91 75 80 84 85 84 84 96 96 97 98 98 97 98 99 99 100 98 100 100 100 100 100 99 96 92 88 86 82 79 85 94 97 95 100 99 100 99 100 100 100
95 96 72 67 72 75 75 72 67 74 72 90 93 98 98 97 98 100 100 99 100 100 98 96 97 96 83 75 72 69 66 65 67 69 71 72 73 73 76 85 86 89 96 98
85 84 69 66 69 65 70 67 61 67 63 62 86 98 99 97 95 91 92 90 86 83 76 56 49 45 42 41 39 38 37 37 41 48 57 62 65 66 63 64 64 65 66 66
72 70 74 73 53 45 62 57 55 63 72 78 82 97 96 80 77 74 62 57 55 52 48 47 46 43 43 41 40 37 36 34 34 33 32 34 35 38 42 47 50 53 62 62
56 69 65 72 72 70 68 59 44 42 69 83 88 95 79 67 58 55 54 53 52 49 46 46 47 44 43 43 40 40 39 39 39 39 38 37 36 34 33 38 53 60 55 49
55 56 60 64 63 60 59 69 63 63 60 61 79 66 63 57 54 50 46 43 41 38 39 38 36 38 36 35 34 33 33 31 31 32 33 35 36 38 38 39 39 35 34 38
57 53 67 51 56 61 48 69 61 54 59 68 66 59 56 51 47 44 41 39 34 28 24 19 13 11 10 8 8 7 7 8 8 8 9 12 17 25 33 38 40 39 41 42
42 52 52 60 43 54 60 42 51 53 49 50 51 46 47 47 41 32 24 21 14 10 9 9 8 7 6 6 5 5 6 5 5 5 5 5 5 5 7 8 15 28 36 45
42 40 41 40 34 58 33 35 38 48 45 43 38 29 27 23 19 13 9 10 9 10 9 8 8 8 8 8 8 8 7 7 6 6 5 5 5 5 4 4 5 7 12 22
33 32 39 33 45 41 35 24 27 28 28 23 22 18 13 9 9 11 12 12 12 11 10 10 10 10 10 10 8 7 6 6 6 6 4 4 3 3 3 3 3 3 4 8
22 25 27 50 43 46 29 19 23 26 22 18 18 13 14 12 13 13 14 14 12 11 12 11 12 11 11 10 9 8 7 7 7 6 6 5 5 5 6 5 7 8 16 13
27 29 28 39 60 37 33 25 22 30 27 12 10 11 12 12 12 14 15 15 15 14 12 12 12 12 11 10 10 9 8 8 7 7 7 8 15 16 22 27 28 23 23 31
30 40 42 44 59 45 18 19 18 13 9 12 12 12 10 8 9 13 16 17 17 16 14 13 13 12 11 10 10 10 9 8 8 10 12 12 12 18 29 46 57 54 49 44
39 26 37 36 25 25 20 17 16 15 14 14 15 15 14 12 10 12 18 20 20 19 17 16 15 14 12 12 11 10 10 9 9 11 15 17 20 33 43 52 66 68 54 47
30 29 28 22 16 16 16 15 14 14 15 16 16 15 14 16 11 12 18 22 22 20 19 18 16 15 13 12 11 10 10 9 10 10 14 16 19 32 56 74 82 81 75 74
24 22 18 13 14 14 14 12 13 11 10 11 12 13 14 17 12 13 22 25 22 21 20 19 18 16 16 14 12 10 10 10 10 12 14 14 17 37 56 77 94 96 87 94
13 11 14 9 10 10 10 10 10 10 11 12 14 16 18 16 13 18 27 24 22 22 20 20 18 18 16 13 11 10 10 11 12 13 12 14 26 50 63 82 90 97 95 94

GFSCGP_700_rhum_117.txt.gz
RH
70 66 64 70 77 78 77 78 73 43 43 76 45 62 38 42 42 40 49 37 32 27 14 17 54 81 69 52 44 39 29 34 31 35 48 58 82 80 93 88 100 87 93 95
68 60 71 74 75 74 80 84 57 46 58 82 74 65 49 56 41 36 42 46 40 26 20 12 18 73 74 58 39 31 19 13 21 51 67 73 76 84 94 88 88 95 95 97
93 70 57 57 53 69 78 90 76 90 87 76 86 61 35 53 48 40 49 58 42 33 28 22 22 33 64 53 36 27 19 25 39 54 66 73 79 88 87 81 78 92 96 97
58 69 66 67 69 88 99 82 98 97 99 97 98 91 47 70 55 58 63 64 81 85 68 64 42 44 44 48 31 18 30 30 34 43 71 67 71 99 84 83 95 93 98 100
82 85 94 95 83 98 90 100 98 93 100 100 86 100 48 75 64 56 66 70 74 74 70 68 57 45 31 22 19 20 30 31 39 57 71 75 85 97 94 99 100 96 99 100
81 85 86 86 93 100 100 100 100 99 100 99 84 96 82 84 86 76 67 65 63 65 68 59 63 70 51 79 43 27 24 45 56 66 90 96 100 97 98 96 100 100 99 98
85 74 77 82 94 94 99 99 94 95 96 92 97 98 97 97 99 99 86 80 78 67 74 64 93 91 99 98 94 79 61 69 80 90 92 96 98 100 100 99 99 100 98 97
94 56 63 80 86 97 99 99 98 98 96 91 92 98 97 98 99 100 99 86 94 90 74 94 99 100 99 100 100 97 92 100 100 100 100 99 100 99 100 100 100 100 100 100
83 56 63 64 77 89 96 98 97 100 99 93 92 94 96 98 98 99 97 95 90 96 99 99 99 100 99 99 100 100 100 100 100 100 99 99 100 98 98 98 99 100 99 99
86 77 53 58 61 74 86 95 96 97 97 93 88 97 98 97 98 98 98 98 99 99 99 100 99 98 97 98 100 100 100 100 100 100 100 100 99 99 100 100 99 100 99 100
86 85 53 61 57 71 78 82 83 87 86 93 95 96 98 98 96 97 98 98 98 93 89 71 70 57 58 61 75 72 82 79 77 78 77 77 96 99 96 98 98 97 99 99
80 78 66 51 60 64 73 76 75 70 68 74 86 94 97 96 95 98 93 84 73 65 55 57 56 49 47 42 40 40 40 41 45 56 68 80 89 86 83 79 76 68 64 62
65 65 55 31 37 48 68 77 73 70 65 72 82 88 95 97 99 99 86 75 68 64 58 52 53 48 44 44 44 43 38 35 33 33 34 36 37 37 39 46 48 54 58 62
55 54 55 55 52 55 52 62 67 74 66 59 66 71 91 92 84 74 67 61 57 52 48 46 42 40 37 35 33 34 34 35 36 36 33 33 33 33 34 33 32 32 32 36
50 51 48 44 46 47 44 55 50 53 54 55 52 59 69 74 66 54 48 46 42 37 29 21 14 10 8 8 7 7 6 6 6 7 8 9 12 16 20 25 29 33 34 34
40 45 38 32 34 37 36 38 46 53 51 49 52 50 50 49 47 46 44 34 22 13 10 10 9 9 9 9 8 8 8 8 7 7 7 7 6 6 6 6 5 5 5 5
35 36 39 33 35 25 23 27 32 35 42 49 48 45 45 38 36 31 22 15 14 13 12 11 11 11 12 12 12 12 11 11 10 10 10 10 9 9 9 10 10 9 9 8
36 39 37 31 24 36 12 12 18 19 22 25 24 29 33 36 22 14 10 12 12 12 13 13 14 15 15 14 13 13 12 12 11 10 8 6 5 5 4 4 4 5 8 9
32 40 35 33 32 14 8 10 11 13 8 8 10 13 13 13 11 10 10 12 13 14 15 16 16 16 16 16 15 15 13 12 10 9 9 10 10 10 10 10 11 10 9 9
35 32 37 37 37 30 12 11 10 11 9 7 6 6 7 7 9 10 11 12 12 14 17 18 19 19 18 17 16 15 14 13 11 10 10 10 9 8 8 8 8 8 9 10
40 43 41 38 32 13 12 16 12 13 8 8 7 6 6 8 9 10 10 10 11 14 19 22 21 20 19 17 16 15 13 9 6 5 5 5 5 5 6 7 7 8 7 7
31 29 29 40 38 27 14 15 12 10 8 6 7 6 8 8 8 8 9 10 11 14 21 25 22 21 20 17 14 11 6 4 4 5 6 6 7 7 8 9 11 12 13 13
30 27 31 29 18 15 15 14 14 13 11 10 8 8 9 9 10 10 12 14 13 14 24 26 22 21 18 16 12 5 4 4 4 4 4 5 5 6 8 9 11 13 15 24
27 27 25 21 13 14 14 16 15 15 16 15 14 11 10 10 11 13 15 17 14 18 29 26 24 21 18 12 4 4 4 4 5 5 6 6 7 9 11 13 16 16 24 42
23 25 23 18 11 13 13 14 16 17 15 14 13 13 12 12 13 16 19 18 15 26 30 25 22 19 14 4 4 5 5 5 5 6 7 7 8 11 14 17 19 29 54 72
9 10 12 11 13 14 10 14 16 14 12 13 14 12 12 14 17 20 22 18 17 30 27 24 20 16 6 4 5 5 5 6 6 6 7 8 10 16 19 20 18 41 67 86

GFSCGP_700_rhum_120.txt.gz
RH
48 49 57 59 59 64 61 63 63 33 55 51 48 57 42 54 55 56 42 37 26 24 23 21 19 13 65 86 81 70 60 53 56 55 49 42 34 32 40 44 46 64 70 63
37 46 52 52 56 57 60 60 46 51 72 88 72 52 42 44 50 54 37 36 36 45 34 28 22 19 16 81 80 76 63 51 49 48 43 39 35 27 30 34 55 74 74 74
43 49 45 46 48 57 68 76 77 91 95 88 89 63 52 55 76 56 50 52 50 46 44 39 30 17 13 47 75 65 49 48 47 41 34 35 32 32 36 46 50 64 81 83
52 65 69 78 81 90 93 88 97 98 99 96 100 91 71 57 73 83 86 66 73 75 36 23 17 14 12 18 77 73 61 49 40 31 19 12 16 24 38 50 44 56 75 90
72 80 85 90 100 97 97 98 100 100 99 100 94 99 63 79 75 77 74 76 78 73 76 67 52 54 53 48 39 61 62 32 27 23 21 22 27 32 36 49 46 71 77 89
67 79 84 89 100 99 98 99 100 100 98 98 86 97 79 95 99 98 94 73 77 72 76 77 76 74 61 55 46 40 36 23 22 16 27 34 32 36 46 72 84 76 87 99
64 62 69 81 92 96 100 99 94 90 94 92 96 98 95 88 98 98 99 98 92 91 79 79 81 75 71 74 55 27 21 18 12 20 32 60 66 62 82 99 98 100 94 97
89 56 69 79 85 97 98 99 98 98 97 94 90 95 97 97 98 99 98 100 99 97 93 74 90 89 100 100 97 89 66 55 42 48 70 82 94 100 99 99 100 100 100 100
98 68 65 70 73 79 88 99 100 98 99 96 86 91 89 98 98 99 99 98 100 96 99 98 99 99 99 100 100 98 98 94 91 96 99 100 100 99 100 100 100 99 100 100
98 87 53 58 63 72 78 92 94 94 95 95 81 95 99 97 98 98 98 98 98 98 98 98 97 97 99 98 100 99 100 100 100 99 100 100 98 100 100 99 98 97 98 98
92 92 52 56 58 70 75 81 84 89 86 98 96 91 98 98 98 98 97 98 95 90 91 92 84 89 92 85 82 85 94 95 96 98 100 100 100 100 100 99 96 99 94 87
85 88 72 51 58 58 69 76 82 90 71 80 86 93 85 89 85 84 90 88 85 77 70 65 62 58 54 53 51 46 42 44 46 58 69 84 99 100 100 97 90 92 85 92
63 64 58 39 47 42 52 67 72 81 81 75 84 82 84 81 78 78 80 71 62 56 52 47 42 42 41 38 37 37 38 38 39 40 42 40 43 52 60 62 62 64 65 65
62 52 49 50 45 47 38 44 56 74 80 66 60 50 61 66 75 71 65 55 52 45 33 24 15 10 9 8 8 8 8 9 11 13 16 21 26 31 34 35 35 36 36 37
63 53 47 37 39 39 33 34 41 50 54 58 52 52 53 53 48 51 51 46 36 23 13 11 10 9 9 9 9 9 9 9 8 8 7 6 6 6 5 5 5 6 6 8
42 50 43 27 27 38 28 23 34 41 43 42 42 46 48 45 44 42 38 26 18 13 12 12 12 13 13 13 13 13 12 12 11 11 11 10 10 10 10 10 9 9 9 9
39 43 42 26 23 18 16 14 22 23 26 31 32 31 34 37 38 32 21 14 15 13 13 14 14 16 16 16 15 14 12 11 10 9 8 7 6 5 5 4 4 4 5 5
30 36 39 31 18 22 8 9 11 14 14 12 15 18 18 19 17 14 10 11 12 13 14 15 17 18 17 16 14 12 11 10 8 6 4 3 3 2 2 2 2 2 2 2
32 33 36 34 33 12 9 10 10 11 6 8 8 10 10 9 8 9 10 11 12 13 14 16 19 19 17 15 14 12 12 10 6 3 3 3 3 3 2 3 3 3 3 3
35 36 35 39 33 26 8 9 8 8 9 10 7 8 8 8 8 10 11 11 11 11 12 14 19 21 18 17 15 14 12 7 3 3 3 3 3 3 3 4 4 4 4 5
31 36 43 43 41 14 9 11 12 10 9 8 7 7 5 7 8 9 9 10 10 11 12 14 18 24 21 19 16 13 9 4 3 3 3 3 4 4 4 4 4 5 6 8
25 27 28 42 53 30 10 11 12 10 9 9 7 6 6 7 8 8 9 10 11 13 14 14 19 26 22 19 16 12 4 3 3 3 4 4 4 5 5 6 6 7 10 14
28 20 21 19 11 10 12 14 15 15 15 16 15 11 8 7 8 9 10 11 12 15 16 14 21 27 22 17 13 6 3 3 4 4 4 4 5 4 4 5 7 8 12 14
23 25 25 21 10 13 15 16 15 17 17 17 16 17 14 13 12 12 12 12 14 17 18 16 26 25 20 16 10 4 3 4 4 4 4 4 4 4 5 6 8 11 14 20
24 20 20 15 8 14 13 11 9 11 13 14 14 14 15 14 13 14 14 14 16 19 20 17 28 24 19 14 5 4 4 4 4 4 5 5 4 5 6 7 10 13 20 34
13 14 15 12 14 15 13 14 13 12 15 16 13 12 12 13 14 13 14 16 18 21 19 22 28 23 19 9 4 4 4 5 5 5 5 5 5 6 6 7 10 16 20 37

GFSCGP_700_rhum_123.txt.gz
RH
35 32 35 36 38 39 39 40 36 30 50 48 54 57 47 30 28 34 45 41 29 27 21 30 25 24 15 12 23 60 72 83 80 74 70 63 56 53 52 46 39 42 48 48
27 30 32 33 35 40 42 44 51 64 77 94 76 65 52 43 58 56 62 43 34 40 23 26 32 30 23 15 17 27 60 68 80 71 58 54 50 46 47 39 32 30 26 25
38 41 44 54 61 67 79 86 80 91 94 90 93 78 67 64 67 77 79 63 61 58 61 33 38 39 28 20 14 38 41 58 68 66 54 49 48 45 39 38 36 31 29 35
52 68 72 82 94 95 92 96 99 92 99 96 90 90 68 64 73 88 83 70 68 73 79 71 41 44 32 24 15 56 80 65 58 58 54 46 48 46 42 39 24 17 18 24
69 76 77 85 98 98 97 99 100 99 100 100 96 100 73 77 68 94 100 84 76 82 91 78 82 48 24 17 14 20 85 73 64 58 52 48 45 40 34 26 16 17 22 36
64 65 71 77 90 98 99 99 100 98 100 98 77 96 80 95 96 98 98 97 94 95 93 89 84 63 49 38 25 16 70 70 65 51 48 43 34 33 23 20 14 24 40 77
55 59 67 72 82 97 100 100 93 88 93 84 85 100 90 98 96 98 99 99 99 88 88 98 96 90 84 74 57 42 34 59 63 62 55 39 35 17 29 47 53 75 100 88
78 56 64 77 85 90 100 99 98 96 93 90 90 97 98 98 98 98 98 99 99 98 97 98 98 98 99 99 99 61 61 56 47 37 35 23 19 34 79 89 98 98 100 100
90 62 63 73 76 77 85 100 98 99 95 98 87 93 98 97 98 98 98 99 98 97 90 98 99 99 82 98 99 98 88 74 77 41 29 42 48 74 95 99 98 98 98 98
90 87 57 62 66 76 77 79 91 97 96 92 75 94 98 95 96 98 97 98 97 98 95 96 97 96 97 98 100 99 100 100 100 90 78 93 100 100 99 100 100 99 99 99
81 84 48 55 60 62 73 76 84 94 93 90 89 91 93 95 89 95 95 90 67 34 24 34 42 58 67 65 82 99 100 100 100 98 100 100 100 99 99 99 100 100 99 100
80 81 64 42 49 55 58 62 74 90 78 85 86 78 66 79 88 76 66 62 60 50 24 11 11 11 14 20 28 40 43 48 67 70 93 99 100 100 100 100 100 90 97 98
70 74 56 30 39 40 45 48 57 77 83 78 80 70 50 64 63 63 57 57 52 38 19 10 9 9 8 8 8 8 12 17 24 28 33 34 35 36 46 50 43 39 41 47
71 66 60 47 42 45 40 36 48 59 79 65 59 51 48 52 48 43 47 44 33 19 13 11 10 10 9 9 9 9 8 7 6 6 6 6 6 7 8 10 12 14 16 17
58 49 49 39 32 36 27 28 35 41 52 52 41 38 39 41 42 39 28 22 18 14 12 12 13 13 14 14 14 13 12 12 11 11 11 10 10 10 10 10 9 9 9 8
42 44 44 21 17 24 23 18 21 26 31 33 34 25 26 29 30 25 16 12 13 13 13 14 16 17 17 17 16 14 13 12 11 10 8 7 6 6 5 5 5 5 5 5
38 43 40 24 23 24 14 8 9 12 15 16 18 19 18 20 18 14 11 10 12 13 14 15 17 18 18 17 16 14 13 11 9 7 5 4 4 3 3 3 3 3 2 2
34 36 38 31 18 21 7 9 10 10 10 10 10 13 17 15 12 10 9 10 12 12 13 14 16 19 21 19 16 14 11 9 7 5 4 4 4 3 3 2 2 2 2 2
35 39 35 36 35 12 7 7 7 8 8 8 7 8 9 11 9 8 10 11 11 12 11 12 13 16 21 21 16 13 11 8 6 4 4 4 3 3 2 2 2 2 2 2
31 48 48 44 36 25 6 7 9 9 9 9 7 8 7 7 7 9 10 10 10 10 10 11 12 14 18 21 17 14 11 8 5 4 3 3 3 3 2 2 2 2 2 2
26 35 45 56 46 13 8 9 10 10 8 9 9 7 7 7 8 8 9 9 9 10 11 13 14 15 17 22 18 14 12 9 4 3 3 3 3 3 3 2 2 2 2 3
22 22 25 44 54 29 8 10 11 12 15 15 13 12 10 8 7 7 8 9 10 11 12 14 16 17 17 23 22 17 14 8 4 3 3 3 3 3 3 2 3 3 3 3
25 19 20 17 12 11 12 14 17 17 16 17 18 17 17 15 10 9 9 9 10 11 12 15 18 18 17 25 22 17 14 6 4 3 4 3 3 3 3 3 3 4 3 4
24 24 26 21 12 12 17 20 18 18 15 13 14 17 17 14 19 16 14 13 13 14 15 17 20 20 18 25 22 17 13 6 4 3 4 3 3 3 3 4 4 4 4 6
25 25 21 16 10 12 13 12 12 12 11 11 10 14 16 18 17 18 18 16 15 14 16 19 22 22 19 27 24 19 11 5 4 4 4 4 4 4 4 4 5 6 8 8
19 19 20 17 16 15 14 14 14 14 14 14 11 9 11 14 14 18 18 18 16 16 16 19 21 22 21 28 24 18 10 5 4 4 4 4 4 4 4 5 6 8 10 12